[[{"header":{"parameterUnit":"m.s-1","parameterCategory":1,"la1":31.0,"la2":29.5877,"lo1":-88.7671,"lo2":-86.6584,"dy":0.0162,"dx":0.0185,"nx":115,"ny":88,"refTime":"2026-04-26T12:00:00:Z","depth":0,"parameterNumber":2,"parameterNumberName":"U-component_of_WINDS"},"data":[0.0,0.0,0.0,0.0,0.0,0.0,0.0,0.0,0.0,0.0,0.0,0.0,0.0,0.0,0.0,0.0,0.0,0.0,0.0,0.0,0.0,0.0,0.0,0.0,0.0,0.0,0.0,0.0,0.0,0.0,0.0,0.0,0.0,0.0,0.0,0.0,0.0,0.0,0.0,0.0,0.0,0.0,0.0,0.0,0.0,0.0,0.0,0.0,0.0,0.0,0.0,0.0,0.0,0.0,0.0,0.0,0.0,0.0,0.0,0.0,0.0,0.0,0.0,0.0,0.0,0.0,0.0,0.0,0.0,0.0,0.0,0.0,0.0,0.0,0.0,0.0,0.0,0.0,0.0,0.0,0.0,0.0,0.0,0.0,0.0,0.0,0.0,0.0,0.0,0.0,0.0,0.0,0.0,0.0,0.0,0.0,0.0,0.0,0.0,0.0,0.0,0.0,0.0,0.0,0.0,0.0,0.0,0.0,0.0,0.0,0.0,0.0,0.0,0.0,0.0,0.0,0.0,0.0,0.0,0.0,0.0,0.0,0.0,0.0,0.0,0.0,0.0,0.0,0.0,0.0,0.0,0.0,0.0,0.0,0.0,0.0,0.0,0.0,0.0,0.0,0.0,0.0,0.0,0.0,0.0,0.0,0.0,0.0,0.0,0.0,0.0,0.0,0.0,0.0,0.0,0.0,0.0,0.0,0.0,0.0,0.0,0.0,0.0,0.0,0.0,0.0,0.0,0.0,0.0,0.0,0.0,0.0,0.0,0.0,0.0,0.0,0.0,0.0,0.0,0.0,0.0,0.0,0.0,0.0,0.0,0.0,0.0,0.0,0.0,0.0,0.0,0.0,0.0,0.0,0.0,0.0,0.0,0.0,0.0,0.0,0.0,0.0,0.0,0.0,0.0,0.0,0.0,0.0,0.0,0.0,0.0,0.0,0.0,0.0,0.0,0.0,0.0,0.0,0.0,0.0,0.0,0.0,0.0,0.0,0.0,0.0,0.0,0.0,0.0,0.0,0.0,0.0,0.0,0.0,0.0,0.0,0.0,0.0,0.0,0.0,0.0,0.0,0.0,0.0,0.0,0.0,0.0,0.0,0.0,0.0,0.0,0.0,0.0,0.0,0.0,0.0,0.0,0.0,0.0,0.0,0.0,0.0,0.0,0.0,0.0,0.0,0.0,0.0,0.0,0.0,0.0,0.0,0.0,0.0,0.0,0.0,0.0,0.0,0.0,0.0,0.0,0.0,0.0,0.0,0.0,0.0,0.0,0.0,0.0,0.0,0.0,0.0,0.0,0.0,0.0,0.0,0.0,0.0,0.0,0.0,0.0,0.0,0.0,0.0,0.0,0.0,0.0,0.0,0.0,0.0,0.0,0.0,0.0,0.0,0.0,0.0,0.0,0.0,0.0,0.0,0.0,0.0,0.0,0.0,0.0,0.0,0.0,0.0,0.0,0.0,0.0,0.0,0.0,0.0,0.0,0.0,0.0,0.0,0.0,0.0,0.0,0.0,0.0,0.0,0.0,0.0,0.0,0.0,0.0,0.0,0.0,0.0,0.0,0.0,0.0,0.0,0.0,0.0,0.0,0.0,0.0,0.0,0.0,0.0,0.0,0.0,0.0,0.0,0.0,0.0,0.0,0.0,0.0,0.0,0.0,0.0,0.0,0.0,0.0,0.0,0.0,0.0,0.0,0.0,0.0,0.0,0.0,0.0,0.0,0.0,0.0,0.0,0.0,0.0,0.0,0.0,0.0,0.0,0.0,0.0,0.0,0.0,0.0,0.0,0.0,0.0,0.0,0.0,0.0,0.0,0.0,0.0,0.0,0.0,0.0,0.0,0.0,0.0,0.0,0.0,0.0,0.0,0.0,0.0,0.0,0.0,0.0,0.0,0.0,0.0,0.0,0.0,0.0,0.0,0.0,0.0,0.0,0.0,0.0,0.0,0.0,0.0,0.0,0.0,0.0,0.0,0.0,0.0,0.0,0.0,0.0,0.0,0.0,0.0,0.0,0.0,0.0,0.0,0.0,0.0,0.0,0.0,0.0,0.0,0.0,0.0,0.0,0.0,0.0,0.0,0.0,0.0,0.0,0.0,0.0,0.0,0.0,0.0,0.0,0.0,0.0,0.0,0.0,0.0,0.0,0.0,0.0,0.0,0.0,0.0,0.0,0.0,0.0,0.0,0.0,0.0,0.0,0.0,0.0,0.0,0.0,0.0,0.0,0.0,0.0,0.0,0.0,0.0,0.0,0.0,0.0,0.0,0.0,0.0,0.0,0.0,0.0,0.0,0.0,0.0,0.0,0.0,0.0,0.0,0.0,0.0,0.0,0.0,0.0,0.0,0.0,0.0,0.0,0.0,0.0,0.0,0.0,0.0,0.0,0.0,0.0,0.0,0.0,0.0,0.0,0.0,0.0,0.0,0.0,0.0,0.0,0.0,0.0,0.0,0.0,0.0,0.0,0.0,0.0,0.0,0.0,0.0,0.0,0.0,0.0,0.0,0.0,0.0,0.0,0.0,0.0,0.0,0.0,0.0,0.0,0.0,0.0,0.0,0.0,0.0,0.0,0.0,0.0,0.0,0.0,0.0,0.0,0.0,0.0,0.0,0.0,0.0,0.0,0.0,0.0,0.0,0.0,0.0,0.0,0.0,0.0,0.0,0.0,0.0,0.0,0.0,0.0,0.0,0.0,0.0,0.0,0.0,0.0,0.0,0.0,0.0,0.0,0.0,0.0,0.0,0.0,0.0,0.0,0.0,0.0,0.0,0.0,0.0,0.0,0.0,0.0,0.0,0.0,0.0,0.0,0.0,0.0,0.0,0.0,0.0,0.0,0.0,0.0,0.0,0.0,0.0,0.0,0.0,0.0,0.0,0.0,0.0,0.0,0.0,0.0,0.0,0.0,0.0,0.0,0.0,0.0,0.0,0.0,0.0,0.0,0.0,0.0,0.0,0.0,0.0,0.0,0.0,0.0,0.0,0.0,0.0,0.0,0.0,0.0,0.0,0.0,0.0,0.0,0.0,0.0,0.0,0.0,0.0,0.0,0.0,0.0,0.0,0.0,0.0,0.0,0.0,0.0,0.0,0.0,0.0,0.0,0.0,0.0,0.0,0.0,0.0,0.0,0.0,0.0,0.0,0.0,0.0,0.0,0.0,0.0,0.0,0.0,0.0,0.0,0.0,0.0,0.0,0.0,0.0,0.0,0.0,0.0,0.0,0.0,0.0,0.0,0.0,0.0,0.0,0.0,0.0,0.0,0.0,0.0,0.0,0.0,0.0,0.0,0.0,0.0,0.0,0.0,0.0,0.0,0.0,0.0,0.0,0.0,0.0,0.0,0.0,0.0,0.0,0.0,0.0,0.0,0.0,0.0,0.0,0.0,0.0,0.0,0.0,0.0,0.0,0.0,0.0,0.0,0.0,0.0,0.0,0.0,0.0,0.0,0.0,0.0,0.0,0.0,0.0,0.0,0.0,0.0,0.0,0.0,0.0,0.0,0.0,0.0,0.0,0.0,0.0,0.0,0.0,0.0,0.0,0.0,0.0,0.0,0.0,0.0,0.0,0.0,0.0,0.0,0.0,0.0,0.0,0.0,0.0,0.0,0.0,0.0,0.0,0.0,0.0,0.0,0.0,0.0,0.0,0.0,0.0,0.0,0.0,0.0,0.0,0.0,0.0,0.0,0.0,0.0,0.0,0.0,0.0,0.0,0.0,0.0,0.0,0.0,0.0,0.0,0.0,0.0,0.0,0.0,0.0,0.0,0.0,0.0,0.0,0.0,0.0,0.0,0.0,0.0,0.0,0.0,0.0,0.0,0.0,0.0,0.0,0.0,0.0,0.0,0.0,0.0,0.0,0.0,0.0,0.0,0.0,0.0,0.0,0.0,0.0,0.0,0.0,0.0,0.0,0.0,0.0,0.0,0.0,0.0,0.0,0.0,0.0,0.0,0.0,0.0,0.0,0.0,0.0,0.0,0.0,0.0,0.0,0.0,0.0,0.0,0.0,0.0,0.0,0.0,0.0,0.0,0.0,0.0,0.0,0.0,0.0,0.0,0.0,0.0,0.0,0.0,0.0,0.0,0.0,0.0,0.0,0.0,0.0,0.0,0.0,0.0,0.0,0.0,0.0,0.0,0.0,0.0,0.0,0.0,0.0,0.0,0.0,0.0,0.0,0.0,0.0,0.0,0.0,0.0,0.0,0.0,0.0,0.0,0.0,0.0,0.0,0.0,0.0,0.0,0.0,0.0,0.0,0.0,0.0,0.0,0.0,-4.9987,0.0,0.0,0.0,0.0,0.0,0.0,0.0,0.0,0.0,0.0,0.0,0.0,0.0,0.0,0.0,0.0,0.0,0.0,0.0,0.0,0.0,0.0,0.0,0.0,0.0,0.0,0.0,0.0,0.0,0.0,0.0,0.0,0.0,0.0,0.0,0.0,0.0,0.0,0.0,0.0,0.0,0.0,0.0,0.0,0.0,0.0,0.0,0.0,0.0,0.0,0.0,0.0,0.0,0.0,0.0,0.0,0.0,0.0,0.0,0.0,0.0,0.0,0.0,0.0,0.0,0.0,0.0,0.0,0.0,0.0,0.0,0.0,0.0,0.0,0.0,0.0,0.0,0.0,0.0,0.0,0.0,0.0,0.0,0.0,0.0,0.0,0.0,0.0,0.0,0.0,0.0,0.0,0.0,0.0,0.0,0.0,0.0,0.0,0.0,0.0,0.0,0.0,0.0,0.0,0.0,0.0,0.0,0.0,0.0,0.0,-5.5416,-5.5662,-5.4594,-5.2896,-5.0591,0.0,0.0,0.0,0.0,0.0,0.0,0.0,0.0,0.0,0.0,0.0,0.0,0.0,0.0,0.0,0.0,0.0,0.0,0.0,0.0,0.0,0.0,0.0,0.0,0.0,0.0,0.0,0.0,0.0,0.0,0.0,0.0,0.0,0.0,0.0,0.0,0.0,0.0,0.0,0.0,0.0,0.0,0.0,0.0,0.0,0.0,0.0,0.0,0.0,0.0,0.0,0.0,0.0,0.0,0.0,0.0,0.0,0.0,0.0,0.0,0.0,0.0,0.0,0.0,0.0,0.0,0.0,0.0,0.0,0.0,0.0,0.0,0.0,0.0,0.0,0.0,0.0,0.0,0.0,0.0,0.0,0.0,0.0,0.0,0.0,0.0,0.0,0.0,0.0,0.0,0.0,0.0,0.0,0.0,0.0,0.0,0.0,0.0,0.0,0.0,0.0,0.0,0.0,0.0,0.0,0.0,0.0,0.0,0.0,0.0,0.0,0.0,-5.5214,-5.3426,-5.1117,0.0,0.0,0.0,0.0,0.0,0.0,0.0,0.0,0.0,0.0,0.0,0.0,0.0,0.0,0.0,0.0,0.0,0.0,0.0,0.0,0.0,0.0,0.0,0.0,0.0,0.0,0.0,0.0,0.0,0.0,0.0,0.0,0.0,0.0,0.0,0.0,0.0,0.0,0.0,0.0,0.0,0.0,0.0,0.0,0.0,0.0,0.0,0.0,0.0,0.0,0.0,0.0,0.0,0.0,0.0,0.0,0.0,0.0,0.0,0.0,0.0,0.0,0.0,0.0,0.0,0.0,0.0,0.0,0.0,0.0,0.0,0.0,0.0,0.0,0.0,0.0,0.0,0.0,0.0,0.0,0.0,0.0,0.0,0.0,0.0,0.0,0.0,0.0,0.0,0.0,0.0,0.0,0.0,0.0,0.0,0.0,0.0,0.0,0.0,0.0,0.0,0.0,0.0,0.0,0.0,0.0,0.0,0.0,0.0,0.0,-5.5134,-5.7205,-5.6542,0.0,-5.1405,0.0,0.0,0.0,0.0,0.0,0.0,0.0,0.0,0.0,0.0,0.0,0.0,0.0,0.0,0.0,0.0,0.0,0.0,0.0,0.0,0.0,0.0,0.0,0.0,0.0,0.0,0.0,0.0,0.0,0.0,0.0,0.0,0.0,0.0,0.0,0.0,0.0,0.0,0.0,0.0,0.0,0.0,0.0,0.0,0.0,0.0,0.0,0.0,0.0,0.0,0.0,0.0,0.0,0.0,0.0,0.0,0.0,0.0,0.0,0.0,0.0,0.0,0.0,0.0,0.0,0.0,0.0,0.0,0.0,0.0,0.0,0.0,0.0,0.0,0.0,0.0,0.0,0.0,0.0,0.0,0.0,0.0,0.0,0.0,0.0,0.0,0.0,0.0,0.0,0.0,0.0,0.0,0.0,0.0,0.0,0.0,0.0,0.0,0.0,0.0,0.0,0.0,0.0,0.0,0.0,0.0,0.0,0.0,0.0,0.0,-5.6051,-5.7389,-5.5171,-5.3093,0.0,0.0,0.0,0.0,0.0,0.0,0.0,0.0,0.0,0.0,0.0,0.0,0.0,0.0,0.0,0.0,0.0,0.0,0.0,0.0,0.0,0.0,0.0,0.0,0.0,0.0,0.0,0.0,0.0,0.0,0.0,0.0,0.0,0.0,0.0,0.0,0.0,0.0,0.0,0.0,0.0,0.0,0.0,0.0,0.0,0.0,0.0,0.0,0.0,0.0,0.0,0.0,0.0,0.0,0.0,0.0,0.0,0.0,0.0,0.0,0.0,0.0,0.0,0.0,0.0,0.0,0.0,0.0,0.0,0.0,0.0,0.0,0.0,0.0,0.0,0.0,0.0,0.0,0.0,0.0,0.0,0.0,0.0,0.0,0.0,0.0,0.0,0.0,0.0,0.0,0.0,0.0,0.0,0.0,0.0,0.0,0.0,0.0,0.0,0.0,0.0,0.0,0.0,0.0,0.0,0.0,0.0,0.0,0.0,0.0,-5.6136,-5.6718,-5.7269,-5.5209,-5.3125,-5.1218,0.0,0.0,0.0,0.0,0.0,0.0,0.0,0.0,0.0,0.0,0.0,0.0,0.0,0.0,0.0,0.0,0.0,0.0,0.0,0.0,0.0,0.0,0.0,0.0,0.0,0.0,0.0,0.0,0.0,0.0,0.0,0.0,0.0,0.0,0.0,0.0,0.0,0.0,0.0,0.0,0.0,0.0,0.0,0.0,0.0,0.0,0.0,0.0,0.0,0.0,0.0,0.0,0.0,0.0,0.0,0.0,0.0,0.0,0.0,0.0,0.0,0.0,0.0,0.0,0.0,0.0,0.0,0.0,0.0,0.0,0.0,0.0,0.0,0.0,0.0,0.0,0.0,0.0,0.0,0.0,0.0,0.0,0.0,0.0,0.0,0.0,0.0,0.0,0.0,0.0,0.0,0.0,0.0,0.0,0.0,0.0,0.0,0.0,0.0,0.0,0.0,0.0,0.0,0.0,0.0,0.0,0.0,0.0,0.0,-5.6725,-5.6738,-5.7424,-5.7914,-5.5957,0.0,0.0,0.0,0.0,0.0,0.0,0.0,0.0,0.0,0.0,0.0,0.0,0.0,0.0,0.0,0.0,0.0,0.0,0.0,0.0,0.0,0.0,0.0,0.0,0.0,0.0,0.0,0.0,0.0,0.0,0.0,0.0,0.0,0.0,0.0,0.0,0.0,0.0,0.0,0.0,0.0,0.0,0.0,0.0,0.0,0.0,0.0,0.0,0.0,0.0,0.0,0.0,0.0,0.0,0.0,0.0,0.0,0.0,0.0,0.0,0.0,0.0,0.0,0.0,0.0,0.0,0.0,0.0,0.0,0.0,0.0,0.0,0.0,0.0,0.0,0.0,0.0,0.0,0.0,0.0,0.0,0.0,0.0,0.0,0.0,0.0,0.0,0.0,0.0,0.0,0.0,0.0,0.0,0.0,0.0,0.0,0.0,0.0,0.0,0.0,0.0,0.0,0.0,0.0,0.0,0.0,0.0,0.0,0.0,-5.4938,-5.6328,-5.7729,-5.9015,-5.6195,-5.3969,0.0,0.0,0.0,0.0,0.0,0.0,0.0,0.0,0.0,0.0,0.0,0.0,0.0,0.0,0.0,0.0,0.0,0.0,0.0,0.0,0.0,0.0,0.0,0.0,0.0,0.0,0.0,0.0,0.0,0.0,0.0,0.0,0.0,0.0,0.0,0.0,0.0,0.0,0.0,0.0,0.0,0.0,0.0,0.0,0.0,0.0,0.0,0.0,0.0,0.0,0.0,0.0,0.0,0.0,0.0,0.0,0.0,0.0,0.0,0.0,0.0,0.0,0.0,0.0,0.0,0.0,0.0,0.0,0.0,0.0,0.0,0.0,0.0,0.0,0.0,0.0,0.0,0.0,0.0,0.0,0.0,0.0,0.0,0.0,0.0,0.0,0.0,0.0,0.0,0.0,0.0,0.0,0.0,0.0,0.0,0.0,0.0,0.0,0.0,0.0,0.0,0.0,0.0,0.0,0.0,0.0,0.0,0.0,0.0,-5.4909,0.0,-5.8535,0.0,-5.5506,-5.3171,0.0,0.0,0.0,0.0,0.0,0.0,0.0,0.0,0.0,0.0,0.0,0.0,0.0,0.0,0.0,0.0,0.0,0.0,0.0,0.0,0.0,0.0,0.0,0.0,0.0,0.0,0.0,0.0,0.0,0.0,0.0,0.0,0.0,0.0,0.0,0.0,0.0,0.0,0.0,0.0,0.0,0.0,0.0,0.0,0.0,0.0,0.0,0.0,0.0,0.0,0.0,0.0,0.0,0.0,0.0,0.0,0.0,0.0,0.0,0.0,0.0,0.0,0.0,0.0,0.0,0.0,0.0,0.0,0.0,0.0,0.0,0.0,0.0,0.0,0.0,0.0,0.0,0.0,0.0,0.0,0.0,0.0,0.0,0.0,0.0,0.0,0.0,0.0,0.0,0.0,0.0,0.0,0.0,0.0,0.0,0.0,0.0,0.0,0.0,0.0,0.0,0.0,0.0,0.0,0.0,0.0,0.0,0.0,-5.3926,-5.7465,-5.9213,-5.8973,-5.6599,-5.6336,-5.395,0.0,0.0,0.0,0.0,0.0,0.0,0.0,0.0,0.0,0.0,0.0,0.0,0.0,0.0,0.0,0.0,0.0,0.0,0.0,0.0,0.0,0.0,0.0,0.0,0.0,0.0,0.0,0.0,0.0,0.0,0.0,0.0,0.0,0.0,0.0,0.0,0.0,0.0,0.0,0.0,0.0,0.0,0.0,0.0,0.0,0.0,0.0,0.0,0.0,0.0,0.0,0.0,0.0,0.0,0.0,0.0,0.0,0.0,0.0,0.0,0.0,0.0,0.0,0.0,0.0,0.0,0.0,0.0,0.0,0.0,0.0,0.0,0.0,0.0,0.0,0.0,0.0,0.0,0.0,0.0,0.0,0.0,0.0,0.0,0.0,0.0,0.0,0.0,0.0,0.0,0.0,0.0,0.0,0.0,0.0,0.0,0.0,0.0,0.0,0.0,0.0,0.0,0.0,0.0,0.0,0.0,0.0,0.0,0.0,-5.6048,-5.8186,-5.9265,-5.9057,-5.6179,-5.3891,0.0,0.0,0.0,0.0,0.0,0.0,0.0,0.0,0.0,0.0,0.0,0.0,0.0,0.0,0.0,0.0,0.0,0.0,0.0,0.0,0.0,0.0,0.0,0.0,0.0,0.0,0.0,0.0,0.0,0.0,0.0,0.0,0.0,0.0,0.0,0.0,0.0,0.0,0.0,0.0,0.0,0.0,0.0,0.0,0.0,0.0,0.0,0.0,0.0,0.0,0.0,0.0,0.0,0.0,0.0,0.0,0.0,0.0,0.0,0.0,0.0,0.0,0.0,0.0,0.0,0.0,0.0,0.0,0.0,0.0,0.0,0.0,0.0,0.0,0.0,0.0,0.0,0.0,0.0,0.0,0.0,0.0,0.0,0.0,0.0,0.0,0.0,0.0,0.0,0.0,0.0,0.0,0.0,0.0,0.0,0.0,0.0,0.0,0.0,0.0,0.0,0.0,0.0,0.0,0.0,0.0,0.0,0.0,0.0,-5.7265,-5.9327,-6.042,-6.039,-5.6788,-5.4271,-5.2984,0.0,0.0,0.0,0.0,0.0,0.0,0.0,0.0,0.0,0.0,0.0,0.0,0.0,0.0,0.0,0.0,0.0,0.0,0.0,0.0,0.0,0.0,0.0,0.0,0.0,0.0,0.0,0.0,0.0,0.0,0.0,0.0,0.0,0.0,0.0,0.0,0.0,0.0,0.0,0.0,0.0,0.0,0.0,0.0,0.0,0.0,0.0,0.0,0.0,0.0,0.0,0.0,0.0,0.0,0.0,0.0,0.0,0.0,0.0,0.0,0.0,0.0,0.0,0.0,0.0,0.0,0.0,0.0,0.0,0.0,0.0,0.0,0.0,0.0,0.0,0.0,0.0,0.0,0.0,0.0,0.0,0.0,0.0,0.0,0.0,0.0,0.0,0.0,0.0,0.0,0.0,0.0,0.0,0.0,0.0,0.0,0.0,0.0,0.0,0.0,0.0,0.0,0.0,0.0,0.0,0.0,0.0,0.0,-6.043,-6.2226,-6.2383,-6.0781,-5.8144,-5.5113,0.0,0.0,0.0,0.0,0.0,0.0,0.0,0.0,0.0,0.0,0.0,0.0,0.0,0.0,0.0,0.0,0.0,0.0,0.0,0.0,0.0,0.0,0.0,0.0,0.0,0.0,0.0,0.0,0.0,0.0,0.0,0.0,0.0,0.0,0.0,0.0,0.0,0.0,0.0,0.0,0.0,0.0,0.0,0.0,0.0,0.0,0.0,0.0,0.0,0.0,0.0,0.0,0.0,0.0,0.0,0.0,0.0,0.0,0.0,0.0,0.0,0.0,0.0,0.0,0.0,0.0,0.0,0.0,0.0,0.0,0.0,0.0,0.0,0.0,0.0,0.0,0.0,0.0,0.0,0.0,0.0,0.0,0.0,0.0,0.0,0.0,0.0,0.0,0.0,0.0,0.0,0.0,0.0,0.0,0.0,0.0,0.0,0.0,0.0,0.0,0.0,0.0,0.0,0.0,0.0,0.0,0.0,0.0,0.0,-6.1308,-6.3691,-6.4707,-6.418,-6.0527,-5.7125,0.0,0.0,0.0,0.0,0.0,0.0,0.0,0.0,0.0,0.0,0.0,0.0,0.0,0.0,0.0,0.0,0.0,0.0,0.0,0.0,0.0,0.0,0.0,0.0,0.0,0.0,0.0,0.0,0.0,0.0,0.0,0.0,0.0,0.0,0.0,0.0,0.0,0.0,0.0,0.0,0.0,0.0,0.0,0.0,0.0,0.0,0.0,0.0,0.0,0.0,0.0,0.0,0.0,0.0,0.0,0.0,0.0,0.0,0.0,0.0,0.0,0.0,0.0,0.0,0.0,0.0,0.0,0.0,0.0,0.0,0.0,0.0,0.0,0.0,0.0,0.0,0.0,0.0,0.0,0.0,0.0,0.0,0.0,0.0,0.0,0.0,0.0,0.0,0.0,0.0,0.0,0.0,0.0,0.0,0.0,0.0,0.0,0.0,0.0,0.0,0.0,0.0,0.0,0.0,0.0,0.0,0.0,0.0,-5.99,-6.2665,-6.5331,-6.668,-6.6699,-6.2456,-5.8726,0.0,0.0,0.0,0.0,0.0,0.0,0.0,0.0,0.0,0.0,0.0,0.0,0.0,0.0,0.0,0.0,0.0,0.0,0.0,0.0,0.0,0.0,0.0,0.0,0.0,0.0,0.0,0.0,0.0,0.0,0.0,0.0,0.0,0.0,0.0,0.0,0.0,0.0,0.0,0.0,0.0,0.0,0.0,0.0,0.0,0.0,0.0,0.0,0.0,0.0,0.0,0.0,0.0,0.0,0.0,0.0,0.0,0.0,0.0,0.0,0.0,0.0,0.0,0.0,0.0,0.0,0.0,0.0,0.0,0.0,0.0,0.0,0.0,0.0,0.0,0.0,0.0,0.0,0.0,0.0,0.0,0.0,0.0,0.0,0.0,0.0,0.0,0.0,0.0,0.0,0.0,0.0,0.0,0.0,0.0,0.0,0.0,0.0,0.0,0.0,0.0,0.0,0.0,0.0,0.0,0.0,0.0,0.0,-6.1252,-6.3875,-6.6609,-6.8008,-6.7888,-6.3779,-5.9879,0.0,0.0,0.0,0.0,0.0,0.0,0.0,0.0,0.0,0.0,0.0,0.0,0.0,0.0,0.0,0.0,0.0,0.0,0.0,0.0,0.0,0.0,0.0,0.0,0.0,0.0,0.0,0.0,0.0,0.0,0.0,0.0,0.0,0.0,0.0,0.0,0.0,0.0,0.0,0.0,0.0,0.0,0.0,0.0,0.0,0.0,0.0,0.0,0.0,0.0,0.0,0.0,0.0,0.0,0.0,0.0,0.0,0.0,0.0,0.0,0.0,0.0,0.0,0.0,0.0,0.0,0.0,0.0,0.0,0.0,0.0,0.0,0.0,0.0,0.0,0.0,0.0,0.0,0.0,0.0,0.0,0.0,0.0,0.0,0.0,0.0,0.0,0.0,0.0,0.0,0.0,0.0,0.0,0.0,0.0,0.0,0.0,0.0,0.0,0.0,0.0,0.0,0.0,0.0,0.0,0.0,0.0,0.0,-6.0805,-6.2827,-6.5526,-6.6886,-6.678,-6.3354,-6.0155,0.0,0.0,0.0,0.0,0.0,0.0,0.0,0.0,0.0,0.0,0.0,0.0,0.0,0.0,0.0,0.0,0.0,0.0,0.0,0.0,0.0,0.0,0.0,0.0,0.0,0.0,0.0,0.0,0.0,0.0,0.0,0.0,0.0,0.0,0.0,0.0,0.0,0.0,0.0,0.0,0.0,0.0,0.0,0.0,0.0,0.0,0.0,0.0,-5.3636,0.0,0.0,0.0,0.0,0.0,0.0,0.0,0.0,0.0,0.0,0.0,0.0,0.0,0.0,0.0,0.0,0.0,0.0,0.0,0.0,0.0,0.0,0.0,0.0,0.0,0.0,0.0,0.0,0.0,0.0,0.0,0.0,0.0,0.0,0.0,0.0,0.0,0.0,0.0,0.0,0.0,0.0,0.0,0.0,0.0,0.0,0.0,0.0,0.0,0.0,0.0,0.0,0.0,0.0,0.0,0.0,0.0,0.0,0.0,-6.1655,-6.3029,-6.5286,-6.6278,-6.5738,-6.3233,-6.0458,0.0,0.0,0.0,0.0,0.0,0.0,0.0,0.0,0.0,0.0,0.0,0.0,0.0,0.0,0.0,0.0,0.0,0.0,0.0,0.0,0.0,0.0,0.0,0.0,0.0,0.0,0.0,0.0,0.0,0.0,0.0,0.0,0.0,0.0,0.0,0.0,0.0,0.0,0.0,0.0,0.0,0.0,0.0,0.0,0.0,0.0,0.0,0.0,0.0,0.0,0.0,0.0,0.0,0.0,0.0,0.0,0.0,0.0,0.0,0.0,0.0,0.0,0.0,0.0,0.0,0.0,0.0,0.0,0.0,0.0,0.0,0.0,0.0,0.0,0.0,0.0,0.0,0.0,0.0,0.0,0.0,0.0,0.0,0.0,0.0,0.0,0.0,0.0,0.0,0.0,0.0,0.0,0.0,0.0,0.0,0.0,0.0,0.0,0.0,0.0,0.0,0.0,0.0,0.0,0.0,0.0,0.0,-5.9374,-6.2103,-6.338,-6.5068,-6.5602,-6.4835,-6.3172,-6.0532,-5.6822,0.0,0.0,0.0,0.0,0.0,0.0,0.0,0.0,0.0,0.0,0.0,0.0,0.0,0.0,0.0,0.0,0.0,0.0,0.0,0.0,0.0,0.0,0.0,0.0,0.0,0.0,0.0,0.0,0.0,0.0,0.0,0.0,0.0,0.0,0.0,0.0,0.0,0.0,-4.4855,-4.8959,0.0,0.0,0.0,0.0,0.0,0.0,0.0,0.0,-5.378,0.0,0.0,0.0,0.0,0.0,0.0,0.0,0.0,0.0,0.0,0.0,0.0,0.0,0.0,0.0,0.0,0.0,0.0,0.0,0.0,0.0,0.0,0.0,0.0,0.0,0.0,0.0,0.0,0.0,0.0,0.0,0.0,0.0,0.0,0.0,0.0,0.0,0.0,0.0,0.0,0.0,0.0,0.0,0.0,0.0,0.0,0.0,0.0,0.0,0.0,0.0,0.0,0.0,0.0,0.0,0.0,-5.5598,-5.7128,-5.9312,-6.2278,-6.3458,-6.3912,-6.3591,-6.2762,-5.9833,-5.4733,0.0,0.0,0.0,0.0,0.0,0.0,0.0,0.0,0.0,0.0,0.0,0.0,0.0,0.0,0.0,0.0,0.0,0.0,0.0,0.0,0.0,0.0,0.0,0.0,0.0,0.0,0.0,0.0,0.0,0.0,0.0,0.0,0.0,0.0,0.0,0.0,0.0,0.0,0.0,-5.1608,-5.3534,0.0,0.0,0.0,0.0,0.0,0.0,0.0,0.0,-5.3437,0.0,0.0,0.0,0.0,0.0,0.0,0.0,0.0,0.0,0.0,0.0,0.0,0.0,0.0,0.0,0.0,0.0,0.0,0.0,0.0,0.0,0.0,0.0,0.0,0.0,0.0,0.0,0.0,0.0,0.0,0.0,0.0,0.0,0.0,0.0,0.0,0.0,0.0,0.0,0.0,0.0,0.0,0.0,0.0,0.0,0.0,0.0,0.0,0.0,0.0,0.0,0.0,0.0,0.0,0.0,-5.4455,-5.7246,-5.9772,-6.2031,-6.2971,-6.3202,-6.2659,-6.0885,-5.7949,0.0,0.0,0.0,0.0,0.0,0.0,0.0,0.0,0.0,0.0,0.0,0.0,0.0,0.0,0.0,0.0,0.0,0.0,0.0,0.0,0.0,0.0,0.0,0.0,0.0,0.0,0.0,0.0,0.0,0.0,0.0,0.0,0.0,0.0,0.0,0.0,0.0,0.0,0.0,0.0,-5.1697,-5.3171,-5.4001,0.0,0.0,0.0,0.0,0.0,0.0,-5.3453,-5.3106,0.0,0.0,0.0,0.0,0.0,0.0,0.0,0.0,0.0,0.0,0.0,0.0,0.0,0.0,0.0,0.0,0.0,0.0,0.0,0.0,0.0,0.0,0.0,0.0,0.0,0.0,0.0,0.0,0.0,0.0,0.0,0.0,0.0,0.0,0.0,0.0,0.0,0.0,0.0,0.0,0.0,0.0,0.0,0.0,0.0,0.0,0.0,0.0,0.0,0.0,0.0,0.0,0.0,0.0,0.0,-5.2802,-5.688,-5.9678,-6.1039,-6.1844,-6.1882,-6.1071,-5.8811,-5.6045,0.0,0.0,0.0,0.0,0.0,0.0,0.0,0.0,0.0,0.0,0.0,0.0,0.0,0.0,0.0,0.0,0.0,0.0,0.0,0.0,0.0,0.0,0.0,0.0,0.0,0.0,0.0,0.0,0.0,0.0,0.0,0.0,0.0,0.0,0.0,0.0,0.0,0.0,0.0,0.0,0.0,-5.3078,-5.4014,-5.3059,0.0,0.0,0.0,0.0,-5.3565,-5.3596,0.0,0.0,0.0,0.0,0.0,0.0,0.0,0.0,0.0,0.0,0.0,0.0,0.0,0.0,0.0,0.0,0.0,0.0,0.0,0.0,0.0,0.0,0.0,0.0,0.0,0.0,0.0,0.0,0.0,0.0,0.0,0.0,0.0,0.0,0.0,0.0,0.0,0.0,0.0,0.0,0.0,0.0,0.0,0.0,0.0,0.0,0.0,0.0,0.0,0.0,0.0,0.0,0.0,0.0,0.0,0.0,-5.0569,-5.3527,-5.5882,-5.7526,-5.84,-5.8419,-5.7621,-5.7267,-5.5053,0.0,0.0,0.0,0.0,0.0,0.0,0.0,0.0,0.0,0.0,0.0,0.0,0.0,0.0,0.0,0.0,0.0,0.0,0.0,0.0,0.0,0.0,0.0,0.0,0.0,0.0,0.0,0.0,0.0,0.0,0.0,0.0,0.0,0.0,0.0,0.0,0.0,0.0,0.0,0.0,0.0,-5.473,-5.3518,-5.3206,-5.3152,0.0,0.0,-5.3527,-5.3318,-5.5028,0.0,0.0,0.0,0.0,0.0,0.0,0.0,0.0,0.0,0.0,0.0,0.0,0.0,0.0,0.0,0.0,0.0,0.0,0.0,0.0,0.0,0.0,0.0,0.0,0.0,0.0,0.0,0.0,0.0,0.0,0.0,0.0,0.0,0.0,0.0,0.0,0.0,0.0,0.0,0.0,0.0,0.0,0.0,0.0,0.0,0.0,0.0,0.0,0.0,0.0,0.0,0.0,0.0,0.0,0.0,-4.7628,-5.0172,-5.2776,-5.5044,-5.6911,-5.7326,-5.7364,-5.7003,-5.4997,-5.2731,0.0,0.0,0.0,0.0,0.0,0.0,0.0,0.0,0.0,0.0,0.0,0.0,0.0,0.0,0.0,0.0,0.0,0.0,0.0,0.0,0.0,0.0,0.0,0.0,0.0,0.0,0.0,0.0,0.0,0.0,0.0,0.0,0.0,0.0,0.0,0.0,0.0,0.0,0.0,0.0,0.0,0.0,-5.4454,-5.4161,0.0,0.0,0.0,-5.3512,-5.3545,0.0,0.0,0.0,0.0,0.0,0.0,0.0,0.0,0.0,0.0,0.0,0.0,0.0,0.0,0.0,0.0,0.0,0.0,0.0,0.0,0.0,0.0,0.0,0.0,0.0,0.0,0.0,0.0,0.0,0.0,0.0,0.0,0.0,0.0,0.0,0.0,0.0,0.0,0.0,0.0,0.0,0.0,0.0,0.0,0.0,0.0,0.0,0.0,0.0,0.0,0.0,0.0,0.0,0.0,0.0,0.0,0.0,-4.9724,-5.2364,-5.4466,-5.5987,-5.6043,-5.5967,-5.5704,-5.2861,0.0,0.0,0.0,0.0,0.0,0.0,0.0,0.0,0.0,0.0,0.0,0.0,0.0,0.0,0.0,0.0,0.0,0.0,0.0,0.0,0.0,0.0,0.0,0.0,0.0,0.0,0.0,-3.892,0.0,0.0,0.0,0.0,0.0,0.0,0.0,0.0,0.0,0.0,0.0,0.0,0.0,0.0,-5.2724,-5.4726,-5.4488,-5.4316,0.0,0.0,-5.3389,-5.3864,-5.4107,-5.342,0.0,0.0,0.0,0.0,0.0,0.0,0.0,0.0,0.0,0.0,0.0,0.0,0.0,0.0,0.0,0.0,0.0,0.0,0.0,0.0,0.0,0.0,0.0,0.0,0.0,0.0,0.0,0.0,0.0,0.0,0.0,0.0,0.0,0.0,0.0,0.0,0.0,0.0,0.0,0.0,0.0,0.0,0.0,0.0,0.0,0.0,0.0,0.0,0.0,0.0,0.0,0.0,0.0,0.0,0.0,-4.8473,-5.1577,-5.3269,-5.3461,-5.344,-5.3093,-5.2338,-5.1379,-4.9741,0.0,0.0,0.0,0.0,0.0,0.0,0.0,0.0,0.0,0.0,0.0,0.0,0.0,0.0,0.0,0.0,0.0,0.0,0.0,0.0,0.0,0.0,0.0,0.0,0.0,0.0,0.0,0.0,0.0,0.0,0.0,0.0,0.0,0.0,0.0,0.0,0.0,0.0,0.0,0.0,0.0,-5.2322,-5.3231,-5.3322,-5.4067,0.0,0.0,-5.3463,-5.424,-5.4978,-5.3913,-4.9282,0.0,0.0,0.0,0.0,0.0,0.0,0.0,0.0,0.0,0.0,0.0,0.0,0.0,0.0,0.0,0.0,0.0,0.0,0.0,0.0,0.0,0.0,0.0,0.0,0.0,0.0,0.0,0.0,0.0,0.0,0.0,0.0,0.0,0.0,0.0,0.0,0.0,0.0,0.0,0.0,0.0,0.0,0.0,0.0,0.0,0.0,0.0,0.0,0.0,0.0,0.0,0.0,0.0,-4.5316,-4.7048,-4.8868,-5.0416,-5.1621,-5.0967,-5.0588,-5.0649,-4.95,-4.7967,0.0,0.0,0.0,0.0,0.0,0.0,0.0,0.0,0.0,0.0,0.0,0.0,0.0,0.0,0.0,0.0,0.0,0.0,0.0,0.0,0.0,0.0,0.0,0.0,0.0,0.0,0.0,0.0,-4.0189,-4.0172,-3.974,0.0,0.0,0.0,0.0,0.0,0.0,0.0,0.0,0.0,0.0,-5.0163,-5.2341,-5.2663,0.0,0.0,-5.3862,-5.3526,-5.4301,-5.4234,-5.2968,-4.9591,-4.8489,0.0,0.0,0.0,0.0,0.0,0.0,0.0,0.0,0.0,0.0,0.0,0.0,0.0,0.0,0.0,0.0,0.0,0.0,0.0,0.0,0.0,0.0,0.0,0.0,0.0,0.0,0.0,0.0,0.0,0.0,0.0,0.0,0.0,0.0,0.0,0.0,0.0,0.0,0.0,0.0,0.0,0.0,0.0,0.0,0.0,0.0,0.0,0.0,0.0,0.0,0.0,0.0,-4.4173,-4.5982,-4.7119,-4.8501,-5.0173,-4.9125,-4.8722,-4.9103,-4.7956,-4.6667,0.0,0.0,0.0,0.0,0.0,0.0,0.0,0.0,0.0,0.0,0.0,0.0,0.0,0.0,0.0,0.0,0.0,0.0,0.0,0.0,0.0,0.0,0.0,0.0,0.0,0.0,0.0,0.0,-4.0865,-4.0663,-4.0163,0.0,0.0,0.0,0.0,0.0,0.0,0.0,0.0,0.0,0.0,-4.9052,-5.19,-5.2094,-5.2298,-5.3229,-5.2945,-5.2877,-5.359,-5.3259,-5.2096,-4.9883,0.0,0.0,0.0,0.0,0.0,0.0,0.0,0.0,0.0,0.0,0.0,0.0,0.0,0.0,0.0,0.0,0.0,0.0,0.0,0.0,0.0,0.0,0.0,0.0,0.0,0.0,0.0,0.0,0.0,0.0,-4.013,0.0,0.0,0.0,0.0,0.0,0.0,0.0,0.0,0.0,0.0,0.0,0.0,0.0,0.0,0.0,0.0,0.0,0.0,0.0,0.0,0.0,0.0,-4.3936,-4.529,-4.6826,-4.8061,-4.8868,-4.8114,-4.7676,-4.7707,-4.6873,-4.6029,-4.5175,0.0,0.0,0.0,0.0,0.0,0.0,0.0,0.0,0.0,0.0,0.0,0.0,0.0,0.0,0.0,0.0,0.0,0.0,0.0,0.0,0.0,0.0,0.0,0.0,0.0,0.0,-4.0265,-4.013,-4.0163,0.0,0.0,0.0,0.0,0.0,0.0,0.0,0.0,0.0,0.0,-4.7363,-4.9524,-5.1865,-5.1654,-5.1649,-5.3157,-5.2112,-5.1378,-5.206,-5.2118,-5.1543,0.0,0.0,0.0,0.0,0.0,0.0,0.0,0.0,0.0,0.0,0.0,0.0,0.0,0.0,0.0,0.0,0.0,0.0,0.0,0.0,0.0,0.0,0.0,0.0,0.0,0.0,0.0,-4.32,-4.2245,0.0,0.0,0.0,0.0,0.0,0.0,0.0,0.0,0.0,0.0,0.0,-3.9826,-4.0325,0.0,0.0,0.0,0.0,0.0,0.0,0.0,0.0,0.0,0.0,0.0,0.0,-4.3064,-4.3982,-4.507,-4.6169,-4.7185,-4.6195,-4.5848,-4.6209,-4.5572,-4.438,-4.2591,0.0,0.0,0.0,0.0,0.0,0.0,0.0,0.0,0.0,0.0,0.0,0.0,0.0,0.0,0.0,0.0,0.0,0.0,0.0,0.0,0.0,0.0,0.0,0.0,0.0,-4.1102,0.0,0.0,0.0,0.0,0.0,0.0,0.0,0.0,0.0,0.0,0.0,-4.3183,-4.4729,-4.551,-4.6646,-4.8386,-4.8425,-4.8781,0.0,0.0,0.0,0.0,0.0,0.0,0.0,0.0,0.0,0.0,0.0,0.0,0.0,0.0,-5.0617,-4.7645,-4.7315,-4.7498,-4.7498,0.0,0.0,0.0,0.0,0.0,0.0,0.0,0.0,0.0,0.0,0.0,0.0,0.0,0.0,-4.224,0.0,-4.1017,0.0,0.0,0.0,0.0,0.0,0.0,0.0,0.0,-3.9517,-3.9685,-3.9683,-4.0211,-4.0182,0.0,-4.0022,-4.0127,0.0,0.0,0.0,0.0,0.0,0.0,0.0,0.0,-4.2507,-4.2962,-4.4048,-4.4971,-4.5699,-4.4998,-4.4803,-4.5169,-4.4502,-4.3317,-4.1596,-4.1087,-3.9917,0.0,0.0,0.0,0.0,0.0,0.0,0.0,0.0,0.0,0.0,0.0,0.0,0.0,0.0,0.0,0.0,0.0,0.0,0.0,0.0,0.0,0.0,0.0,-4.0929,0.0,0.0,0.0,0.0,0.0,0.0,0.0,0.0,0.0,-4.1212,-4.2303,-4.3481,-4.4451,-4.5246,-4.5991,-4.6701,0.0,0.0,0.0,0.0,0.0,0.0,0.0,-4.9513,-4.8744,-4.9168,-4.9533,-4.9221,-5.0508,-5.1316,-5.0527,0.0,0.0,-4.9277,-4.9022,-4.9187,-4.9169,-4.9602,-4.9842,-4.962,-5.048,-5.105,0.0,0.0,0.0,0.0,0.0,0.0,0.0,0.0,-4.1102,-4.1023,0.0,-4.0224,0.0,0.0,0.0,0.0,0.0,-3.8606,0.0,0.0,-3.9415,-3.9394,-3.9421,-3.9528,-3.9612,-3.963,-4.045,-4.045,-3.9858,-3.9881,0.0,0.0,0.0,0.0,0.0,0.0,-4.2303,-4.2364,-4.3819,-4.4615,-4.4626,-4.4598,-4.4587,-4.4542,-4.3739,-4.2944,-4.2206,-4.2078,-4.1498,-4.0087,-3.9344,0.0,0.0,0.0,0.0,0.0,0.0,0.0,0.0,0.0,0.0,0.0,0.0,0.0,0.0,0.0,0.0,0.0,0.0,0.0,0.0,-4.0484,0.0,0.0,0.0,0.0,0.0,0.0,0.0,0.0,0.0,0.0,-4.1182,-4.3166,-4.4598,-4.4598,0.0,0.0,0.0,0.0,-4.7804,-4.7868,-4.7902,-4.8107,-4.8683,-4.9422,-5.0122,-5.0623,0.0,0.0,-5.1012,-5.0875,-5.071,-4.9904,-5.1116,-5.2032,-5.1977,-5.1334,-5.0894,-5.0857,-5.0345,-5.0051,-5.0714,-5.1232,-5.1297,-4.5147,0.0,0.0,0.0,0.0,-4.3519,-4.3611,-4.3866,-4.3355,-4.2811,-4.2284,-4.163,0.0,0.0,0.0,0.0,0.0,0.0,-3.8111,-3.8711,-3.8692,-3.8945,-3.9409,-3.945,-3.9451,-3.9466,-3.9716,-4.0028,-4.0403,-3.9926,-3.9866,-4.0243,0.0,0.0,0.0,0.0,-4.2303,-4.2388,-4.3836,-4.4598,-4.4598,-4.4598,-4.4298,-4.3697,-4.3426,-4.2643,-4.1331,-4.1284,-4.0587,-3.9129,-3.8925,0.0,0.0,0.0,0.0,0.0,0.0,0.0,0.0,0.0,0.0,0.0,0.0,0.0,0.0,0.0,0.0,0.0,0.0,0.0,-3.8723,-3.9052,-3.9114,0.0,0.0,0.0,0.0,0.0,0.0,0.0,0.0,0.0,-4.1205,-4.3194,-4.4598,0.0,0.0,-4.5478,-4.5275,-4.5855,-4.6515,-4.7039,-4.7564,0.0,0.0,-4.8718,-4.9025,-4.8689,-5.0071,-5.1525,-5.2367,-5.2527,-5.2454,-5.2197,-5.2527,-5.2858,-5.2858,-5.2692,-5.2506,-5.2491,-5.2325,-5.2234,-5.2475,-5.2802,-5.3013,-4.4788,-4.3712,-4.3541,-4.3494,-4.346,-4.311,-4.3219,-4.3613,-4.3156,-4.2735,-4.2315,-4.161,-4.0673,-3.9582,-3.8578,0.0,0.0,0.0,-3.8153,-3.8796,-3.8796,-3.902,-3.9373,-3.9388,-3.9388,-3.9388,-3.9388,-3.9666,-4.017,-3.9478,-3.9348,-3.9736,0.0,0.0,-3.9996,-4.1165,-4.1744,-4.1823,-4.3285,-4.3797,-4.3173,-4.3173,-4.2755,-4.1913,-4.2155,-4.1805,-4.0877,-4.0829,-4.0404,-3.9527,-3.904,-3.8303,0.0,0.0,0.0,0.0,0.0,0.0,0.0,0.0,0.0,0.0,0.0,-3.6721,-3.6256,0.0,0.0,0.0,-3.7835,-3.8222,-3.8251,-3.8352,0.0,0.0,0.0,0.0,0.0,0.0,0.0,-3.8745,-3.9771,-4.0578,-4.1051,-4.2535,-4.3827,-4.4514,-4.4869,-4.5026,-4.5026,0.0,-4.6397,-4.7124,-4.7614,-4.799,-4.8291,-4.8635,-4.8822,-4.8657,-4.9888,-5.1215,-5.2157,-5.2554,-5.2747,-5.2809,-5.2999,-5.3185,-5.3185,-5.3185,-5.3185,-5.3185,-5.3185,-5.3185,-5.3185,-5.3381,-5.3565,-4.4481,-4.3264,-4.2928,-4.2757,-4.2684,-4.1881,-4.1572,-4.1572,-4.1527,-4.1452,-4.1324,-4.0696,-4.0023,-3.9313,-3.8138,0.0,-3.8467,-3.8482,-3.8796,-3.9388,-3.9388,-3.9388,-3.9388,-3.9388,-3.9388,-3.9388,-3.9388,-3.9388,-3.9379,-3.8781,-3.8841,-3.9498,-3.9629,-3.9688,-3.9747,-4.0464,-4.0815,-4.0751,-4.2262,-4.2358,-4.0987,-4.0924,-4.0515,-3.9672,-4.0228,-4.0504,-4.0433,-4.0418,-4.0509,-4.0579,-3.9385,-3.8364,-3.7499,0.0,0.0,0.0,0.0,0.0,0.0,0.0,0.0,0.0,0.0,0.0,0.0,0.0,0.0,0.0,-3.825,0.0,-3.8727,-3.809,0.0,0.0,0.0,-3.6776,-3.7345,-3.7449,-3.7756,-3.8431,0.0,0.0,-4.069,-4.1438,-4.2504,-4.4196,-4.5098,-4.56,-4.5616,-4.6287,-4.7124,-4.7784,-4.7956,-4.824,-4.8832,-4.8964,-4.9201,-4.9769,-5.0572,-5.0998,-5.1189,-5.1618,-5.1976,-5.2042,-5.2599,-5.3103,-5.3121,-5.3103,-5.3185,-5.3185,-5.3185,-5.3185,-5.3206,-5.3227,-5.323,-4.4077,-4.3314,-4.322,-4.3148,-4.3148,-4.2944,-4.288,-4.2781,-4.2357,-4.1886,-4.1377,-4.0681,-4.0038,-3.9373,-3.908,-3.902,-3.917,-3.9149,-3.9275,-3.9388,-3.9388,-3.9388,-3.9388,-3.9388,-3.9388,-3.9388,-3.9388,-3.9388,-3.9373,-3.926,-3.9007,-3.8691,-3.8717,-3.8826,-3.9062,-3.9759,-3.987,-3.9372,-4.0303,-4.0591,-4.0248,-4.0248,-3.9817,-3.8958,-3.908,-3.8859,-3.8217,-3.8197,-3.8175,-3.8229,-3.8023,-3.7312,-3.6084,-3.5013,0.0,0.0,0.0,0.0,0.0,0.0,0.0,0.0,0.0,-3.4424,-3.3587,0.0,-3.4924,0.0,-3.6374,-3.7075,-3.7075,-3.7286,0.0,0.0,-3.7406,-3.7255,-3.7389,-3.7853,-3.8027,-3.7722,-3.8752,-3.9599,-3.9944,-4.0591,-4.1412,-4.2489,-4.3854,-4.4699,-4.4763,-4.6428,-4.7686,-4.7906,-4.8362,-4.8798,-4.8968,-4.9018,-4.9243,-4.9907,-5.0174,-5.0445,-5.1008,-5.1215,-5.1343,-5.1368,-5.188,-5.2312,-5.2376,-5.2809,-5.3164,-5.3185,-5.3185,-5.3185,-5.3185,-5.3185,-5.3185,-4.3888,-4.3305,-4.3305,-4.3305,-4.3305,-4.3305,-4.3125,-4.2865,-4.256,-4.1856,-4.0905,-4.0262,-3.9768,-3.9388,-3.9388,-3.9388,-3.9373,-3.911,-3.9125,-3.9379,-3.876,-3.8805,-3.9394,-3.9095,-3.911,-3.9388,-3.9388,-3.9224,-3.8975,-3.896,-3.8616,-3.7958,-3.7958,-3.7895,-3.7809,-3.8447,-3.8619,-3.8246,-3.834,-3.8623,-3.8949,-3.8639,-3.8211,-3.7739,-3.7997,-3.7901,-3.7404,-3.7404,-3.7404,-3.7389,-3.7228,-3.676,-3.5971,-3.5091,-3.4091,0.0,0.0,0.0,0.0,0.0,0.0,0.0,0.0,0.0,0.0,0.0,-3.4324,-3.4891,-3.5878,-3.6596,-3.6866,-3.7195,-3.7524,-3.7808,-3.7853,-3.7973,-3.8272,-3.8616,-3.8721,-3.8347,-3.8945,-3.9424,-3.9558,-3.9886,-4.0274,-4.0823,-4.2481,-4.3847,-4.4366,-4.6018,-4.74,-4.7734,-4.845,-4.9018,-4.9018,-4.9018,-4.9121,-4.9462,-4.958,-4.971,-5.0107,-5.0435,-5.0608,-5.0635,-5.1189,-5.1643,-5.1685,-5.1964,-5.226,-5.2307,-5.2509,-5.2809,-5.3124,-5.3185,-5.3133,-4.3853,-4.3305,-4.3305,-4.3245,-4.3155,-4.317,-4.288,-4.2381,-4.2216,-4.1467,-4.0247,-3.9642,-3.9388,-3.9388,-3.9388,-3.9343,-3.926,-3.8661,-3.8661,-3.908,-3.8033,-3.8153,-3.926,-3.8766,-3.8841,-3.9373,-3.9298,-3.894,-3.8392,-3.8317,-3.7928,-3.7315,-3.73,-3.6985,-3.6417,-3.6896,-3.7165,-3.7165,-3.6626,-3.6708,-3.7372,-3.6741,-3.6357,-3.6387,-3.6881,-3.7165,-3.7165,-3.7165,-3.7165,-3.715,-3.6641,-3.6357,-3.6342,-3.5207,-3.4141,0.0,-3.2811,0.0,0.0,0.0,0.0,0.0,0.0,0.0,0.0,-3.4098,-3.4412,-3.5639,-3.6357,-3.6941,-3.7479,-3.7614,-3.7898,-3.8437,-3.8512,-3.8766,-3.932,-3.9388,-3.9388,-3.9388,-3.9388,-3.9388,-3.9394,-3.9388,-3.9388,-3.9628,-4.1209,-4.2618,-4.3572,-4.5224,-4.6733,-4.7341,-4.8142,-4.8498,-4.8551,-4.8646,-4.8629,-4.8663,-4.8657,-4.8731,-4.869,-4.9162,-4.9551,-4.9619,-5.0087,-5.0584,-5.0655,-5.0724,-5.0819,-5.0807,-5.1213,-5.1858,-5.274,-5.2978,-5.2821,-4.3394,-4.3305,-4.3305,-4.303,-4.259,-4.259,-4.2515,-4.2321,-4.1235,-4.0337,-3.9604,-3.9433,-3.9388,-3.9388,-3.9388,-3.911,-3.8586,-3.8452,-3.8182,-3.7793,-3.8078,-3.8332,-3.8601,-3.902,-3.929,-3.9379,-3.8841,-3.8527,-3.8377,-3.7853,-3.7285,-3.6671,-3.6656,-3.6342,-3.5729,0.0,0.0,0.0,-3.5759,-3.5767,-3.5881,-3.5782,-3.5684,-3.5684,-3.5804,0.0,-3.5878,-3.5863,-3.5863,-3.5863,-3.5744,0.0,0.0,0.0,0.0,0.0,0.0,0.0,0.0,0.0,0.0,0.0,-3.3679,-3.3634,-3.4459,-3.5355,-3.6237,-3.6985,-3.7644,-3.8078,-3.8197,-3.8721,-3.9044,-3.92,-3.923,-3.9275,-3.9373,-3.9388,-3.9388,-3.9388,-3.9388,-3.9388,-3.9388,-3.9388,-3.9388,-3.9469,-4.0265,-4.0885,-4.1149,-4.4067,-4.621,-4.6475,-4.6848,-4.7062,-4.7187,-4.7276,-4.7344,-4.7208,-4.7208,-4.7242,-4.7323,-4.7348,-4.7427,-4.7491,-4.7954,-4.8458,-4.8475,-4.8879,-4.9333,-4.932,-4.9461,-5.0068,-5.1894,-5.2262,-5.2179,-4.3305,0.0,-4.2985,-4.2671,0.0,-4.1707,-4.1399,-4.1339,-4.0696,-4.0023,-3.9388,-3.9388,-3.9245,-3.8916,-3.8901,-3.8542,-3.7898,-3.7584,-3.7434,-3.7419,-3.7434,-3.7778,-3.8392,-3.8736,-3.8901,-3.8901,-3.8556,-3.8063,-3.7449,-3.712,-3.6626,-3.6013,-3.5998,-3.5833,-3.5504,-3.5489,-3.5489,-3.5489,-3.5489,-3.5489,-3.5489,-3.5489,-3.5489,-3.5489,0.0,0.0,0.0,0.0,0.0,0.0,0.0,0.0,0.0,0.0,0.0,-3.3161,-3.3655,-3.3439,-3.2298,-3.2976,-3.3769,-3.4444,-3.4487,-3.4487,-3.4518,-3.5429,-3.6387,-3.7315,-3.7734,-3.8182,-3.8826,-3.9215,-3.9388,-3.9388,-3.9388,-3.9388,-3.9388,-3.9388,-3.9388,-3.9388,-3.9388,-3.9388,-3.9388,-3.9388,-3.9388,-3.9418,-3.9993,-4.0397,-4.0649,-4.2731,-4.4735,-4.5678,-4.5947,-4.6208,-4.6692,-4.6786,-4.6769,-4.6786,-4.6786,-4.6786,-4.6786,-4.6786,-4.6786,-4.6815,-4.7084,-4.7306,-4.7335,-4.7607,-4.7862,-4.7889,-4.8137,-4.8625,-4.9844,-5.0453,-5.0897,-4.323,-4.3105,-4.262,-4.2261,-4.1976,-4.0861,-4.0337,-4.0217,0.0,0.0,0.0,-3.9388,-3.9035,-3.8442,-3.8512,-3.8078,-3.724,-3.6836,-3.6866,-3.7225,-3.6836,-3.7255,-3.8362,-3.8377,-3.8377,-3.8377,-3.8167,-3.7509,-3.654,-3.6372,-3.6043,-3.5549,-3.5489,-3.5489,-3.5489,-3.5489,-3.5489,-3.5489,-3.5489,-3.5489,-3.5489,-3.5489,-3.5489,-3.5489,-3.5489,-3.5444,-3.5325,-3.5429,-3.519,-3.4548,-3.433,-3.4312,-3.4384,-3.4152,-3.3911,-3.3661,-3.453,-3.4504,-3.3229,-3.3965,-3.4563,-3.4651,-3.519,-3.531,-3.4878,-3.5355,-3.6163,-3.7315,-3.7404,-3.7913,-3.911,-3.923,-3.929,-3.9358,-3.9388,-3.9388,-3.9388,-3.9388,-3.9388,-3.9388,-3.9388,-3.9388,-3.9388,-3.9388,-3.9388,-3.9484,-3.9843,-4.0217,-4.0432,-4.1614,-4.3138,-4.4348,-4.4561,-4.5058,-4.5885,-4.6043,-4.6233,-4.6232,-4.6312,-4.6397,-4.6397,-4.6397,-4.6397,-4.6261,-4.6397,-4.6387,-4.6392,-4.6394,-4.6397,-4.6397,-4.6828,-4.7257,-4.7472,-4.8261,-4.9019,-4.3015,-4.2545,-4.244,-4.1713,-4.0651,-4.0472,-4.0083,-3.9574,-3.9574,-3.9478,-3.9388,-3.9388,-3.9035,-3.8407,-3.9005,-3.8302,-3.6671,-3.7075,-3.7045,-3.6641,-3.7075,-3.7674,-3.8362,-3.8377,-3.8377,-3.8302,-3.7285,-3.6656,-3.648,-3.5923,-3.5579,-3.5504,-3.5489,-3.5489,-3.5489,-3.5489,-3.5489,-3.5489,-3.5489,-3.5489,-3.5489,-3.5489,-3.5489,-3.5489,-3.5489,-3.522,-3.4698,-3.516,-3.519,-3.4517,-3.3774,-3.3568,-3.3975,-3.2865,-3.215,-3.2165,-3.2934,-3.3353,-3.3219,-3.4029,-3.4758,-3.5295,-3.5459,-3.5684,-3.6163,-3.633,-3.6641,-3.733,-3.7375,-3.7704,-3.8437,-3.8556,-3.8811,-3.9284,-3.9388,-3.9388,-3.9388,-3.9388,-3.9388,-3.9388,-3.9388,-3.9388,-3.9388,-3.9388,-3.9388,-3.9403,-3.9523,-3.9553,-3.9783,-4.0703,-4.1663,-4.2128,-4.225,-4.266,-4.3777,-4.3817,-4.4277,-4.4806,-4.5004,-4.5089,-4.5089,-4.5106,-4.5106,-4.497,-4.5072,-4.5038,-4.5021,-4.4919,-4.5038,-4.5089,-4.5241,-4.5377,-4.5847,-4.6169,-4.6635,-4.2432,-4.1841,-4.1482,-4.095,-4.0382,-4.0023,-3.9709,-3.9388,-3.9388,-3.9388,-3.9343,-3.9035,-3.8497,-3.7883,-3.7838,-3.7135,-3.5968,-3.6252,-3.6222,-3.6043,-3.6956,-3.7389,-3.7419,-3.8048,-3.8033,-3.7345,-3.6776,-3.6312,-3.5953,-3.5639,-3.5489,-3.5489,-3.5489,-3.5489,-3.5489,-3.5489,-3.5325,-3.4966,-3.531,-3.5325,-3.4966,-3.4936,-3.4771,-3.4427,-3.4427,-3.4042,-3.3307,-3.3997,-3.3706,-3.2129,-3.2118,-3.2166,-3.2219,-3.1636,-3.1316,-3.1487,-3.2347,-3.2833,-3.2901,-3.4252,-3.516,-3.5474,-3.5489,-3.5624,-3.5923,-3.5953,-3.6222,-3.6836,-3.6911,-3.7315,-3.8272,-3.8377,-3.8661,-3.9313,-3.9388,-3.9388,-3.9388,-3.9388,-3.9388,-3.9388,-3.9388,-3.9388,-3.9388,-3.9388,-3.9388,-3.9388,-3.9388,-3.9388,-3.9388,-3.9903,-4.0532,-4.1055,-4.1171,-4.1808,-4.2974,-4.3306,-4.368,-4.4457,-4.4598,-4.4598,-4.4598,-4.4598,-4.4598,-4.4598,-4.4598,-4.4598,-4.4598,-4.4598,-4.4598,-4.4598,-4.4598,-4.4759,-4.4944,-4.4998,-4.5484,-4.1931,-4.1115,-4.0621,-4.0322,-4.0127,-3.9634,-3.9388,-3.9388,-3.9388,-3.9334,-3.9125,-3.8616,-3.7958,-3.7195,-3.6836,-3.6267,-3.5594,-3.5654,-3.5818,-3.6043,-3.6956,-3.7225,-3.7049,-3.7823,-3.7569,-3.6567,-3.6342,-3.5998,-3.5549,-3.5489,-3.5489,-3.5489,-3.5489,-3.5489,-3.5489,-3.5489,-3.516,-3.4593,-3.4996,-3.4936,-3.4292,-3.4279,-3.4008,-3.3559,-3.3514,-3.3087,-3.2349,-3.2871,-3.2292,-3.0474,-3.0485,-3.0606,-3.0507,-3.029,-3.043,-3.0997,-3.182,-3.2486,-3.2961,-3.409,-3.5034,-3.5472,-3.5294,-3.5246,-3.5457,-3.5489,-3.5699,-3.6178,-3.6267,-3.6731,-3.7689,-3.8078,-3.8452,-3.9095,-3.9298,-3.9388,-3.9388,-3.9388,-3.9388,-3.9388,-3.9388,-3.9388,-3.9388,-3.9388,-3.9388,-3.9388,-3.9388,-3.9388,-3.9388,-3.9388,-3.9702,-4.015,-4.0397,-4.0959,-4.2426,-4.2661,-4.3092,-4.4064,-4.427,-4.4355,-4.4468,-4.4598,-4.4598,-4.4598,-4.4598,-4.4598,-4.4598,-4.4598,-4.4598,-4.4598,-4.4598,-4.4598,-4.4609,-4.4654,-4.4917,-4.1662,-4.0576,-4.0412,-4.0053,-3.9544,-3.9454,-3.9388,-3.9388,-3.9388,-3.905,-3.8482,-3.8407,-3.7689,-3.6746,-3.706,-3.6596,-3.5594,-3.6118,-3.6656,-3.7135,-3.7345,-3.7674,-3.8018,-3.7704,-3.7135,-3.6462,-3.5893,-3.5609,-3.5504,-3.5489,-3.5489,-3.5489,-3.5489,-3.5489,-3.5489,-3.5489,-3.5145,-3.4518,-3.4563,-3.4247,-3.3634,-3.3589,-3.3559,-3.3514,-3.3484,-3.3185,-3.2286,-3.2372,-3.1934,-3.1063,-2.9663,-2.9139,-2.9464,-2.8841,-2.9006,-3.0365,-3.1,-3.2019,-3.3553,-3.3255,-3.365,-3.5213,-3.4643,-3.4543,-3.5359,-3.5504,-3.5534,-3.5624,-3.5609,-3.5983,-3.6596,-3.7195,-3.7823,-3.8512,-3.908,-3.9388,-3.9388,-3.9388,-3.9388,-3.9388,-3.9388,-3.9388,-3.9388,-3.9388,-3.9388,-3.9388,-3.9388,-3.9388,-3.9388,-3.9388,-3.9424,-3.9538,-3.9553,-3.997,-4.086,-4.0979,-4.1804,-4.3078,-4.3443,-4.371,-4.415,-4.4468,-4.4598,-4.457,-4.4598,-4.4598,-4.4598,-4.4598,-4.4598,-4.4598,-4.4598,-4.4598,-4.4598,-4.4598,-4.4889,-4.0666,-3.9828,-3.9813,-3.9664,-3.9403,-3.9388,-3.9388,-3.9394,-3.899,-3.8422,-3.7793,-3.7434,-3.7004,-3.6492,-3.6357,-3.5983,-3.5564,-3.6193,-3.6611,-3.6881,-3.7225,-3.736,-3.7225,-3.7015,-3.6537,-3.5938,-3.5624,-3.5489,-3.5489,-3.5489,-3.5489,-3.5489,-3.5489,-3.5489,-3.5474,-3.51,-3.4324,-3.3167,-3.2742,-3.2011,-3.1147,-3.2193,-3.2238,-3.1044,-3.1339,-3.0962,-2.9862,-3.0027,-2.9707,-2.8544,-2.8199,-2.8119,-2.8184,-2.7858,-2.8039,-2.9008,-3.0134,-3.1189,-3.2258,-3.2486,-3.2925,-3.3768,-3.3939,-3.4211,-3.4576,-3.5133,-3.5489,-3.5489,-3.5489,-3.5774,-3.6417,-3.7045,-3.7659,-3.8317,-3.9005,-3.9388,-3.9388,-3.9388,-3.9388,-3.9388,-3.9388,-3.9388,-3.9388,-3.9388,-3.9388,-3.9388,-3.9388,-3.9388,-3.9388,-3.9388,-3.9388,-3.9388,-3.9388,-3.9758,-4.0466,-4.0724,-4.128,-4.2125,-4.252,-4.2831,-4.3591,-4.3844,-4.396,-4.444,-4.4514,-4.4542,-4.4598,-4.4598,-4.4598,-4.4598,-4.4598,-4.4598,-4.4598,-4.4598,-4.4748,-4.0023,-3.9433,-3.9388,-3.9388,-3.9388,-3.9388,-3.9305,-3.9095,-3.8601,-3.7943,-3.715,-3.6671,-3.6372,-3.6193,-3.5893,-3.5774,-3.5816,-3.6164,-3.6344,-3.6422,-3.6803,-3.667,-3.6156,-3.641,-3.6148,-3.5594,-3.5504,-3.5489,-3.5489,-3.5489,-3.5489,-3.5489,-3.5489,-3.5489,-3.5397,-3.4641,-3.3498,-3.2251,-3.1335,-3.0126,-2.9154,-3.0547,-3.0729,-2.9233,-2.9597,-2.9348,-2.8149,-2.8441,-2.8117,-2.6952,-2.7196,-2.7288,-2.7087,-2.7193,-2.7595,-2.8297,-2.934,-3.0344,-3.1127,-3.1609,-3.2069,-3.2558,-3.3066,-3.3359,-3.3719,-3.4509,-3.4905,-3.4658,-3.492,-3.5355,-3.6178,-3.6791,-3.7419,-3.8063,-3.8736,-3.9185,-3.9379,-3.9388,-3.9388,-3.9388,-3.9388,-3.9388,-3.9388,-3.9388,-3.9388,-3.9388,-3.9388,-3.9388,-3.9388,-3.9388,-3.9388,-3.9388,-3.9388,-3.9646,-4.0205,-4.0274,-4.0774,-4.1313,-4.1642,-4.1933,-4.2724,-4.2909,-4.297,-4.335,-4.3902,-4.4241,-4.4167,-4.4224,-4.4514,-4.457,-4.457,-4.4542,-4.4598,-4.4598,-4.4598,-4.0008,-3.9418,-3.9388,-3.9388,-3.9388,-3.9388,-3.9035,-3.8512,-3.8392,-3.7689,-3.6656,-3.6477,-3.6133,-3.5654,-3.6178,-3.6432,-3.6358,-3.6085,-3.5963,-3.5984,-3.5949,-3.5632,-3.5146,-3.6014,-3.61,-3.5389,-3.5344,-3.5392,-3.5424,-3.5457,-3.5489,-3.5439,-3.5392,-3.5424,-3.5157,-3.3857,-3.2905,-3.1933,-3.0652,-2.9258,-2.8052,-2.868,-2.9121,-2.8876,-2.902,-2.8971,-2.8748,-2.8136,-2.7683,-2.7604,-2.6973,-2.658,-2.6587,-2.7014,-2.772,-2.8687,-2.8913,-2.9653,-3.0803,-3.0495,-3.0709,-3.2105,-3.1865,-3.1742,-3.2629,-3.3533,-3.3719,-3.289,-3.3636,-3.4452,-3.5296,-3.6023,-3.6783,-3.7479,-3.8078,-3.8721,-3.9262,-3.9228,-3.9388,-3.9352,-3.9352,-3.9301,-3.9352,-3.9388,-3.9388,-3.9388,-3.9388,-3.9388,-3.9388,-3.9388,-3.9388,-3.9388,-3.9388,-3.9424,-3.9481,-3.9681,-3.999,-4.0432,-4.0842,-4.1062,-4.1609,-4.2078,-4.2125,-4.2347,-4.2939,-4.335,-4.3486,-4.3814,-4.4224,-4.4384,-4.4384,-4.4412,-4.4542,-4.457,-4.4598,-3.9634,-3.9388,-3.9388,-3.9388,-3.9388,-3.9388,-3.902,-3.8377,-3.7928,-3.7285,-3.6507,-3.6058,-3.5729,-3.5579,-3.6611,-3.6482,-3.5603,-3.6129,-3.596,-3.5077,-3.4938,-3.4652,-3.4134,-3.4072,-3.4252,-3.4505,-3.4543,-3.4543,-3.4543,-3.4543,-3.4211,-3.3822,-3.4259,-3.4259,-3.35,-3.2357,-3.1274,-3.0426,-2.9167,-2.8,-2.71,-2.7263,-2.7397,-2.7451,-2.7887,-2.7934,-2.7417,-2.7108,-2.6939,-2.6939,-2.6658,-2.6487,-2.6512,-2.6675,-2.7291,-2.8247,-2.8361,-2.8949,-3.005,-3.0011,-3.0037,-3.0671,-3.1082,-3.1278,-3.1779,-3.2536,-3.2961,-3.2735,-3.2855,-3.3325,-3.375,-3.479,-3.6045,-3.7242,-3.7988,-3.8332,-3.8355,-3.8397,-3.8397,-3.8472,-3.8907,-3.9141,-3.8657,-3.8943,-3.9373,-3.9388,-3.9388,-3.9388,-3.9388,-3.9388,-3.9388,-3.9388,-3.9388,-3.9388,-3.9388,-3.9424,-3.9553,-3.9702,-3.997,-4.0378,-4.086,-4.1113,-4.1213,-4.1707,-4.2221,-4.2504,-4.2676,-4.2831,-4.335,-4.371,-4.3785,-4.4035,-4.4514,-4.4384,-4.4468,-3.9388,-3.9388,-3.9388,-3.9388,-3.9388,-3.9388,-3.8901,-3.8078,-3.7599,-3.6741,-3.5781,-3.5211,-3.4872,-3.4752,-3.5687,-3.5489,-3.4489,-3.5831,-3.5657,-3.4042,-3.3911,-3.3489,-3.2891,-3.2679,-3.2925,-3.3449,-3.3567,-3.3567,-3.3567,-3.3567,-3.3206,-3.27,-3.3092,-3.298,-3.218,-3.0877,-2.9814,-2.9093,-2.7954,-2.7027,-2.6555,-2.6487,-2.6487,-2.6555,-2.704,-2.7074,-2.6521,-2.6487,-2.6487,-2.6487,-2.6487,-2.6487,-2.6487,-2.6487,-2.6977,-2.7946,-2.8122,-2.8599,-2.9591,-2.9779,-2.9792,-2.983,-3.0343,-3.0771,-3.0796,-3.1609,-3.1938,-3.1829,-3.2033,-3.2128,-3.2354,-3.3145,-3.4626,-3.6491,-3.736,-3.7716,-3.7774,-3.7829,-3.7663,-3.742,-3.7814,-3.789,-3.7548,-3.7927,-3.842,-3.8797,-3.8855,-3.8943,-3.9301,-3.9388,-3.9388,-3.9388,-3.9388,-3.9388,-3.9388,-3.9388,-3.9388,-3.9517,-3.9589,-3.9864,-4.006,-4.0239,-4.05,-4.1062,-4.1428,-4.1674,-4.1869,-4.1917,-4.2284,-4.2754,-4.2939,-4.3122,-4.3621,-4.4109,-4.4167,-3.9388,-3.9388,-3.9388,-3.9388,-3.9373,-3.9226,-3.856,-3.7466,-3.7203,-3.5869,-3.4248,-3.3993,-3.3602,-3.3079,-3.3778,-3.3506,-3.3455,-3.5172,-3.5002,-3.3159,-3.2896,-3.2289,-3.1402,-3.1992,-3.2393,-3.2593,-3.2607,-3.2593,-3.2593,-3.2607,-3.2536,-3.239,-3.204,-3.1833,-3.1702,-2.9818,-2.8754,-2.8371,-2.7267,-2.6568,-2.6487,-2.6487,-2.6487,-2.6487,-2.6555,-2.6555,-2.6487,-2.6487,-2.6487,-2.6487,-2.6487,-2.6487,-2.6487,-2.6487,-2.6989,-2.7833,-2.8084,-2.8662,-2.9578,-2.9754,-2.9779,-2.9792,-2.9856,-2.996,-3.0101,-3.0696,-3.0921,-3.0432,-3.0733,-3.123,-3.1233,-3.1371,-3.2736,-3.5404,-3.6194,-3.6518,-3.737,-3.7715,-3.7305,-3.6369,-3.6369,-3.6251,-3.6198,-3.6473,-3.6968,-3.7587,-3.7956,-3.8271,-3.9017,-3.9265,-3.9388,-3.9388,-3.9388,-3.9388,-3.9388,-3.9388,-3.9388,-3.9424,-3.9424,-3.9589,-3.961,-3.9737,-3.9793,-4.0235,-4.0516,-4.0774,-4.1062,-4.118,-4.1478,-4.1869,-4.2029,-4.2284,-4.2847,-4.3366,-4.3785,-3.9388,-3.9388,-3.9388,-3.9388,-3.9241,-3.8238,-3.7215,-3.6326,-3.5311,-3.4094,-3.3164,-3.3017,-3.2841,-3.2913,-3.3643,-3.362,-3.3001,-3.438,-3.42,-3.2664,-3.2026,-3.1518,-3.0932,-3.07,-3.1007,-3.1536,-3.1633,-3.1646,-3.1646,-3.1646,-3.1365,-3.0869,-3.1179,-3.0801,-2.9874,-2.879,-2.8122,-2.7675,-2.6936,-2.6487,-2.6487,-2.6487,-2.6487,-2.6487,-2.6487,-2.6487,-2.6487,-2.6487,-2.6487,-2.6487,-2.6487,-2.6487,-2.6487,-2.6487,-2.6839,-2.7457,-2.7908,-2.8398,-2.9101,-2.9578,-2.9779,-2.9779,-2.9779,-2.9779,-2.9792,-3.0075,-3.0139,-2.983,-3.0075,-3.0369,-3.0624,-3.0458,-3.1973,-3.559,-3.5356,-3.5377,-3.6367,-3.612,-3.521,-3.4498,-3.5305,-3.5828,-3.5507,-3.5574,-3.6158,-3.6657,-3.7266,-3.7919,-3.8271,-3.8943,-3.9388,-3.9388,-3.9388,-3.9388,-3.9388,-3.9388,-3.9388,-3.9388,-3.9388,-3.9388,-3.9388,-3.9388,-3.9388,-3.9481,-3.9737,-3.9955,-4.0255,-4.0481,-4.0724,-4.0946,-4.1113,-4.1576,-4.2189,-4.2567,-4.2892,-3.9388,-3.9388,-3.9388,-3.9388,-3.9226,-3.766,-3.6627,-3.582,-3.4315,-3.3051,-3.2245,-3.2069,-3.1865,-3.1823,-3.2564,-3.2736,-3.238,-3.3327,-3.3344,-3.2487,-3.17,-3.1122,-3.0595,-3.0055,-3.0075,-3.0558,-3.0658,-3.0696,-3.0696,-3.0658,-3.0381,-3.0024,-3.0213,-2.9905,-2.8863,-2.8172,-2.7595,-2.7278,-2.6776,-2.6487,-2.6487,-2.6487,-2.6487,-2.6487,-2.6487,-2.6487,-2.6487,-2.6487,-2.6487,-2.6487,-2.6487,-2.6487,-2.6487,-2.6512,-2.6826,-2.7494,-2.7934,-2.8436,-2.9151,-2.9616,-2.9779,-2.9779,-2.9779,-2.9779,-2.9792,-2.9779,-2.9779,-2.9779,-2.9818,-3.0018,-3.0432,-3.0331,-3.1707,-3.476,-3.4403,-3.4458,-3.5223,-3.4733,-3.3953,-3.3628,-3.4249,-3.4581,-3.4498,-3.454,-3.5265,-3.5628,-3.62,-3.7204,-3.7548,-3.8383,-3.8782,-3.9177,-3.9388,-3.9388,-3.9388,-3.9388,-3.9388,-3.9388,-3.9388,-3.9388,-3.9388,-3.9388,-3.9388,-3.9388,-3.9574,-3.961,-3.9844,-3.9737,-3.9864,-4.0045,-4.0343,-4.069,-4.118,-4.1462,-4.1772,-3.9388,-3.9388,-3.9388,-3.9388,-3.916,-3.7514,-3.6337,-3.5676,-3.3954,-3.2374,-3.132,-3.1106,-3.0709,-3.0125,-3.085,-3.1303,-3.149,-3.2239,-3.2811,-3.2659,-3.1926,-3.1085,-3.0482,-3.0005,-2.9869,-2.9895,-2.9895,-2.9856,-2.996,-2.996,-2.9792,-2.978,-2.9428,-2.8976,-2.8762,-2.7896,-2.7469,-2.7256,-2.6826,-2.6587,-2.6512,-2.6487,-2.6487,-2.6487,-2.6487,-2.6487,-2.6487,-2.6487,-2.6487,-2.6487,-2.6487,-2.6487,-2.6487,-2.6487,-2.6964,-2.7833,-2.8059,-2.8649,-2.944,-2.9729,-2.9779,-2.9779,-2.9779,-2.9779,-2.9779,-2.9779,-2.9779,-2.9804,-2.9867,-3.0118,-3.057,-3.067,-3.1712,-3.3183,-3.3582,-3.3874,-3.4369,-3.3755,-3.3283,-3.3167,-3.3124,-3.3124,-3.3283,-3.3368,-3.3797,-3.4345,-3.4815,-3.5815,-3.6763,-3.7472,-3.8182,-3.862,-3.8943,-3.9265,-3.9228,-3.9388,-3.9388,-3.9388,-3.9388,-3.9388,-3.9388,-3.9388,-3.9388,-3.9388,-3.9388,-3.9388,-3.9388,-3.9388,-3.9409,-3.961,-3.9829,-3.992,-4.015,-4.05,-4.0912,-3.9388,-3.9388,-3.9388,-3.9388,-3.8977,-3.6442,-3.5134,-3.4604,-3.2004,-3.0687,-3.0216,-3.0177,-3.0075,-2.9905,-3.0758,-3.1273,-3.1549,-3.2365,-3.2893,-3.291,-3.1913,-3.0884,-3.0156,-2.988,-2.9779,-2.9779,-2.9779,-2.9779,-2.9779,-2.9779,-2.9779,-2.9779,-2.9616,-2.9327,-2.8875,-2.8574,-2.8034,-2.7394,-2.7203,-2.6864,-2.6537,-2.6487,-2.6487,-2.6487,-2.6487,-2.6487,-2.6487,-2.6487,-2.6487,-2.6487,-2.6487,-2.6487,-2.6524,-2.6537,-2.6889,-2.7519,-2.7959,-2.8411,-2.9089,-2.9566,-2.9767,-2.9779,-2.9779,-2.9779,-2.9779,-2.9779,-2.9779,-2.9867,-3.0131,-3.0608,-3.1047,-3.1198,-3.1795,-3.2507,-3.3435,-3.394,-3.3597,-3.3313,-3.3124,-3.3124,-3.3124,-3.3124,-3.3124,-3.3124,-3.324,-3.3628,-3.4178,-3.4856,-3.5775,-3.6397,-3.7021,-3.7738,-3.8219,-3.8708,-3.9068,-3.9301,-3.9388,-3.9388,-3.9388,-3.9388,-3.9388,-3.9388,-3.9388,-3.9388,-3.9388,-3.9388,-3.9388,-3.9388,-3.9388,-3.9388,-3.9481,-3.9681,-3.961,-3.9809,-4.0205,-3.8745,-3.8671,-3.8242,-3.7933,-3.7414,-3.4996,-3.3829,-3.3147,-3.0996,-2.9779,-2.9779,-2.9779,-2.9779,-2.9905,-3.0896,-3.1248,-3.1235,-3.2202,-3.2679,-3.2566,-3.1788,-3.0821,-3.0018,-2.9779,-2.9779,-2.9779,-2.9779,-2.9779,-2.9779,-2.9779,-2.9779,-2.9779,-2.9779,-2.9591,-2.9327,-2.8976,-2.8487,-2.7745,-2.7454,-2.7052,-2.6537,-2.6487,-2.6487,-2.6487,-2.6487,-2.6487,-2.6487,-2.6487,-2.6487,-2.6487,-2.6499,-2.6587,-2.6826,-2.6839,-2.7203,-2.7896,-2.8285,-2.8675,-2.9214,-2.9616,-2.9767,-2.9779,-2.9779,-2.9779,-2.9779,-2.9779,-2.9779,-2.9829,-3.0306,-3.0821,-3.1348,-3.1788,-3.2215,-3.268,-3.3466,-3.3755,-3.3124,-3.3124,-3.3124,-3.3124,-3.3124,-3.3124,-3.3124,-3.3124,-3.3124,-3.3197,-3.3598,-3.4191,-3.4787,-3.5292,-3.5908,-3.671,-3.7252,-3.7663,-3.8182,-3.8509,-3.8995,-3.9104,-3.9388,-3.9388,-3.9388,-3.9388,-3.9388,-3.9388,-3.9388,-3.9388,-3.9388,-3.9388,-3.9388,-3.9388,-3.9388,-3.9388,-3.9388,-3.9388,-3.9758,-3.7639,-3.7548,-3.6604,-3.5908,-3.5372,-3.3748,-3.2905,-3.208,-3.0535,-2.9779,-2.9779,-2.9779,-2.9779,-2.9867,-3.0771,-3.1047,-3.0668,-3.1813,-3.2102,-3.2026,-3.1549,-3.0821,-2.988,-2.9779,-2.9779,-2.9779,-2.9779,-2.9779,-2.9779,-2.9779,-2.9779,-2.9779,-2.9779,-2.9779,-2.9628,-2.9289,-2.8762,-2.821,-2.7695,-2.7205,-2.6738,-2.6575,-2.6487,-2.6487,-2.6487,-2.6487,-2.6487,-2.6487,-2.6487,-2.6487,-2.6537,-2.6851,-2.7253,-2.7316,-2.7833,-2.8537,-2.8825,-2.9114,-2.9641,-2.9741,-2.9779,-2.9779,-2.9779,-2.9779,-2.9779,-2.9779,-2.9842,-2.9967,-3.0394,-3.1022,-3.17,-3.2503,-3.291,-3.3023,-3.3129,-3.3111,-3.3124,-3.3124,-3.3124,-3.3124,-3.3124,-3.3124,-3.3124,-3.3124,-3.3124,-3.3124,-3.3356,-3.3641,-3.3995,-3.4345,-3.5047,-3.5868,-3.6265,-3.6487,-3.706,-3.7625,-3.8234,-3.8708,-3.9228,-3.9388,-3.9388,-3.9388,-3.9388,-3.9388,-3.9388,-3.9388,-3.9388,-3.9388,-3.9388,-3.9388,-3.9388,-3.9388,-3.9388,-3.9388,-3.961,-3.6565,-3.6526,-3.6277,-3.6129,-3.5696,-3.3883,-3.2895,-3.2554,-3.0624,-2.9779,-2.9779,-2.9779,-2.9779,-2.9842,-3.0495,-3.0708,-3.0731,-3.165,-3.1989,-3.1549,-3.1486,-3.0783,-2.998,-2.9779,-2.9779,-2.9779,-2.9779,-2.9779,-2.9779,-2.9779,-2.9779,-2.9779,-2.9779,-2.9779,-2.9741,-2.9628,-2.9327,-2.8762,-2.821,-2.7632,-2.7102,-2.6713,-2.6524,-2.6499,-2.6487,-2.6487,-2.6487,-2.6487,-2.6487,-2.6587,-2.6927,-2.7256,-2.7394,-2.772,-2.826,-2.8737,-2.8938,-2.9202,-2.9641,-2.9779,-2.9779,-2.9779,-2.9779,-2.9779,-2.9779,-2.9779,-3.0005,-3.0382,-3.0934,-3.1562,-3.2466,-3.2923,-3.3099,-3.3124,-3.3124,-3.3124,-3.3124,-3.3124,-3.3124,-3.3124,-3.3124,-3.3124,-3.3124,-3.3124,-3.3124,-3.3124,-3.3154,-3.3227,-3.3398,-3.3598,-3.415,-3.4966,-3.5088,-3.5386,-3.6186,-3.6788,-3.7381,-3.8069,-3.8671,-3.9068,-3.9104,-3.9388,-3.9388,-3.9388,-3.9388,-3.9388,-3.9388,-3.9388,-3.9388,-3.9388,-3.9388,-3.9388,-3.9388,-3.9388,-3.923,-3.5494,-3.5426,-3.4966,-3.443,-3.3806,-3.2762,-3.1952,-3.137,-3.0367,-2.9779,-2.9779,-2.9779,-2.9779,-2.9829,-3.0344,-3.062,-3.0871,-3.1687,-3.1763,-3.126,-3.1198,-3.0796,-2.998,-2.9779,-2.9779,-2.9779,-2.9779,-2.9779,-2.9779,-2.9779,-2.9779,-2.9779,-2.9779,-2.9779,-2.9779,-2.9779,-2.9465,-2.895,-2.8612,-2.8122,-2.7344,-2.7052,-2.6688,-2.6549,-2.6487,-2.6487,-2.6487,-2.6776,-2.6851,-2.7077,-2.7582,-2.7908,-2.7795,-2.8197,-2.87,-2.9176,-2.934,-2.944,-2.9729,-2.9779,-2.9779,-2.9779,-2.9779,-2.9779,-2.9779,-2.9779,-3.0055,-3.0557,-3.1122,-3.1825,-3.2948,-3.3124,-3.3124,-3.3124,-3.3124,-3.3124,-3.3124,-3.3124,-3.3124,-3.3124,-3.3124,-3.3124,-3.3124,-3.3124,-3.3124,-3.3124,-3.3124,-3.3154,-3.3154,-3.3326,-3.3398,-3.3869,-3.3898,-3.4332,-3.5278,-3.5948,-3.6526,-3.7175,-3.7829,-3.8219,-3.8383,-3.8907,-3.9388,-3.9388,-3.9388,-3.9388,-3.9388,-3.9388,-3.9388,-3.9388,-3.9388,-3.9388,-3.9298,-3.917,-3.8916,-3.447,-3.4387,-3.3471,-3.2508,-3.1587,-3.1465,-3.0952,-3.0094,-2.9829,-2.9779,-2.9779,-2.9779,-2.9779,-2.9892,-3.0231,-3.0495,-3.0834,-3.1311,-3.1323,-3.0834,-3.1035,-3.0608,-2.9955,-2.9779,-2.9779,-2.9779,-2.9779,-2.9779,-2.9779,-2.9779,-2.9779,-2.9779,-2.9779,-2.9779,-2.9779,-2.9767,-2.9591,-2.9176,-2.89,-2.8436,-2.7595,-2.7318,-2.7002,-2.6587,-2.6487,-2.6487,-2.66,-2.6939,-2.7291,-2.7356,-2.8335,-2.8537,-2.8474,-2.8762,-2.9227,-2.9741,-2.9716,-2.9729,-2.9754,-2.9779,-2.9779,-2.9779,-2.9779,-2.9779,-2.9779,-2.9955,-3.0281,-3.0796,-3.1411,-3.2181,-3.2998,-3.3124,-3.3124,-3.3124,-3.3124,-3.3124,-3.3124,-3.3124,-3.3124,-3.3124,-3.3124,-3.3124,-3.3124,-3.3124,-3.3124,-3.3124,-3.3124,-3.3124,-3.3124,-3.3124,-3.324,-3.327,-3.3428,-3.3513,-3.4304,-3.517,-3.5748,-3.6186,-3.688,-3.7305,-3.7625,-3.8219,-3.8782,-3.9316,-3.9388,-3.9388,-3.9388,-3.9388,-3.9388,-3.9388,-3.9388,-3.9388,-3.92,-3.8901,-3.8601,-3.3356,-3.3356,-3.3154,-3.2679,-3.2039,-3.1574,-3.1009,-3.0457,-2.9955,-2.9792,-2.9779,-2.9779,-2.9779,-2.9829,-2.9842,-3.0181,-3.0608,-3.1009,-3.0934,-3.0645,-3.0758,-3.0382,-2.9917,-2.9779,-2.9779,-2.9779,-2.9779,-2.9779,-2.9779,-2.9779,-2.9779,-2.9779,-2.9779,-2.9779,-2.9779,-2.9779,-2.9741,-2.9503,-2.9202,-2.8612,-2.8072,-2.7494,-2.7102,-2.6625,-2.6587,-2.6575,-2.6663,-2.7027,-2.7329,-2.7429,-2.836,-2.8737,-2.8875,-2.9315,-2.9628,-2.9741,-2.9779,-2.9779,-2.9779,-2.9779,-2.9779,-2.9779,-2.9779,-2.9779,-2.988,-3.0218,-3.0633,-3.1323,-3.2102,-3.2898,-3.3074,-3.3124,-3.3124,-3.3124,-3.3124,-3.3124,-3.3124,-3.3124,-3.3124,-3.3124,-3.3124,-3.3124,-3.3124,-3.3124,-3.3124,-3.3124,-3.3124,-3.3124,-3.3124,-3.3124,-3.3167,-3.3167,-3.3167,-3.3167,-3.3356,-3.422,-3.4925,-3.5129,-3.5682,-3.6265,-3.6735,-3.7458,-3.8069,-3.842,-3.9068,-3.9388,-3.9388,-3.9388,-3.9388,-3.9388,-3.9388,-3.9388,-3.9149,-3.8916,-3.8347,-3.3124,-3.3043,-3.2754,-3.2303,-3.175,-3.121,-3.0683,-3.0193,-2.9905,-2.9779,-2.9779,-2.9779,-2.9779,-2.9779,-2.9779,-3.0093,-3.0532,-3.0934,-3.0859,-3.0696,-3.0595,-3.0319,-2.9842,-2.9792,-2.9779,-2.9779,-2.9779,-2.9779,-2.9779,-2.9779,-2.9779,-2.9779,-2.9779,-2.9779,-2.9779,-2.9779,-2.9779,-2.9704,-2.9478,-2.9089,-2.8486,-2.7758,-2.7178,-2.7014,-2.6914,-2.6914,-2.7077,-2.7745,-2.8122,-2.831,-2.8938,-2.9289,-2.9453,-2.9578,-2.9779,-2.9779,-2.9779,-2.9779,-2.9779,-2.9779,-2.9779,-2.9779,-2.9779,-2.9779,-2.9917,-3.0294,-3.0984,-3.1775,-3.2466,-3.3124,-3.3124,-3.3124,-3.3124,-3.3124,-3.3124,-3.3124,-3.3124,-3.3124,-3.3124,-3.3124,-3.3124,-3.3124,-3.3124,-3.3124,-3.3124,-3.3124,-3.3124,-3.3124,-3.3124,-3.3124,-3.3124,-3.3124,-3.3124,-3.3124,-3.3124,-3.3598,-3.415,-3.4345,-3.4622,-3.5197,-3.5748,-3.6397,-3.6866,-3.7291,-3.8017,-3.8943,-3.9373,-3.9337,-3.9388,-3.9373,-3.9373,-3.9328,-3.9164,-3.885,-3.8267,-3.2905,-3.2855,-3.229,-3.1738,-3.1223,-3.0809,-3.0319,-2.9854,-2.9792,-2.9779,-2.9779,-2.9779,-2.9779,-2.9779,-2.9842,-3.0055,-3.0482,-3.0859,-3.0708,-3.047,-3.0394,-3.0156,-2.9905,-2.9779,-2.9779,-2.9779,-2.9779,-2.9779,-2.9779,-2.9779,-2.9779,-2.9779,-2.9779,-2.9779,-2.9779,-2.9779,-2.9779,-2.9779,-2.9767,-2.949,-2.8825,-2.8009,-2.7444,-2.7444,-2.7457,-2.7444,-2.758,-2.8285,-2.8737,-2.895,-2.9365,-2.9754,-2.9779,-2.9779,-2.9779,-2.9779,-2.9779,-2.9779,-2.9779,-2.9779,-2.9779,-2.9779,-2.9779,-2.9842,-3.0168,-3.0708,-3.1411,-3.224,-3.2754,-3.3124,-3.3124,-3.3124,-3.3124,-3.3124,-3.3124,-3.3124,-3.3124,-3.3124,-3.3124,-3.3124,-3.3124,-3.3124,-3.3124,-3.3124,-3.3124,-3.3124,-3.3124,-3.3124,-3.3124,-3.3124,-3.3124,-3.3124,-3.3124,-3.3124,-3.3124,-3.3124,-3.3484,-3.3598,-3.3839,-3.4262,-3.4733,-3.5251,-3.5682,-3.6186,-3.72,-3.8078,-3.8679,-3.9066,-3.8941,-3.8926,-3.9226,-3.9194,-3.8931,-3.8646,-3.8212,-3.2315,-3.2277,-3.1725,-3.1185,-3.0731,-3.0633,-3.0281,-2.9817,-2.9779,-2.9779,-2.9779,-2.9779,-2.9779,-2.9779,-2.9779,-2.9842,-2.9942,-3.0043,-3.0118,-3.0005,-2.9967,-2.993,-2.9804,-2.9779,-2.9779,-2.9779,-2.9779,-2.9779,-2.9779,-2.9779,-2.9779,-2.9779,-2.9779,-2.9779,-2.9779,-2.9779,-2.9779,-2.9779,-2.9779,-2.9528,-2.8988,-2.836,-2.8059,-2.8009,-2.8009,-2.8009,-2.8097,-2.8687,-2.8963,-2.9026,-2.9503,-2.9767,-2.9779,-2.9779,-2.9779,-2.9779,-2.9779,-2.9779,-2.9779,-2.9779,-2.9779,-2.9779,-2.9779,-3.0043,-3.057,-3.1336,-3.2127,-3.291,-3.3068,-3.3068,-3.3124,-3.3124,-3.3124,-3.3124,-3.3124,-3.3124,-3.3124,-3.3124,-3.3124,-3.3124,-3.3124,-3.3124,-3.3124,-3.3124,-3.3124,-3.3124,-3.3124,-3.3124,-3.3124,-3.3124,-3.3124,-3.3124,-3.3124,-3.3124,-3.3124,-3.3124,-3.3124,-3.3124,-3.3283,-3.3556,-3.3911,-3.4345,-3.4622,-3.5251,-3.6225,-3.6831,-3.7206,-3.7601,-3.8018,-3.8245,-3.8282,-3.846,-3.8556,-3.8237,-3.7843,-3.2403,-3.2629,-3.175,-3.1273,-3.0984,-3.0432,-3.0018,-2.9829,-2.9779,-2.9779,-2.9779,-2.9779,-2.9779,-2.9779,-2.9779,-2.9792,-2.9779,-2.9779,-2.9779,-2.9779,-2.9779,-2.9779,-2.9792,-2.9779,-2.9779,-2.9779,-2.9779,-2.9779,-2.9779,-2.9779,-2.9779,-2.9779,-2.9779,-2.9779,-2.9779,-2.9779,-2.9779,-2.9779,-2.9767,-2.9666,-2.934,-2.89,-2.8561,-2.8574,-2.8574,-2.8574,-2.8699,-2.9126,-2.9402,-2.9453,-2.9716,-2.9779,-2.9779,-2.9779,-2.9779,-2.9779,-2.9779,-2.9779,-2.9779,-2.9779,-2.9779,-2.9792,-2.9854,-3.0156,-3.0947,-3.175,-3.2466,-3.3048,-3.3111,-3.3124,-3.3124,-3.3124,-3.3124,-3.3124,-3.3124,-3.3124,-3.3124,-3.3124,-3.3124,-3.3124,-3.3124,-3.3124,-3.3124,-3.3124,-3.3124,-3.3124,-3.3124,-3.3124,-3.3124,-3.3124,-3.3124,-3.3124,-3.3124,-3.3124,-3.3124,-3.3124,-3.3124,-3.3124,-3.3124,-3.3283,-3.327,-3.3556,-3.3882,-3.3924,-3.4304,-3.4955,-3.5552,-3.6154,-3.667,-3.7011,-3.7287,-3.7354,-3.7353,-3.7153,-3.7001,-3.2466,-3.2742,-3.1662,-3.1198,-3.111,-3.0193,-2.9792,-2.9792,-2.9779,-2.9779,-2.9779,-2.9779,-2.9779,-2.9779,-2.9779,-2.9779,-2.9779,-2.9779,-2.9779,-2.9779,-2.9779,-2.9779,-2.9779,-2.9779,-2.9779,-2.9779,-2.9779,-2.9779,-2.9779,-2.9779,-2.9779,-2.9779,-2.9779,-2.9779,-2.9779,-2.9779,-2.9779,-2.9779,-2.9779,-2.9767,-2.9666,-2.9327,-2.9151,-2.9101,-2.9139,-2.9139,-2.9214,-2.949,-2.9754,-2.9767,-2.9767,-2.9779,-2.9779,-2.9779,-2.9779,-2.9779,-2.9779,-2.9779,-2.9779,-2.9779,-2.9779,-2.9867,-3.0193,-3.0708,-3.1474,-3.2102,-3.2541,-3.3099,-3.3111,-3.3124,-3.3124,-3.3124,-3.3124,-3.3124,-3.3124,-3.3124,-3.3124,-3.3124,-3.3124,-3.3124,-3.3124,-3.3124,-3.3124,-3.3124,-3.3124,-3.3124,-3.3124,-3.3124,-3.3124,-3.3124,-3.3124,-3.3124,-3.3124,-3.3124,-3.3124,-3.3124,-3.3124,-3.3124,-3.3124,-3.3124,-3.3154,-3.3154,-3.3368,-3.324,-3.3124,-3.3288,-3.4069,-3.4712,-3.5319,-3.5727,-3.6028,-3.6075,-3.6023,-3.5915,-3.6098,-3.2227,-3.2177,-3.1148,-3.0733,-3.0683,-3.0043,-2.9779,-2.9779,-2.9779,-2.9779,-2.9779,-2.9779,-2.9779,-2.9779,-2.9779,-2.9779,-2.9779,-2.9779,-2.9779,-2.9779,-2.9779,-2.9779,-2.9779,-2.9779,-2.9779,-2.9779,-2.9779,-2.9779,-2.9779,-2.9779,-2.9779,-2.9779,-2.9779,-2.9779,-2.9779,-2.9779,-2.9779,-2.9779,-2.9779,-2.9779,-2.9779,-2.9679,-2.9654,-2.9666,-2.9691,-2.9716,-2.9716,-2.9754,-2.9779,-2.9779,-2.9779,-2.9779,-2.9779,-2.9779,-2.9779,-2.9779,-2.9779,-2.9779,-2.9779,-2.9792,-2.9804,-3.0068,-3.0595,-3.1311,-3.1938,-3.2629,-3.3061,-3.3099,-3.3124,-3.3124,-3.3124,-3.3124,-3.3124,-3.3124,-3.3124,-3.3124,-3.3124,-3.3124,-3.3124,-3.3124,-3.3124,-3.3124,-3.3124,-3.3124,-3.3124,-3.3124,-3.3124,-3.3124,-3.3124,-3.3124,-3.3124,-3.3124,-3.3124,-3.3124,-3.3124,-3.3124,-3.3124,-3.3124,-3.3124,-3.3124,-3.3124,-3.3124,-3.3124,-3.3124,-3.3086,-3.2819,-3.2642,-3.3452,-3.4165,-3.4553,-3.4734,-3.4659,-3.4922,-3.5052,-3.5283,-3.2202,-3.2164,-3.1763,-3.1399,-3.1035,-3.0156,-2.9779,-2.9779,-2.9779,-2.9779,-2.9779,-2.9779,-2.9779,-2.9779,-2.9779,-2.9779,-2.9779,-2.9779,-2.9779,-2.9779,-2.9779,-2.9779,-2.9779,-2.9779,-2.9779,-2.9779,-2.9779,-2.9779,-2.9779,-2.9779,-2.9779,-2.9779,-2.9779,-2.9779,-2.9779,-2.9779,-2.9779,-2.9779,-2.9779,-2.9779,-2.9779,-2.9779,-2.9779,-2.9779,-2.9779,-2.9779,-2.9767,-2.9779,-2.9779,-2.9779,-2.9779,-2.9779,-2.9779,-2.9779,-2.9779,-2.9779,-2.9779,-2.9804,-2.9829,-2.9842,-2.993,-3.0382,-3.0972,-3.1637,-3.2227,-3.2754,-3.3061,-3.3124,-3.3124,-3.3124,-3.3124,-3.3124,-3.3124,-3.3124,-3.3124,-3.3124,-3.3124,-3.3124,-3.3124,-3.3124,-3.3124,-3.3124,-3.3124,-3.3124,-3.3124,-3.3124,-3.3124,-3.3124,-3.3124,-3.3124,-3.3124,-3.3124,-3.3124,-3.3124,-3.3124,-3.3124,-3.3124,-3.3124,-3.3124,-3.3124,-3.3124,-3.3124,-3.3124,-3.3124,-3.3061,-3.2759,-3.2634,-3.2682,-3.3081,-3.3741,-3.3594,-3.3172,-3.3528,-3.4151,-3.454,-3.2202,-3.2202,-3.2202,-3.2001,-3.1512,-3.0495,-3.0043,-3.0005,-2.9854,-2.9779,-2.9779,-2.9779,-2.9779,-2.9779,-2.9779,-2.9779,-2.9779,-2.9779,-2.9779,-2.9779,-2.9779,-2.9779,-2.9779,-2.9779,-2.9779,-2.9779,-2.9779,-2.9779,-2.9779,-2.9779,-2.9779,-2.9779,-2.9779,-2.9779,-2.9779,-2.9779,-2.9779,-2.9779,-2.9779,-2.9779,-2.9779,-2.9779,-2.9779,-2.9779,-2.9779,-2.9779,-2.9779,-2.9779,-2.9779,-2.9779,-2.9779,-2.9779,-2.9779,-2.9779,-2.9779,-2.9779,-2.9792,-2.9842,-2.9993,-3.008,-3.0382,-3.1085,-3.1399,-3.1938,-3.2403,-3.2855,-3.3099,-3.3124,-3.3124,-3.3124,-3.3124,-3.3124,-3.3124,-3.3124,-3.3124,-3.3124,-3.3124,-3.3124,-3.3124,-3.3124,-3.3124,-3.3124,-3.3124,-3.3124,-3.3124,-3.3124,-3.3124,-3.3124,-3.3124,-3.3124,-3.3124,-3.3124,-3.3124,-3.3124,-3.3124,-3.3124,-3.3124,-3.3124,-3.3124,-3.3124,-3.3124,-3.3124,-3.3124,-3.3124,-3.3011,-3.2754,-3.2676,-3.2706,-3.2845,-3.3131,-3.2982,-3.2857,-3.3036,-3.3672,-3.3864,-3.2227,-3.2202,-3.224,-3.2227,-3.2064,-3.1007,-3.057,-3.0432,-3.0005,-2.9779,-2.9779,-2.9779,-2.9779,-2.9804,-2.9854,-2.988,-2.9854,-2.988,-2.9892,-2.9829,-2.9917,-2.9842,-2.9779,-2.9779,-2.9779,-2.9779,-2.9779,-2.9779,-2.9779,-2.9779,-2.9779,-2.9779,-2.9779,-2.9779,-2.9779,-2.9779,-2.9779,-2.9779,-2.9779,-2.9779,-2.9779,-2.9779,-2.9779,-2.9779,-2.9779,-2.9779,-2.9779,-2.9779,-2.9779,-2.9779,-2.9779,-2.9779,-2.9779,-2.9779,-2.9779,-2.9779,-2.9779,-3.0043,-3.052,-3.0583,-3.1122,-3.1775,-3.1964,-3.2303,-3.283,-3.3124,-3.3124,-3.3124,-3.3124,-3.3124,-3.3124,-3.3124,-3.3124,-3.3124,-3.3124,-3.3124,-3.3124,-3.3124,-3.3124,-3.3124,-3.3124,-3.3124,-3.3124,-3.3124,-3.3124,-3.3124,-3.3124,-3.3124,-3.3124,-3.3124,-3.3124,-3.3124,-3.3124,-3.3124,-3.3124,-3.3124,-3.3124,-3.3124,-3.3124,-3.3124,-3.3124,-3.3124,-3.3124,-3.3124,-3.3048,-3.2867,-3.2767,-3.2696,-3.2904,-3.3075,-3.3094,-3.3025,-3.3109,-3.3194,-3.3454,-3.2441,-3.278,-3.278,-3.278,-3.2579,-3.1223,-3.062,-3.052,-3.0068,-2.9792,-2.9779,-2.9779,-2.9779,-2.988,-3.0131,-3.0143,-2.9942,-3.067,-3.0683,-2.9867,-3.008,-3.003,-2.9917,-2.9779,-2.9779,-2.9779,-2.9779,-2.9779,-2.9779,-2.9779,-2.9779,-2.9779,-2.9779,-2.9779,-2.9779,-2.9779,-2.9779,-2.9779,-2.9779,-2.9779,-2.9779,-2.9779,-2.9779,-2.9779,-2.9779,-2.9779,-2.9779,-2.9779,-2.9779,-2.9779,-2.9779,-2.9779,-2.9779,-2.9779,-2.9779,-2.9792,-2.9817,-3.0231,-3.0947,-3.1411,-3.18,-3.2139,-3.2303,-3.2541,-3.298,-3.3111,-3.3124,-3.3124,-3.3124,-3.3124,-3.3124,-3.3124,-3.3124,-3.3124,-3.3124,-3.3124,-3.3124,-3.3124,-3.3124,-3.3124,-3.3124,-3.3124,-3.3124,-3.3124,-3.3124,-3.3124,-3.3124,-3.3124,-3.3124,-3.3124,-3.3124,-3.3124,-3.3124,-3.3124,-3.3124,-3.3124,-3.3124,-3.3124,-3.3124,-3.3124,-3.3124,-3.3124,-3.3124,-3.3124,-3.3099,-3.3061,-3.293,-3.2867,-3.2905,-3.3011,-3.3043,-3.3068,-3.3086,-3.3129,-3.3172,-3.2729,-3.3111,-3.3124,-3.3124,-3.2923,-3.17,-3.1085,-3.0821,-3.0319,-3.0068,-3.0043,-2.9905,-2.993,-3.0143,-3.0382,-3.0495,-3.0168,-3.0696,-3.0733,-2.9905,-3.0118,-3.003,-2.9854,-2.9779,-2.9779,-2.9779,-2.9779,-2.9779,-2.9779,-2.9779,-2.9779,-2.9779,-2.9779,-2.9779,-2.9779,-2.9779,-2.9779,-2.9779,-2.9779,-2.9779,-2.9779,-2.9779,-2.9779,-2.9779,-2.9779,-2.9779,-2.9779,-2.9779,-2.9779,-2.9779,-2.9779,-2.9779,-2.9779,-2.9779,-2.9779,-2.9792,-3.008,-3.0507,-3.1223,-3.1851,-3.2164,-3.2528,-3.2503,-3.2692,-3.3036,-3.3111,-3.3124,-3.3124,-3.3124,-3.3124,-3.3124,-3.3124,-3.3124,-3.3124,-3.3124,-3.3124,-3.3124,-3.3124,-3.3025,-3.3025,-3.2982,-3.3025,-3.3038,-3.3124,-3.3124,-3.3124,-3.3124,-3.3124,-3.3124,-3.3124,-3.3124,-3.3124,-3.3124,-3.3124,-3.3124,-3.3124,-3.3124,-3.3124,-3.3124,-3.3124,-3.3124,-3.3124,-3.3124,-3.3124,-3.3111,-3.3099,-3.3111,-3.3099,-3.3074,-3.3074,-3.3099,-3.3124,-3.3124,-3.3124,-3.3124,-3.3124,-3.3124,-3.3124,-3.3124,-3.3011,-3.2403,-3.1888,-3.1336,-3.0821,-3.057,-3.0557,-3.0005,-3.0043,-3.0507,-3.0645,-3.062,-3.0618,-3.0771,-3.0382,-3.0018,-3.003,-2.9892,-2.9842,-2.9779,-2.9779,-2.9779,-2.9779,-2.9779,-2.9779,-2.9779,-2.9779,-2.9779,-2.9779,-2.9779,-2.9779,-2.9779,-2.9779,-2.9779,-2.9779,-2.9779,-2.9779,-2.9779,-2.9779,-2.9779,-2.9779,-2.9779,-2.9779,-2.9779,-2.9779,-2.9779,-2.9779,-2.9779,-2.9779,-2.9779,-2.9779,-2.9917,-3.0269,-3.0884,-3.1361,-3.1913,-3.2478,-3.2842,-3.3011,-3.3099,-3.3111,-3.3124,-3.3124,-3.3124,-3.3124,-3.3124,-3.3124,-3.3124,-3.3124,-3.3124,-3.3124,-3.3124,-3.3124,-3.3081,-3.297,-3.2884,-3.2754,-3.2754,-3.2698,-3.2797,-3.2982,-3.3124,-3.3124,-3.3124,-3.3124,-3.3124,-3.3124,-3.3124,-3.3124,-3.3124,-3.3124,-3.3124,-3.3124,-3.3124,-3.3124,-3.3124,-3.3124,-3.3124,-3.3124,-3.3124,-3.3124,-3.3124,-3.3124,-3.3124,-3.3124,-3.3124,-3.3124,-3.3124,-3.3124,-3.3124,-3.3124,-3.3124,-3.3124,-3.3124,-3.3124,-3.3099,-3.2905,-3.229,-3.1386,-3.0846,-3.062,-3.0583,-3.0043,-3.0105,-3.062,-3.0997,-3.0884,-3.0969,-3.1082,-3.0721,-3.0382,-3.0055,-3.0018,-2.9905,-2.9779,-2.9779,-2.9779,-2.9779,-2.9779,-2.9779,-2.9779,-2.9779,-2.9779,-2.9624,-2.9663,-2.9611,-2.974,-2.9702,-2.974,-2.9702,-2.9779,-2.9779,-2.9779,-2.9779,-2.9779,-2.9779,-2.9779,-2.9779,-2.9779,-2.9779,-2.9779,-2.9779,-2.9779,-2.9779,-2.9779,-2.9792,-2.9892,-3.0532,-3.1273,-3.1524,-3.2277,-3.288,-3.2993,-3.3124,-3.3124,-3.3124,-3.3124,-3.3124,-3.3124,-3.3124,-3.3124,-3.3124,-3.3124,-3.3124,-3.3124,-3.3124,-3.3124,-3.3124,-3.3081,-3.2927,-3.2183,-3.2096,-3.1921,-3.1965,-3.2568,-3.2754,-3.2982,-3.3124,-3.3124,-3.3124,-3.3124,-3.3124,-3.3124,-3.3124,-3.3124,-3.3124,-3.3124,-3.3124,-3.3124,-3.3124,-3.3124,-3.3124,-3.3124,-3.3124,-3.3124,-3.3124,-3.3124,-3.3124,-3.3124,-3.3124,-3.3124,-3.3124,-3.3124,-3.3124,-3.3124,-3.3124,-3.3124,-3.3124,-3.3124,-3.3124,-3.3124,-3.3124,-3.2696,-3.1976,-3.1248,-3.0934,-3.0834,-3.0131,-3.0093,-3.0595,-3.0884,-3.0884,-3.0656,-3.1009,-3.0771,-3.0168,-3.0143,-2.9993,-2.9854,-2.9779,-2.9779,-2.9779,-2.9779,-2.9779,-2.9779,-2.974,-2.9702,-2.9067,-2.9118,-2.887,-2.8621,-2.87,-2.9067,-2.9248,-2.9456,-2.9702,-2.9779,-2.9779,-2.9779,-2.9779,-2.9779,-2.9779,-2.9779,-2.9779,-2.9779,-2.9779,-2.9779,-2.9779,-2.9779,-2.9779,-2.9779,-2.993,-3.0482,-3.106,-3.1449,-3.2152,-3.2704,-3.3018,-3.3124,-3.3124,-3.3124,-3.3124,-3.3124,-3.3124,-3.3124,-3.3124,-3.3124,-3.3124,-3.3124,-3.3124,-3.3124,-3.3124,-3.3124,-3.3124,-3.2426,-3.1545,-3.1134,-3.0956,-3.1235,-3.1921,-3.2382,-3.2382,-3.2667,-3.3124,-3.3124,-3.3124,-3.3124,-3.3124,-3.3124,-3.3124,-3.3124,-3.3124,-3.3124,-3.3124,-3.3124,-3.3124,-3.3124,-3.3124,-3.3124,-3.3124,-3.3124,-3.3124,-3.3124,-3.3124,-3.3124,-3.3124,-3.3124,-3.3124,-3.3124,-3.3124,-3.3124,-3.3124,-3.3124,-3.3124,-3.3124,-3.3124,-3.3124,-3.3048,-3.2923,-3.1775,-3.1373,-3.116,-3.0256,-3.0093,-3.0557,-3.0721,-3.0708,-3.0633,-3.0783,-3.0583,-2.9804,-2.9854,-2.9829,-2.9829,-2.9779,-2.9779,-2.9779,-2.9779,-2.9779,-2.9779,-2.9702,-2.9275,-2.8176,-2.8215,-2.7936,-2.7302,-2.7695,-2.7988,-2.8159,-2.887,-2.9482,-2.974,-2.9779,-2.9779,-2.9779,-2.9779,-2.9779,-2.9779,-2.9779,-2.9779,-2.9779,-2.9779,-2.9779,-2.9779,-2.9779,-2.9779,-3.0043,-3.052,-3.0984,-3.1486,-3.2139,-3.2629,-3.2973,-3.3124,-3.3124,-3.3124,-3.3124,-3.3124,-3.3124,-3.3124,-3.3124,-3.3124,-3.3124,-3.3124,-3.3124,-3.3124,-3.3124,-3.3124,-3.2624,-3.1424,-3.0586,-3.0045,-2.9863,-2.9681,-3.0328,-3.1045,-3.1323,-3.1921,-3.2612,-3.2853,-3.284,-3.2939,-3.2939,-3.3124,-3.3124,-3.3124,-3.3124,-3.3124,-3.3124,-3.3124,-3.3124,-3.3124,-3.3124,-3.3124,-3.3124,-3.3124,-3.3124,-3.3124,-3.3124,-3.3124,-3.3124,-3.3124,-3.3124,-3.3124,-3.3124,-3.3124,-3.3124,-3.3124,-3.3124,-3.3124,-3.3124,-3.3124,-3.2805,-3.2365,-3.17,-3.1361,-3.1185,-3.0382,-3.0068,-3.0495,-3.0545,-3.0545,-3.057,-3.047,-3.0256,-2.9942,-2.9779,-2.9779,-2.9779,-2.9779,-2.9779,-2.9779,-2.9779,-2.9779,-2.9779,-2.9663,-2.9287,-2.8215,-2.8084,-2.7522,-2.6431,-2.6871,-2.7046,-2.6994,-2.7907,-2.8949,-2.9534,-2.974,-2.9779,-2.9779,-2.9779,-2.9779,-2.9779,-2.9779,-2.9779,-2.9779,-2.9779,-2.9779,-2.9779,-2.9779,-2.9779,-2.9942,-3.062,-3.1122,-3.1562,-3.2177,-3.286,-3.3011,-3.3124,-3.3124,-3.3124,-3.3124,-3.3124,-3.3124,-3.3124,-3.3124,-3.3124,-3.3124,-3.3124,-3.3124,-3.3081,-3.3081,-3.3081,-3.1789,-3.0508,-2.9692,-2.905,-2.8727,-2.8505,-2.8819,-2.9544,-3.0271,-3.1045,-3.1633,-3.1965,-3.2108,-3.2382,-3.2525,-3.3025,-3.3068,-3.3124,-3.3124,-3.3124,-3.3124,-3.3124,-3.3124,-3.3124,-3.3124,-3.3124,-3.3124,-3.3124,-3.3124,-3.3124,-3.3124,-3.3124,-3.3124,-3.3124,-3.3124,-3.3124,-3.3124,-3.3124,-3.3124,-3.3124,-3.3124,-3.3124,-3.3074,-3.2805,-3.2503,-3.2114,-3.1386,-3.1047,-3.0934,-3.0231,-2.998,-3.0244,-3.0244,-3.0281,-3.0281,-3.0231,-3.0055,-2.9854,-2.9779,-2.9779,-2.9779,-2.9779,-2.9779,-2.9779,-2.9779,-2.9779,-2.9779,-2.9702,-2.9287,-2.8295,-2.8004,-2.7348,-2.6171,-2.6141,-2.6182,-2.5839,-2.6871,-2.7907,-2.8988,-2.9404,-2.974,-2.9779,-2.9779,-2.9779,-2.9779,-2.9779,-2.9779,-2.9779,-2.9779,-2.9779,-2.9779,-2.9779,-2.9779,-3.008,-3.0658,-3.1386,-3.17,-3.229,-3.3074,-3.3124,-3.3124,-3.3124,-3.3124,-3.3124,-3.3124,-3.3124,-3.3124,-3.3124,-3.3124,-3.3124,-3.3124,-3.3124,-3.2982,-3.2884,-3.2426,-3.1456,-2.9954,-2.8588,-2.8049,-2.7683,-2.7589,-2.7814,-2.8448,-2.8866,-2.9681,-3.0361,-3.0732,-3.119,-3.1557,-3.1877,-3.2239,-3.284,-3.3124,-3.3124,-3.3124,-3.3124,-3.3124,-3.3124,-3.3124,-3.3124,-3.3124,-3.3124,-3.3124,-3.3124,-3.3124,-3.3124,-3.3124,-3.3124,-3.3124,-3.3124,-3.3124,-3.3124,-3.3124,-3.3124,-3.3124,-3.3124,-3.3124,-3.3036,-3.2466,-3.2164,-3.1926,-3.106,-3.0583,-3.0457,-3.0005,-2.9817,-2.9792,-2.9792,-2.9792,-2.9829,-2.993,-2.9817,-2.9804,-2.9779,-2.9779,-2.9779,-2.9779,-2.9779,-2.9779,-2.9779,-2.9779,-2.9779,-2.9495,-2.8897,-2.8215,-2.7602,-2.6953,-2.587,-2.5546,-2.5797,-2.542,-2.5911,-2.6707,-2.7787,-2.8949,-2.9404,-2.9663,-2.9779,-2.9779,-2.9779,-2.9779,-2.9779,-2.9779,-2.9779,-2.9779,-2.9779,-2.9779,-2.9779,-3.0055,-3.0796,-3.1273,-3.1625,-3.2416,-3.291,-3.3124,-3.3124,-3.3081,-3.3081,-3.3081,-3.3081,-3.2754,-3.2754,-3.2667,-3.2624,-3.2754,-3.2754,-3.2853,-3.2698,-3.2339,-3.1589,-3.0899,-2.9453,-2.7814,-2.722,-2.6802,-2.6802,-2.7078,-2.7305,-2.7636,-2.8132,-2.8727,-2.9315,-2.9909,-3.0361,-3.0732,-3.1101,-3.1789,-3.2568,-3.2655,-3.2481,-3.3124,-3.3124,-3.3124,-3.3124,-3.3124,-3.3124,-3.3124,-3.3124,-3.3124,-3.3124,-3.3124,-3.3124,-3.3124,-3.3124,-3.3124,-3.3124,-3.3124,-3.3124,-3.3124,-3.3124,-3.3124,-3.3124,-3.2993,-3.2453,-3.1976,-3.1486,-3.0896,-3.0382,-3.003,-2.9892,-2.9779,-2.9779,-2.9779,-2.9779,-2.9779,-2.9779,-2.9779,-2.9792,-2.9779,-2.9779,-2.9779,-2.9779,-2.9779,-2.9779,-2.9779,-2.9779,-2.974,-2.9015,-2.8426,-2.8227,-2.725,-2.6719,-2.6378,-2.6005,-2.5462,-2.5126,-2.4957,-2.5588,-2.6036,-2.7279,-2.8858,-2.9365,-2.9779,-2.9779,-2.9779,-2.9779,-2.9779,-2.9779,-2.9779,-2.9779,-2.9779,-2.9779,-2.9779,-3.0043,-3.0796,-3.1248,-3.1725,-3.2503,-3.2986,-3.3124,-3.3081,-3.2982,-3.2982,-3.3038,-3.2568,-3.1412,-3.1279,-3.1,-3.1,-3.1412,-3.1557,-3.1833,-3.1877,-3.1101,-3.0271,-2.9863,-2.9039,-2.7757,-2.6754,-2.638,-2.6062,-2.6197,-2.6245,-2.6658,-2.721,-2.7757,-2.7992,-2.8588,-2.9166,-2.9396,-2.9727,-3.0586,-3.1311,-3.15,-3.1589,-3.2426,-3.2939,-3.2568,-3.2568,-3.3081,-3.3124,-3.3081,-3.3124,-3.3124,-3.3124,-3.3124,-3.3124,-3.3124,-3.3124,-3.3124,-3.3124,-3.3124,-3.3124]},{"header":{"parameterUnit":"m.s-1","parameterCategory":1,"la1":31.0,"la2":29.5877,"lo1":-88.7671,"lo2":-86.6584,"dy":0.0162,"dx":0.0185,"nx":115,"ny":88,"refTime":"2026-04-26T12:00:00:Z","depth":0,"parameterNumber":3,"parameterNumberName":"V-component_of_WINDS"},"data":[0.0,0.0,0.0,0.0,0.0,0.0,0.0,0.0,0.0,0.0,0.0,0.0,0.0,0.0,0.0,0.0,0.0,0.0,0.0,0.0,0.0,0.0,0.0,0.0,0.0,0.0,0.0,0.0,0.0,0.0,0.0,0.0,0.0,0.0,0.0,0.0,0.0,0.0,0.0,0.0,0.0,0.0,0.0,0.0,0.0,0.0,0.0,0.0,0.0,0.0,0.0,0.0,0.0,0.0,0.0,0.0,0.0,0.0,0.0,0.0,0.0,0.0,0.0,0.0,0.0,0.0,0.0,0.0,0.0,0.0,0.0,0.0,0.0,0.0,0.0,0.0,0.0,0.0,0.0,0.0,0.0,0.0,0.0,0.0,0.0,0.0,0.0,0.0,0.0,0.0,0.0,0.0,0.0,0.0,0.0,0.0,0.0,0.0,0.0,0.0,0.0,0.0,0.0,0.0,0.0,0.0,0.0,0.0,0.0,0.0,0.0,0.0,0.0,0.0,0.0,0.0,0.0,0.0,0.0,0.0,0.0,0.0,0.0,0.0,0.0,0.0,0.0,0.0,0.0,0.0,0.0,0.0,0.0,0.0,0.0,0.0,0.0,0.0,0.0,0.0,0.0,0.0,0.0,0.0,0.0,0.0,0.0,0.0,0.0,0.0,0.0,0.0,0.0,0.0,0.0,0.0,0.0,0.0,0.0,0.0,0.0,0.0,0.0,0.0,0.0,0.0,0.0,0.0,0.0,0.0,0.0,0.0,0.0,0.0,0.0,0.0,0.0,0.0,0.0,0.0,0.0,0.0,0.0,0.0,0.0,0.0,0.0,0.0,0.0,0.0,0.0,0.0,0.0,0.0,0.0,0.0,0.0,0.0,0.0,0.0,0.0,0.0,0.0,0.0,0.0,0.0,0.0,0.0,0.0,0.0,0.0,0.0,0.0,0.0,0.0,0.0,0.0,0.0,0.0,0.0,0.0,0.0,0.0,0.0,0.0,0.0,0.0,0.0,0.0,0.0,0.0,0.0,0.0,0.0,0.0,0.0,0.0,0.0,0.0,0.0,0.0,0.0,0.0,0.0,0.0,0.0,0.0,0.0,0.0,0.0,0.0,0.0,0.0,0.0,0.0,0.0,0.0,0.0,0.0,0.0,0.0,0.0,0.0,0.0,0.0,0.0,0.0,0.0,0.0,0.0,0.0,0.0,0.0,0.0,0.0,0.0,0.0,0.0,0.0,0.0,0.0,0.0,0.0,0.0,0.0,0.0,0.0,0.0,0.0,0.0,0.0,0.0,0.0,0.0,0.0,0.0,0.0,0.0,0.0,0.0,0.0,0.0,0.0,0.0,0.0,0.0,0.0,0.0,0.0,0.0,0.0,0.0,0.0,0.0,0.0,0.0,0.0,0.0,0.0,0.0,0.0,0.0,0.0,0.0,0.0,0.0,0.0,0.0,0.0,0.0,0.0,0.0,0.0,0.0,0.0,0.0,0.0,0.0,0.0,0.0,0.0,0.0,0.0,0.0,0.0,0.0,0.0,0.0,0.0,0.0,0.0,0.0,0.0,0.0,0.0,0.0,0.0,0.0,0.0,0.0,0.0,0.0,0.0,0.0,0.0,0.0,0.0,0.0,0.0,0.0,0.0,0.0,0.0,0.0,0.0,0.0,0.0,0.0,0.0,0.0,0.0,0.0,0.0,0.0,0.0,0.0,0.0,0.0,0.0,0.0,0.0,0.0,0.0,0.0,0.0,0.0,0.0,0.0,0.0,0.0,0.0,0.0,0.0,0.0,0.0,0.0,0.0,0.0,0.0,0.0,0.0,0.0,0.0,0.0,0.0,0.0,0.0,0.0,0.0,0.0,0.0,0.0,0.0,0.0,0.0,0.0,0.0,0.0,0.0,0.0,0.0,0.0,0.0,0.0,0.0,0.0,0.0,0.0,0.0,0.0,0.0,0.0,0.0,0.0,0.0,0.0,0.0,0.0,0.0,0.0,0.0,0.0,0.0,0.0,0.0,0.0,0.0,0.0,0.0,0.0,0.0,0.0,0.0,0.0,0.0,0.0,0.0,0.0,0.0,0.0,0.0,0.0,0.0,0.0,0.0,0.0,0.0,0.0,0.0,0.0,0.0,0.0,0.0,0.0,0.0,0.0,0.0,0.0,0.0,0.0,0.0,0.0,0.0,0.0,0.0,0.0,0.0,0.0,0.0,0.0,0.0,0.0,0.0,0.0,0.0,0.0,0.0,0.0,0.0,0.0,0.0,0.0,0.0,0.0,0.0,0.0,0.0,0.0,0.0,0.0,0.0,0.0,0.0,0.0,0.0,0.0,0.0,0.0,0.0,0.0,0.0,0.0,0.0,0.0,0.0,0.0,0.0,0.0,0.0,0.0,0.0,0.0,0.0,0.0,0.0,0.0,0.0,0.0,0.0,0.0,0.0,0.0,0.0,0.0,0.0,0.0,0.0,0.0,0.0,0.0,0.0,0.0,0.0,0.0,0.0,0.0,0.0,0.0,0.0,0.0,0.0,0.0,0.0,0.0,0.0,0.0,0.0,0.0,0.0,0.0,0.0,0.0,0.0,0.0,0.0,0.0,0.0,0.0,0.0,0.0,0.0,0.0,0.0,0.0,0.0,0.0,0.0,0.0,0.0,0.0,0.0,0.0,0.0,0.0,0.0,0.0,0.0,0.0,0.0,0.0,0.0,0.0,0.0,0.0,0.0,0.0,0.0,0.0,0.0,0.0,0.0,0.0,0.0,0.0,0.0,0.0,0.0,0.0,0.0,0.0,0.0,0.0,0.0,0.0,0.0,0.0,0.0,0.0,0.0,0.0,0.0,0.0,0.0,0.0,0.0,0.0,0.0,0.0,0.0,0.0,0.0,0.0,0.0,0.0,0.0,0.0,0.0,0.0,0.0,0.0,0.0,0.0,0.0,0.0,0.0,0.0,0.0,0.0,0.0,0.0,0.0,0.0,0.0,0.0,0.0,0.0,0.0,0.0,0.0,0.0,0.0,0.0,0.0,0.0,0.0,0.0,0.0,0.0,0.0,0.0,0.0,0.0,0.0,0.0,0.0,0.0,0.0,0.0,0.0,0.0,0.0,0.0,0.0,0.0,0.0,0.0,0.0,0.0,0.0,0.0,0.0,0.0,0.0,0.0,0.0,0.0,0.0,0.0,0.0,0.0,0.0,0.0,0.0,0.0,0.0,0.0,0.0,0.0,0.0,0.0,0.0,0.0,0.0,0.0,0.0,0.0,0.0,0.0,0.0,0.0,0.0,0.0,0.0,0.0,0.0,0.0,0.0,0.0,0.0,0.0,0.0,0.0,0.0,0.0,0.0,0.0,0.0,0.0,0.0,0.0,0.0,0.0,0.0,0.0,0.0,0.0,0.0,0.0,0.0,0.0,0.0,0.0,0.0,0.0,0.0,0.0,0.0,0.0,0.0,0.0,0.0,0.0,0.0,0.0,0.0,0.0,0.0,0.0,0.0,0.0,0.0,0.0,0.0,0.0,0.0,0.0,0.0,0.0,0.0,0.0,0.0,0.0,0.0,0.0,0.0,0.0,0.0,0.0,0.0,0.0,0.0,0.0,0.0,0.0,0.0,0.0,0.0,0.0,0.0,0.0,0.0,0.0,0.0,0.0,0.0,0.0,0.0,0.0,0.0,0.0,0.0,0.0,0.0,0.0,0.0,0.0,0.0,0.0,0.0,0.0,0.0,0.0,0.0,0.0,0.0,0.0,0.0,0.0,0.0,0.0,0.0,0.0,0.0,0.0,0.0,0.0,0.0,0.0,0.0,0.0,0.0,0.0,0.0,0.0,0.0,0.0,0.0,0.0,0.0,0.0,0.0,0.0,0.0,0.0,0.0,0.0,0.0,0.0,0.0,0.0,0.0,0.0,0.0,0.0,0.0,0.0,0.0,0.0,0.0,0.0,0.0,0.0,0.0,0.0,0.0,0.0,0.0,0.0,0.0,0.0,0.0,0.0,0.0,0.0,0.0,0.0,0.0,0.0,0.0,0.0,0.0,0.0,0.0,0.0,0.0,0.0,0.0,0.0,0.0,0.0,0.0,0.0,0.0,0.0,0.0,0.0,0.0,0.0,0.0,0.0,0.0,0.0,0.0,0.0,0.0,0.0,0.0,0.0,0.0,0.0,0.0,0.0,0.0,0.0,0.0,0.0,0.0,0.0,0.0,0.0,0.0,0.0,0.0,0.0,0.0,0.0,0.0,0.0,0.0,0.0,0.0,0.0,0.0,0.0,0.0,0.0,-0.2674,0.0,0.0,0.0,0.0,0.0,0.0,0.0,0.0,0.0,0.0,0.0,0.0,0.0,0.0,0.0,0.0,0.0,0.0,0.0,0.0,0.0,0.0,0.0,0.0,0.0,0.0,0.0,0.0,0.0,0.0,0.0,0.0,0.0,0.0,0.0,0.0,0.0,0.0,0.0,0.0,0.0,0.0,0.0,0.0,0.0,0.0,0.0,0.0,0.0,0.0,0.0,0.0,0.0,0.0,0.0,0.0,0.0,0.0,0.0,0.0,0.0,0.0,0.0,0.0,0.0,0.0,0.0,0.0,0.0,0.0,0.0,0.0,0.0,0.0,0.0,0.0,0.0,0.0,0.0,0.0,0.0,0.0,0.0,0.0,0.0,0.0,0.0,0.0,0.0,0.0,0.0,0.0,0.0,0.0,0.0,0.0,0.0,0.0,0.0,0.0,0.0,0.0,0.0,0.0,0.0,0.0,0.0,0.0,0.0,0.0,-0.1209,-0.3648,-0.131,-0.1212,-0.3649,0.0,0.0,0.0,0.0,0.0,0.0,0.0,0.0,0.0,0.0,0.0,0.0,0.0,0.0,0.0,0.0,0.0,0.0,0.0,0.0,0.0,0.0,0.0,0.0,0.0,0.0,0.0,0.0,0.0,0.0,0.0,0.0,0.0,0.0,0.0,0.0,0.0,0.0,0.0,0.0,0.0,0.0,0.0,0.0,0.0,0.0,0.0,0.0,0.0,0.0,0.0,0.0,0.0,0.0,0.0,0.0,0.0,0.0,0.0,0.0,0.0,0.0,0.0,0.0,0.0,0.0,0.0,0.0,0.0,0.0,0.0,0.0,0.0,0.0,0.0,0.0,0.0,0.0,0.0,0.0,0.0,0.0,0.0,0.0,0.0,0.0,0.0,0.0,0.0,0.0,0.0,0.0,0.0,0.0,0.0,0.0,0.0,0.0,0.0,0.0,0.0,0.0,0.0,0.0,0.0,0.0,0.0,0.0,0.0,0.0,0.0,0.0,-0.2109,-0.1807,-0.4191,0.0,0.0,0.0,0.0,0.0,0.0,0.0,0.0,0.0,0.0,0.0,0.0,0.0,0.0,0.0,0.0,0.0,0.0,0.0,0.0,0.0,0.0,0.0,0.0,0.0,0.0,0.0,0.0,0.0,0.0,0.0,0.0,0.0,0.0,0.0,0.0,0.0,0.0,0.0,0.0,0.0,0.0,0.0,0.0,0.0,0.0,0.0,0.0,0.0,0.0,0.0,0.0,0.0,0.0,0.0,0.0,0.0,0.0,0.0,0.0,0.0,0.0,0.0,0.0,0.0,0.0,0.0,0.0,0.0,0.0,0.0,0.0,0.0,0.0,0.0,0.0,0.0,0.0,0.0,0.0,0.0,0.0,0.0,0.0,0.0,0.0,0.0,0.0,0.0,0.0,0.0,0.0,0.0,0.0,0.0,0.0,0.0,0.0,0.0,0.0,0.0,0.0,0.0,0.0,0.0,0.0,0.0,0.0,0.0,0.0,-0.1564,-0.4753,-0.3334,0.0,-0.2863,0.0,0.0,0.0,0.0,0.0,0.0,0.0,0.0,0.0,0.0,0.0,0.0,0.0,0.0,0.0,0.0,0.0,0.0,0.0,0.0,0.0,0.0,0.0,0.0,0.0,0.0,0.0,0.0,0.0,0.0,0.0,0.0,0.0,0.0,0.0,0.0,0.0,0.0,0.0,0.0,0.0,0.0,0.0,0.0,0.0,0.0,0.0,0.0,0.0,0.0,0.0,0.0,0.0,0.0,0.0,0.0,0.0,0.0,0.0,0.0,0.0,0.0,0.0,0.0,0.0,0.0,0.0,0.0,0.0,0.0,0.0,0.0,0.0,0.0,0.0,0.0,0.0,0.0,0.0,0.0,0.0,0.0,0.0,0.0,0.0,0.0,0.0,0.0,0.0,0.0,0.0,0.0,0.0,0.0,0.0,0.0,0.0,0.0,0.0,0.0,0.0,0.0,0.0,0.0,0.0,0.0,0.0,0.0,0.0,0.0,-0.0611,-0.4895,-0.4463,-0.3713,0.0,0.0,0.0,0.0,0.0,0.0,0.0,0.0,0.0,0.0,0.0,0.0,0.0,0.0,0.0,0.0,0.0,0.0,0.0,0.0,0.0,0.0,0.0,0.0,0.0,0.0,0.0,0.0,0.0,0.0,0.0,0.0,0.0,0.0,0.0,0.0,0.0,0.0,0.0,0.0,0.0,0.0,0.0,0.0,0.0,0.0,0.0,0.0,0.0,0.0,0.0,0.0,0.0,0.0,0.0,0.0,0.0,0.0,0.0,0.0,0.0,0.0,0.0,0.0,0.0,0.0,0.0,0.0,0.0,0.0,0.0,0.0,0.0,0.0,0.0,0.0,0.0,0.0,0.0,0.0,0.0,0.0,0.0,0.0,0.0,0.0,0.0,0.0,0.0,0.0,0.0,0.0,0.0,0.0,0.0,0.0,0.0,0.0,0.0,0.0,0.0,0.0,0.0,0.0,0.0,0.0,0.0,0.0,0.0,0.0,0.3249,0.0124,-0.4696,-0.5559,-0.4998,-0.3357,0.0,0.0,0.0,0.0,0.0,0.0,0.0,0.0,0.0,0.0,0.0,0.0,0.0,0.0,0.0,0.0,0.0,0.0,0.0,0.0,0.0,0.0,0.0,0.0,0.0,0.0,0.0,0.0,0.0,0.0,0.0,0.0,0.0,0.0,0.0,0.0,0.0,0.0,0.0,0.0,0.0,0.0,0.0,0.0,0.0,0.0,0.0,0.0,0.0,0.0,0.0,0.0,0.0,0.0,0.0,0.0,0.0,0.0,0.0,0.0,0.0,0.0,0.0,0.0,0.0,0.0,0.0,0.0,0.0,0.0,0.0,0.0,0.0,0.0,0.0,0.0,0.0,0.0,0.0,0.0,0.0,0.0,0.0,0.0,0.0,0.0,0.0,0.0,0.0,0.0,0.0,0.0,0.0,0.0,0.0,0.0,0.0,0.0,0.0,0.0,0.0,0.0,0.0,0.0,0.0,0.0,0.0,0.0,0.0,0.3221,0.0124,-0.4709,-0.6534,-0.6623,0.0,0.0,0.0,0.0,0.0,0.0,0.0,0.0,0.0,0.0,0.0,0.0,0.0,0.0,0.0,0.0,0.0,0.0,0.0,0.0,0.0,0.0,0.0,0.0,0.0,0.0,0.0,0.0,0.0,0.0,0.0,0.0,0.0,0.0,0.0,0.0,0.0,0.0,0.0,0.0,0.0,0.0,0.0,0.0,0.0,0.0,0.0,0.0,0.0,0.0,0.0,0.0,0.0,0.0,0.0,0.0,0.0,0.0,0.0,0.0,0.0,0.0,0.0,0.0,0.0,0.0,0.0,0.0,0.0,0.0,0.0,0.0,0.0,0.0,0.0,0.0,0.0,0.0,0.0,0.0,0.0,0.0,0.0,0.0,0.0,0.0,0.0,0.0,0.0,0.0,0.0,0.0,0.0,0.0,0.0,0.0,0.0,0.0,0.0,0.0,0.0,0.0,0.0,0.0,0.0,0.0,0.0,0.0,0.0,0.4444,0.0061,-0.271,-0.3545,-0.5102,-0.5197,0.0,0.0,0.0,0.0,0.0,0.0,0.0,0.0,0.0,0.0,0.0,0.0,0.0,0.0,0.0,0.0,0.0,0.0,0.0,0.0,0.0,0.0,0.0,0.0,0.0,0.0,0.0,0.0,0.0,0.0,0.0,0.0,0.0,0.0,0.0,0.0,0.0,0.0,0.0,0.0,0.0,0.0,0.0,0.0,0.0,0.0,0.0,0.0,0.0,0.0,0.0,0.0,0.0,0.0,0.0,0.0,0.0,0.0,0.0,0.0,0.0,0.0,0.0,0.0,0.0,0.0,0.0,0.0,0.0,0.0,0.0,0.0,0.0,0.0,0.0,0.0,0.0,0.0,0.0,0.0,0.0,0.0,0.0,0.0,0.0,0.0,0.0,0.0,0.0,0.0,0.0,0.0,0.0,0.0,0.0,0.0,0.0,0.0,0.0,0.0,0.0,0.0,0.0,0.0,0.0,0.0,0.0,0.0,0.0,0.3779,0.0,-0.3708,0.0,-0.3638,-0.3718,0.0,0.0,0.0,0.0,0.0,0.0,0.0,0.0,0.0,0.0,0.0,0.0,0.0,0.0,0.0,0.0,0.0,0.0,0.0,0.0,0.0,0.0,0.0,0.0,0.0,0.0,0.0,0.0,0.0,0.0,0.0,0.0,0.0,0.0,0.0,0.0,0.0,0.0,0.0,0.0,0.0,0.0,0.0,0.0,0.0,0.0,0.0,0.0,0.0,0.0,0.0,0.0,0.0,0.0,0.0,0.0,0.0,0.0,0.0,0.0,0.0,0.0,0.0,0.0,0.0,0.0,0.0,0.0,0.0,0.0,0.0,0.0,0.0,0.0,0.0,0.0,0.0,0.0,0.0,0.0,0.0,0.0,0.0,0.0,0.0,0.0,0.0,0.0,0.0,0.0,0.0,0.0,0.0,0.0,0.0,0.0,0.0,0.0,0.0,0.0,0.0,0.0,0.0,0.0,0.0,0.0,0.0,0.0,0.543,0.2509,-0.084,-0.2446,-0.2162,-0.2398,-0.2414,0.0,0.0,0.0,0.0,0.0,0.0,0.0,0.0,0.0,0.0,0.0,0.0,0.0,0.0,0.0,0.0,0.0,0.0,0.0,0.0,0.0,0.0,0.0,0.0,0.0,0.0,0.0,0.0,0.0,0.0,0.0,0.0,0.0,0.0,0.0,0.0,0.0,0.0,0.0,0.0,0.0,0.0,0.0,0.0,0.0,0.0,0.0,0.0,0.0,0.0,0.0,0.0,0.0,0.0,0.0,0.0,0.0,0.0,0.0,0.0,0.0,0.0,0.0,0.0,0.0,0.0,0.0,0.0,0.0,0.0,0.0,0.0,0.0,0.0,0.0,0.0,0.0,0.0,0.0,0.0,0.0,0.0,0.0,0.0,0.0,0.0,0.0,0.0,0.0,0.0,0.0,0.0,0.0,0.0,0.0,0.0,0.0,0.0,0.0,0.0,0.0,0.0,0.0,0.0,0.0,0.0,0.0,0.0,0.0,0.0856,-0.1397,-0.194,-0.0773,-0.19,-0.1941,0.0,0.0,0.0,0.0,0.0,0.0,0.0,0.0,0.0,0.0,0.0,0.0,0.0,0.0,0.0,0.0,0.0,0.0,0.0,0.0,0.0,0.0,0.0,0.0,0.0,0.0,0.0,0.0,0.0,0.0,0.0,0.0,0.0,0.0,0.0,0.0,0.0,0.0,0.0,0.0,0.0,0.0,0.0,0.0,0.0,0.0,0.0,0.0,0.0,0.0,0.0,0.0,0.0,0.0,0.0,0.0,0.0,0.0,0.0,0.0,0.0,0.0,0.0,0.0,0.0,0.0,0.0,0.0,0.0,0.0,0.0,0.0,0.0,0.0,0.0,0.0,0.0,0.0,0.0,0.0,0.0,0.0,0.0,0.0,0.0,0.0,0.0,0.0,0.0,0.0,0.0,0.0,0.0,0.0,0.0,0.0,0.0,0.0,0.0,0.0,0.0,0.0,0.0,0.0,0.0,0.0,0.0,0.0,0.0,0.0125,-0.1036,-0.1055,0.0,-0.0991,-0.0829,0.0694,0.0,0.0,0.0,0.0,0.0,0.0,0.0,0.0,0.0,0.0,0.0,0.0,0.0,0.0,0.0,0.0,0.0,0.0,0.0,0.0,0.0,0.0,0.0,0.0,0.0,0.0,0.0,0.0,0.0,0.0,0.0,0.0,0.0,0.0,0.0,0.0,0.0,0.0,0.0,0.0,0.0,0.0,0.0,0.0,0.0,0.0,0.0,0.0,0.0,0.0,0.0,0.0,0.0,0.0,0.0,0.0,0.0,0.0,0.0,0.0,0.0,0.0,0.0,0.0,0.0,0.0,0.0,0.0,0.0,0.0,0.0,0.0,0.0,0.0,0.0,0.0,0.0,0.0,0.0,0.0,0.0,0.0,0.0,0.0,0.0,0.0,0.0,0.0,0.0,0.0,0.0,0.0,0.0,0.0,0.0,0.0,0.0,0.0,0.0,0.0,0.0,0.0,0.0,0.0,0.0,0.0,0.0,0.0,0.0066,0.0,0.0,0.0,0.0,0.0661,0.0,0.0,0.0,0.0,0.0,0.0,0.0,0.0,0.0,0.0,0.0,0.0,0.0,0.0,0.0,0.0,0.0,0.0,0.0,0.0,0.0,0.0,0.0,0.0,0.0,0.0,0.0,0.0,0.0,0.0,0.0,0.0,0.0,0.0,0.0,0.0,0.0,0.0,0.0,0.0,0.0,0.0,0.0,0.0,0.0,0.0,0.0,0.0,0.0,0.0,0.0,0.0,0.0,0.0,0.0,0.0,0.0,0.0,0.0,0.0,0.0,0.0,0.0,0.0,0.0,0.0,0.0,0.0,0.0,0.0,0.0,0.0,0.0,0.0,0.0,0.0,0.0,0.0,0.0,0.0,0.0,0.0,0.0,0.0,0.0,0.0,0.0,0.0,0.0,0.0,0.0,0.0,0.0,0.0,0.0,0.0,0.0,0.0,0.0,0.0,0.0,0.0,0.0,0.0,0.0,0.0,0.0,0.0,0.0,0.0,0.0,0.0,0.0,0.0,0.0623,0.0,0.0,0.0,0.0,0.0,0.0,0.0,0.0,0.0,0.0,0.0,0.0,0.0,0.0,0.0,0.0,0.0,0.0,0.0,0.0,0.0,0.0,0.0,0.0,0.0,0.0,0.0,0.0,0.0,0.0,0.0,0.0,0.0,0.0,0.0,0.0,0.0,0.0,0.0,0.0,0.0,0.0,0.0,0.0,0.0,0.0,0.0,0.0,0.0,0.0,0.0,0.0,0.0,0.0,0.0,0.0,0.0,0.0,0.0,0.0,0.0,0.0,0.0,0.0,0.0,0.0,0.0,0.0,0.0,0.0,0.0,0.0,0.0,0.0,0.0,0.0,0.0,0.0,0.0,0.0,0.0,0.0,0.0,0.0,0.0,0.0,0.0,0.0,0.0,0.0,0.0,0.0,0.0,0.0,0.0,0.0,0.0,0.0,0.0,0.0,0.0,0.0,0.0,0.0,0.0,0.0,0.0,0.0,0.3467,0.1162,0.0356,0.0,0.0,0.0749,0.1666,0.0,0.0,0.0,0.0,0.0,0.0,0.0,0.0,0.0,0.0,0.0,0.0,0.0,0.0,0.0,0.0,0.0,0.0,0.0,0.0,0.0,0.0,0.0,0.0,0.0,0.0,0.0,0.0,0.0,0.0,0.0,0.0,0.0,0.0,0.0,0.0,0.0,0.0,0.0,0.0,0.0,0.0,0.0,0.0,0.0,0.0,0.0,0.0,0.0,0.0,0.0,0.0,0.0,0.0,0.0,0.0,0.0,0.0,0.0,0.0,0.0,0.0,0.0,0.0,0.0,0.0,0.0,0.0,0.0,0.0,0.0,0.0,0.0,0.0,0.0,0.0,0.0,0.0,0.0,0.0,0.0,0.0,0.0,0.0,0.0,0.0,0.0,0.0,0.0,0.0,0.0,0.0,0.0,0.0,0.0,0.0,0.0,0.0,0.0,0.0,0.0,0.0,0.0,0.0,0.0,0.0,0.0,0.0,0.435,0.2998,0.1235,0.0,0.0592,0.1949,0.3138,0.0,0.0,0.0,0.0,0.0,0.0,0.0,0.0,0.0,0.0,0.0,0.0,0.0,0.0,0.0,0.0,0.0,0.0,0.0,0.0,0.0,0.0,0.0,0.0,0.0,0.0,0.0,0.0,0.0,0.0,0.0,0.0,0.0,0.0,0.0,0.0,0.0,0.0,0.0,0.0,0.0,0.0,0.0,0.0,0.0,0.0,0.0,0.0,0.0,0.0,0.0,0.0,0.0,0.0,0.0,0.0,0.0,0.0,0.0,0.0,0.0,0.0,0.0,0.0,0.0,0.0,0.0,0.0,0.0,0.0,0.0,0.0,0.0,0.0,0.0,0.0,0.0,0.0,0.0,0.0,0.0,0.0,0.0,0.0,0.0,0.0,0.0,0.0,0.0,0.0,0.0,0.0,0.0,0.0,0.0,0.0,0.0,0.0,0.0,0.0,0.0,0.0,0.0,0.0,0.0,0.0,0.0,0.0,0.6324,0.5014,0.3219,0.2993,0.4523,0.3251,0.3087,0.0,0.0,0.0,0.0,0.0,0.0,0.0,0.0,0.0,0.0,0.0,0.0,0.0,0.0,0.0,0.0,0.0,0.0,0.0,0.0,0.0,0.0,0.0,0.0,0.0,0.0,0.0,0.0,0.0,0.0,0.0,0.0,0.0,0.0,0.0,0.0,0.0,0.0,0.0,0.0,0.0,0.0,0.0,0.0,0.0,0.0,0.0,0.0,0.9397,0.0,0.0,0.0,0.0,0.0,0.0,0.0,0.0,0.0,0.0,0.0,0.0,0.0,0.0,0.0,0.0,0.0,0.0,0.0,0.0,0.0,0.0,0.0,0.0,0.0,0.0,0.0,0.0,0.0,0.0,0.0,0.0,0.0,0.0,0.0,0.0,0.0,0.0,0.0,0.0,0.0,0.0,0.0,0.0,0.0,0.0,0.0,0.0,0.0,0.0,0.0,0.0,0.0,0.0,0.0,0.0,0.0,0.0,0.0,0.7502,0.6833,0.5138,0.4707,0.5607,0.5324,0.5223,0.0,0.0,0.0,0.0,0.0,0.0,0.0,0.0,0.0,0.0,0.0,0.0,0.0,0.0,0.0,0.0,0.0,0.0,0.0,0.0,0.0,0.0,0.0,0.0,0.0,0.0,0.0,0.0,0.0,0.0,0.0,0.0,0.0,0.0,0.0,0.0,0.0,0.0,0.0,0.0,0.0,0.0,0.0,0.0,0.0,0.0,0.0,0.0,0.0,0.0,0.0,0.0,0.0,0.0,0.0,0.0,0.0,0.0,0.0,0.0,0.0,0.0,0.0,0.0,0.0,0.0,0.0,0.0,0.0,0.0,0.0,0.0,0.0,0.0,0.0,0.0,0.0,0.0,0.0,0.0,0.0,0.0,0.0,0.0,0.0,0.0,0.0,0.0,0.0,0.0,0.0,0.0,0.0,0.0,0.0,0.0,0.0,0.0,0.0,0.0,0.0,0.0,0.0,0.0,0.0,0.0,0.0,0.967,0.8452,0.8626,0.7054,0.6245,0.6457,0.7477,0.7969,0.7859,0.0,0.0,0.0,0.0,0.0,0.0,0.0,0.0,0.0,0.0,0.0,0.0,0.0,0.0,0.0,0.0,0.0,0.0,0.0,0.0,0.0,0.0,0.0,0.0,0.0,0.0,0.0,0.0,0.0,0.0,0.0,0.0,0.0,0.0,0.0,0.0,0.0,0.0,2.0916,1.8183,0.0,0.0,0.0,0.0,0.0,0.0,0.0,0.0,0.9483,0.0,0.0,0.0,0.0,0.0,0.0,0.0,0.0,0.0,0.0,0.0,0.0,0.0,0.0,0.0,0.0,0.0,0.0,0.0,0.0,0.0,0.0,0.0,0.0,0.0,0.0,0.0,0.0,0.0,0.0,0.0,0.0,0.0,0.0,0.0,0.0,0.0,0.0,0.0,0.0,0.0,0.0,0.0,0.0,0.0,0.0,0.0,0.0,0.0,0.0,0.0,0.0,0.0,0.0,0.0,0.0,1.412,1.1234,0.9925,1.0422,0.8777,0.8627,1.0143,0.8821,0.8875,1.0763,0.0,0.0,0.0,0.0,0.0,0.0,0.0,0.0,0.0,0.0,0.0,0.0,0.0,0.0,0.0,0.0,0.0,0.0,0.0,0.0,0.0,0.0,0.0,0.0,0.0,0.0,0.0,0.0,0.0,0.0,0.0,0.0,0.0,0.0,0.0,0.0,0.0,0.0,0.0,1.9296,1.6815,0.0,0.0,0.0,0.0,0.0,0.0,0.0,0.0,0.9844,0.0,0.0,0.0,0.0,0.0,0.0,0.0,0.0,0.0,0.0,0.0,0.0,0.0,0.0,0.0,0.0,0.0,0.0,0.0,0.0,0.0,0.0,0.0,0.0,0.0,0.0,0.0,0.0,0.0,0.0,0.0,0.0,0.0,0.0,0.0,0.0,0.0,0.0,0.0,0.0,0.0,0.0,0.0,0.0,0.0,0.0,0.0,0.0,0.0,0.0,0.0,0.0,0.0,0.0,0.0,1.402,1.2495,1.1348,1.0938,1.0185,1.0222,1.0978,1.0462,1.1002,0.0,0.0,0.0,0.0,0.0,0.0,0.0,0.0,0.0,0.0,0.0,0.0,0.0,0.0,0.0,0.0,0.0,0.0,0.0,0.0,0.0,0.0,0.0,0.0,0.0,0.0,0.0,0.0,0.0,0.0,0.0,0.0,0.0,0.0,0.0,0.0,0.0,0.0,0.0,0.0,2.0104,1.8114,1.8462,0.0,0.0,0.0,0.0,0.0,0.0,1.0693,1.0925,0.0,0.0,0.0,0.0,0.0,0.0,0.0,0.0,0.0,0.0,0.0,0.0,0.0,0.0,0.0,0.0,0.0,0.0,0.0,0.0,0.0,0.0,0.0,0.0,0.0,0.0,0.0,0.0,0.0,0.0,0.0,0.0,0.0,0.0,0.0,0.0,0.0,0.0,0.0,0.0,0.0,0.0,0.0,0.0,0.0,0.0,0.0,0.0,0.0,0.0,0.0,0.0,0.0,0.0,0.0,1.4086,1.3656,1.2889,1.1796,1.1951,1.1959,1.1733,1.2367,1.3197,0.0,0.0,0.0,0.0,0.0,0.0,0.0,0.0,0.0,0.0,0.0,0.0,0.0,0.0,0.0,0.0,0.0,0.0,0.0,0.0,0.0,0.0,0.0,0.0,0.0,0.0,0.0,0.0,0.0,0.0,0.0,0.0,0.0,0.0,0.0,0.0,0.0,0.0,0.0,0.0,0.0,1.9319,1.9659,1.9312,0.0,0.0,0.0,0.0,1.2736,1.2435,0.0,0.0,0.0,0.0,0.0,0.0,0.0,0.0,0.0,0.0,0.0,0.0,0.0,0.0,0.0,0.0,0.0,0.0,0.0,0.0,0.0,0.0,0.0,0.0,0.0,0.0,0.0,0.0,0.0,0.0,0.0,0.0,0.0,0.0,0.0,0.0,0.0,0.0,0.0,0.0,0.0,0.0,0.0,0.0,0.0,0.0,0.0,0.0,0.0,0.0,0.0,0.0,0.0,0.0,0.0,0.0,1.516,1.4844,1.4582,1.4543,1.4832,1.4836,1.4567,1.461,1.4816,0.0,0.0,0.0,0.0,0.0,0.0,0.0,0.0,0.0,0.0,0.0,0.0,0.0,0.0,0.0,0.0,0.0,0.0,0.0,0.0,0.0,0.0,0.0,0.0,0.0,0.0,0.0,0.0,0.0,0.0,0.0,0.0,0.0,0.0,0.0,0.0,0.0,0.0,0.0,0.0,0.0,1.992,1.9479,1.9366,1.8822,0.0,0.0,1.611,1.4349,1.4681,0.0,0.0,0.0,0.0,0.0,0.0,0.0,0.0,0.0,0.0,0.0,0.0,0.0,0.0,0.0,0.0,0.0,0.0,0.0,0.0,0.0,0.0,0.0,0.0,0.0,0.0,0.0,0.0,0.0,0.0,0.0,0.0,0.0,0.0,0.0,0.0,0.0,0.0,0.0,0.0,0.0,0.0,0.0,0.0,0.0,0.0,0.0,0.0,0.0,0.0,0.0,0.0,0.0,0.0,0.0,1.6574,1.5459,1.5758,1.5654,1.505,1.516,1.517,1.5008,1.5317,1.5495,0.0,0.0,0.0,0.0,0.0,0.0,0.0,0.0,0.0,0.0,0.0,0.0,0.0,0.0,0.0,0.0,0.0,0.0,0.0,0.0,0.0,0.0,0.0,0.0,0.0,0.0,0.0,0.0,0.0,0.0,0.0,0.0,0.0,0.0,0.0,0.0,0.0,0.0,0.0,0.0,0.0,0.0,1.982,1.9713,0.0,0.0,0.0,1.7711,1.6115,0.0,0.0,0.0,0.0,0.0,0.0,0.0,0.0,0.0,0.0,0.0,0.0,0.0,0.0,0.0,0.0,0.0,0.0,0.0,0.0,0.0,0.0,0.0,0.0,0.0,0.0,0.0,0.0,0.0,0.0,0.0,0.0,0.0,0.0,0.0,0.0,0.0,0.0,0.0,0.0,0.0,0.0,0.0,0.0,0.0,0.0,0.0,0.0,0.0,0.0,0.0,0.0,0.0,0.0,0.0,0.0,0.0,1.6036,1.6951,1.7043,1.612,1.6136,1.6048,1.5973,1.6351,0.0,0.0,0.0,0.0,0.0,0.0,0.0,0.0,0.0,0.0,0.0,0.0,0.0,0.0,0.0,0.0,0.0,0.0,0.0,0.0,0.0,0.0,0.0,0.0,0.0,0.0,0.0,2.2471,0.0,0.0,0.0,0.0,0.0,0.0,0.0,0.0,0.0,0.0,0.0,0.0,0.0,0.0,1.9713,1.9986,2.0237,2.0308,0.0,0.0,1.8972,1.7892,1.7842,1.7615,0.0,0.0,0.0,0.0,0.0,0.0,0.0,0.0,0.0,0.0,0.0,0.0,0.0,0.0,0.0,0.0,0.0,0.0,0.0,0.0,0.0,0.0,0.0,0.0,0.0,0.0,0.0,0.0,0.0,0.0,0.0,0.0,0.0,0.0,0.0,0.0,0.0,0.0,0.0,0.0,0.0,0.0,0.0,0.0,0.0,0.0,0.0,0.0,0.0,0.0,0.0,0.0,0.0,0.0,0.0,1.7523,1.8645,1.9191,1.9063,1.9121,1.8932,1.8663,1.8447,1.792,0.0,0.0,0.0,0.0,0.0,0.0,0.0,0.0,0.0,0.0,0.0,0.0,0.0,0.0,0.0,0.0,0.0,0.0,0.0,0.0,0.0,0.0,0.0,0.0,0.0,0.0,0.0,0.0,0.0,0.0,0.0,0.0,0.0,0.0,0.0,0.0,0.0,0.0,0.0,0.0,0.0,2.1073,1.9638,2.0937,2.1707,0.0,0.0,1.9459,1.9608,1.9807,1.9423,1.7755,0.0,0.0,0.0,0.0,0.0,0.0,0.0,0.0,0.0,0.0,0.0,0.0,0.0,0.0,0.0,0.0,0.0,0.0,0.0,0.0,0.0,0.0,0.0,0.0,0.0,0.0,0.0,0.0,0.0,0.0,0.0,0.0,0.0,0.0,0.0,0.0,0.0,0.0,0.0,0.0,0.0,0.0,0.0,0.0,0.0,0.0,0.0,0.0,0.0,0.0,0.0,0.0,0.0,2.0235,1.8533,2.018,2.0369,1.898,2.0463,2.0825,1.9888,2.044,2.0361,0.0,0.0,0.0,0.0,0.0,0.0,0.0,0.0,0.0,0.0,0.0,0.0,0.0,0.0,0.0,0.0,0.0,0.0,0.0,0.0,0.0,0.0,0.0,0.0,0.0,0.0,0.0,0.0,2.3203,2.3193,2.2886,0.0,0.0,0.0,0.0,0.0,0.0,0.0,0.0,0.0,0.0,2.2072,2.2352,2.3035,0.0,0.0,2.1217,2.0681,1.9898,1.974,1.9279,1.805,1.7649,0.0,0.0,0.0,0.0,0.0,0.0,0.0,0.0,0.0,0.0,0.0,0.0,0.0,0.0,0.0,0.0,0.0,0.0,0.0,0.0,0.0,0.0,0.0,0.0,0.0,0.0,0.0,0.0,0.0,0.0,0.0,0.0,0.0,0.0,0.0,0.0,0.0,0.0,0.0,0.0,0.0,0.0,0.0,0.0,0.0,0.0,0.0,0.0,0.0,0.0,0.0,0.0,2.1485,1.9637,2.1226,2.1341,1.9764,2.1424,2.1948,2.1033,2.1603,2.1699,0.0,0.0,0.0,0.0,0.0,0.0,0.0,0.0,0.0,0.0,0.0,0.0,0.0,0.0,0.0,0.0,0.0,0.0,0.0,0.0,0.0,0.0,0.0,0.0,0.0,0.0,0.0,0.0,2.3594,2.3477,2.313,0.0,0.0,0.0,0.0,0.0,0.0,0.0,0.0,0.0,0.0,2.3463,2.4201,2.4708,2.4457,2.3007,2.2679,2.2037,2.0571,2.0178,1.9608,1.8218,0.0,0.0,0.0,0.0,0.0,0.0,0.0,0.0,0.0,0.0,0.0,0.0,0.0,0.0,0.0,0.0,0.0,0.0,0.0,0.0,0.0,0.0,0.0,0.0,0.0,0.0,0.0,0.0,0.0,0.0,2.311,0.0,0.0,0.0,0.0,0.0,0.0,0.0,0.0,0.0,0.0,0.0,0.0,0.0,0.0,0.0,0.0,0.0,0.0,0.0,0.0,0.0,0.0,2.1966,2.0999,2.1773,2.222,2.2335,2.2245,2.2168,2.2056,2.1857,2.1586,2.1246,0.0,0.0,0.0,0.0,0.0,0.0,0.0,0.0,0.0,0.0,0.0,0.0,0.0,0.0,0.0,0.0,0.0,0.0,0.0,0.0,0.0,0.0,0.0,0.0,0.0,0.0,2.3188,2.311,2.313,0.0,0.0,0.0,0.0,0.0,0.0,0.0,0.0,0.0,0.0,2.4787,2.537,2.4461,2.5613,2.6104,2.4787,2.4162,2.3279,2.1764,2.1521,2.0759,0.0,0.0,0.0,0.0,0.0,0.0,0.0,0.0,0.0,0.0,0.0,0.0,0.0,0.0,0.0,0.0,0.0,0.0,0.0,0.0,0.0,0.0,0.0,0.0,0.0,0.0,0.0,2.407,2.3537,0.0,0.0,0.0,0.0,0.0,0.0,0.0,0.0,0.0,0.0,0.0,2.8081,2.7844,0.0,0.0,0.0,0.0,0.0,0.0,0.0,0.0,0.0,0.0,0.0,0.0,2.3139,2.2049,2.365,2.3651,2.2066,2.3601,2.4058,2.3228,2.3913,2.3908,2.2945,0.0,0.0,0.0,0.0,0.0,0.0,0.0,0.0,0.0,0.0,0.0,0.0,0.0,0.0,0.0,0.0,0.0,0.0,0.0,0.0,0.0,0.0,0.0,0.0,0.0,2.373,0.0,0.0,0.0,0.0,0.0,0.0,0.0,0.0,0.0,0.0,0.0,2.406,2.4857,2.5422,2.579,2.6067,2.6567,2.6486,0.0,0.0,0.0,0.0,0.0,0.0,0.0,0.0,0.0,0.0,0.0,0.0,0.0,0.0,1.8486,1.74,1.7221,1.7288,1.7288,0.0,0.0,0.0,0.0,0.0,0.0,0.0,0.0,0.0,0.0,0.0,0.0,0.0,0.0,2.6203,0.0,2.5506,0.0,0.0,0.0,0.0,0.0,0.0,0.0,0.0,2.9308,2.9769,2.9836,2.9552,2.9261,0.0,2.8547,2.713,0.0,0.0,0.0,0.0,0.0,0.0,0.0,0.0,2.3988,2.3205,2.4794,2.4864,2.3285,2.4815,2.5284,2.4461,2.5693,2.5899,2.4932,2.4566,2.363,0.0,0.0,0.0,0.0,0.0,0.0,0.0,0.0,0.0,0.0,0.0,0.0,0.0,0.0,0.0,0.0,0.0,0.0,0.0,0.0,0.0,0.0,0.0,2.4411,0.0,0.0,0.0,0.0,0.0,0.0,0.0,0.0,0.0,2.3854,2.4424,2.504,2.5664,2.6123,2.6553,2.6963,0.0,0.0,0.0,0.0,0.0,0.0,0.0,2.2045,2.0378,1.9492,1.8766,1.8037,1.8384,1.8677,1.839,0.0,0.0,1.7996,1.7842,1.7903,1.7896,1.7201,1.6616,1.6603,1.4773,1.3143,0.0,0.0,0.0,0.0,0.0,0.0,0.0,0.0,2.8847,2.8858,0.0,2.8296,0.0,0.0,0.0,0.0,0.0,2.9092,0.0,0.0,3.2204,3.3056,3.2932,3.1442,3.0671,3.0615,2.9523,2.872,2.8104,2.6585,0.0,0.0,0.0,0.0,0.0,0.0,2.4424,2.4397,2.5235,2.5693,2.5635,2.5684,2.5742,2.5781,2.6935,2.7358,2.6953,2.6936,2.5805,2.3378,2.283,0.0,0.0,0.0,0.0,0.0,0.0,0.0,0.0,0.0,0.0,0.0,0.0,0.0,0.0,0.0,0.0,0.0,0.0,0.0,0.0,2.4808,0.0,0.0,0.0,0.0,0.0,0.0,0.0,0.0,0.0,0.0,2.4137,2.4922,2.5684,2.5684,0.0,0.0,0.0,0.0,2.7669,2.7637,2.7656,2.7218,2.5885,2.5865,2.4922,2.1749,0.0,0.0,1.8882,1.8517,1.8457,1.8102,1.8542,1.8938,1.8918,1.8684,1.8524,1.851,1.8262,1.8155,1.8333,1.7142,1.6051,3.2427,0.0,0.0,0.0,0.0,3.0401,3.0678,3.0858,3.0499,3.0186,2.9814,2.9353,0.0,0.0,0.0,0.0,0.0,0.0,3.1207,3.1769,3.2251,3.2679,3.3068,3.2592,3.2376,3.2389,3.2019,3.1344,3.0308,2.9544,2.7785,2.5086,0.0,0.0,0.0,0.0,2.4424,2.4473,2.5245,2.5684,2.5684,2.5684,2.6159,2.704,2.74,2.7825,2.8207,2.8241,2.7635,2.6269,2.4978,0.0,0.0,0.0,0.0,0.0,0.0,0.0,0.0,0.0,0.0,0.0,0.0,0.0,0.0,0.0,0.0,0.0,0.0,0.0,2.5752,2.6279,2.657,0.0,0.0,0.0,0.0,0.0,0.0,0.0,0.0,0.0,2.5685,2.557,2.5684,0.0,0.0,2.6191,2.6074,2.6475,2.6855,2.7158,2.7461,0.0,0.0,2.6315,2.5317,2.4077,2.2424,2.0752,1.9384,1.9118,1.9092,1.8998,1.9118,1.9239,1.9239,1.9178,1.9176,1.9105,1.9045,1.9011,1.9034,1.7924,1.6779,3.515,3.3089,3.2145,3.1746,3.1793,3.2265,3.2641,3.2865,3.2594,3.2277,3.1959,3.1498,3.0859,3.0099,3.0344,0.0,0.0,0.0,3.2014,3.2554,3.2554,3.2742,3.3111,3.3124,3.3124,3.3124,3.3124,3.2698,3.1952,3.1473,2.9988,2.763,0.0,0.0,2.5114,2.5785,2.6148,2.6134,2.633,2.6577,2.6847,2.6847,2.7435,2.8671,2.8905,2.9272,2.9699,2.9732,2.9221,2.8064,2.6644,2.5957,0.0,0.0,0.0,0.0,0.0,0.0,0.0,0.0,0.0,0.0,0.0,2.6314,2.5211,0.0,0.0,0.0,2.6431,2.6763,2.6721,2.7356,0.0,0.0,0.0,0.0,0.0,0.0,0.0,2.8215,2.8896,2.8877,2.7365,2.7163,2.6791,2.583,2.584,2.5996,2.5996,0.0,2.6787,2.7207,2.749,2.7777,2.7881,2.7237,2.637,2.56,2.3662,2.2004,2.1272,2.0702,2.0314,2.0206,1.9815,1.9424,1.9424,1.9424,1.9424,1.9424,1.9424,1.9424,1.9424,1.8642,1.7923,3.7324,3.6223,3.407,3.318,3.3274,3.4371,3.4806,3.4806,3.4768,3.4705,3.4675,3.4148,3.3583,3.3061,3.2001,0.0,3.2277,3.229,3.2554,3.3124,3.3124,3.3124,3.3124,3.3124,3.3124,3.3124,3.3124,3.3124,3.3043,3.2541,3.1734,3.0721,2.919,2.8309,2.8091,2.8465,2.8712,2.8667,2.7906,2.7903,2.85,2.8522,2.91,3.0304,3.0798,3.108,3.1236,3.1224,3.0526,2.9078,2.8028,2.7239,2.6871,0.0,0.0,0.0,0.0,0.0,0.0,0.0,0.0,0.0,0.0,0.0,0.0,0.0,0.0,0.0,2.7095,0.0,2.7369,2.8379,0.0,0.0,0.0,3.0859,3.1336,3.1424,3.1055,3.0025,0.0,0.0,2.9091,2.9286,2.8669,2.6294,2.63,2.6526,2.6536,2.6859,2.7207,2.7588,2.7757,2.7851,2.8193,2.8198,2.7624,2.6254,2.4939,2.3917,2.3599,2.2645,2.1862,2.1756,2.0587,1.9591,1.9597,1.9591,1.9424,1.9424,1.9424,1.9424,1.9366,1.9307,1.9243,3.6985,3.6345,3.5787,3.5568,3.5568,3.5875,3.5981,3.5977,3.5542,3.5069,3.4643,3.4135,3.3596,3.3111,3.2792,3.2742,3.2867,3.2923,3.2955,3.3124,3.3124,3.3124,3.3124,3.3124,3.3124,3.3124,3.3124,3.3124,3.3111,3.2943,3.2514,3.1824,3.1422,2.9995,2.7606,2.7904,2.7917,2.7504,2.7635,2.7767,2.7921,2.7921,2.8532,2.9759,2.992,3.0429,3.1294,3.1348,3.119,3.0751,2.9308,2.8695,2.9025,2.7294,0.0,0.0,0.0,0.0,0.0,0.0,0.0,0.0,0.0,2.8063,2.6956,0.0,2.8471,0.0,2.9193,2.9756,2.9756,3.0396,0.0,0.0,3.111,3.126,3.1373,3.1763,3.1768,3.1096,3.1873,3.1853,3.0237,3.0449,3.0226,2.8727,2.8073,2.7796,2.7768,2.7622,2.7601,2.7728,2.7992,2.8174,2.8271,2.8301,2.7789,2.6327,2.5772,2.5151,2.3989,2.3543,2.3263,2.3207,2.2089,2.1202,2.1095,2.0206,1.9482,1.9424,1.9424,1.9424,1.9424,1.9424,1.9424,3.6908,3.6417,3.6417,3.6417,3.6417,3.6417,3.6267,3.5968,3.5633,3.5044,3.4324,3.3784,3.337,3.3124,3.3124,3.3124,3.3111,3.2817,3.283,3.3043,3.2596,3.2634,3.3056,3.2805,3.2817,3.3124,3.3124,3.2986,3.2704,3.2692,3.2403,3.1851,3.1851,3.0823,2.8881,2.9236,2.93,2.9017,2.9022,2.871,2.8233,2.8722,2.932,3.0019,3.0292,3.0692,3.1386,3.1386,3.1386,3.1373,3.0281,2.9834,3.0116,2.8543,2.7606,0.0,0.0,0.0,0.0,0.0,0.0,0.0,0.0,0.0,0.0,0.0,2.8737,2.9277,3.0105,3.0708,3.0934,3.121,3.1486,3.1725,3.1763,3.1863,3.2114,3.2403,3.2491,3.2177,3.2679,3.2716,3.1748,3.1869,3.1821,3.1113,3.0582,2.9995,2.9435,2.8965,2.8622,2.8824,2.8539,2.8301,2.8301,2.8301,2.8004,2.7276,2.706,2.678,2.5945,2.5215,2.482,2.4765,2.3599,2.2589,2.254,2.1991,2.138,2.1266,2.0816,2.0206,1.9533,1.9424,1.9339,3.6797,3.6417,3.6417,3.6367,3.6292,3.6304,3.5981,3.5483,3.5345,3.4718,3.3771,3.3338,3.3124,3.3124,3.3124,3.3086,3.2943,3.2441,3.2441,3.2792,3.1913,3.2014,3.2943,3.2528,3.2591,3.3111,3.3048,3.2747,3.2215,3.2152,3.1825,3.1311,3.1298,3.1035,3.0557,3.0959,3.1185,3.1185,3.0733,2.9992,2.9001,2.9952,3.0507,3.0532,3.0947,3.1185,3.1185,3.1185,3.1185,3.1173,3.0746,3.0507,3.0495,2.9477,2.8712,0.0,2.7654,0.0,0.0,0.0,0.0,0.0,0.0,0.0,0.0,2.8612,2.8875,2.9905,3.0507,3.0997,3.1449,3.1562,3.18,3.2252,3.2315,3.2528,3.2993,3.3124,3.3124,3.3124,3.3124,3.3124,3.3056,3.3124,3.3124,3.2959,3.2779,3.2334,3.1439,3.0576,3.0204,3.0524,2.9357,2.8496,2.8172,2.8086,2.8076,2.8096,2.795,2.8135,2.797,2.6971,2.6208,2.6037,2.4905,2.3925,2.3958,2.372,2.3562,2.3355,2.2401,2.1282,2.0113,1.9479,1.9225,3.6493,3.6417,3.6417,3.6107,3.5658,3.5658,3.5596,3.5433,3.46,3.3847,3.3232,3.3162,3.3124,3.3124,3.3124,3.2817,3.2378,3.2265,3.2039,3.1712,3.1951,3.2164,3.239,3.2742,3.2968,3.3043,3.2591,3.2328,3.2202,3.1763,3.1286,3.0771,3.0758,3.0495,2.998,0.0,0.0,0.0,3.0005,2.9813,2.9644,2.9825,2.9942,2.9942,3.0043,0.0,3.0105,3.0093,3.0093,3.0093,2.9993,0.0,0.0,0.0,0.0,0.0,0.0,0.0,0.0,0.0,0.0,0.0,2.826,2.8222,2.885,2.9666,3.0407,3.1035,3.1587,3.1951,3.2051,3.2491,3.2835,3.2893,3.2918,3.2955,3.3111,3.3124,3.3124,3.3124,3.3124,3.3124,3.3124,3.3124,3.3124,3.3119,3.3414,3.3553,3.3322,3.2385,3.1833,3.1792,3.0278,2.8839,2.7449,2.7295,2.7334,2.7256,2.7256,2.7275,2.7253,2.713,2.6833,2.6801,2.5632,2.4624,2.4633,2.3642,2.3005,2.2802,2.2541,2.2096,2.1296,1.9996,1.8991,3.6417,0.0,3.6069,3.5805,0.0,3.4919,3.4738,3.4688,3.4148,3.3583,3.3124,3.3124,3.293,3.2654,3.2641,3.234,3.18,3.1537,3.1411,3.1399,3.1411,3.17,3.2215,3.2503,3.2641,3.2641,3.2353,3.1938,3.1424,3.1148,3.0733,3.0218,3.0206,3.0068,2.9792,2.9779,2.9779,2.9779,2.9779,2.9779,2.9779,2.9779,2.9779,2.9779,0.0,0.0,0.0,0.0,0.0,0.0,0.0,0.0,0.0,0.0,0.0,3.0188,2.9191,2.8813,2.9337,2.8602,2.8335,2.8838,2.8938,2.8938,2.89,2.9729,3.0532,3.1311,3.1662,3.2039,3.2579,3.2905,3.3124,3.3124,3.3124,3.3124,3.3124,3.3124,3.3124,3.3124,3.3124,3.3124,3.3124,3.3124,3.3124,3.3149,3.3558,3.3897,3.3808,3.3086,3.2131,3.081,2.9909,2.8734,2.7367,2.7012,2.7002,2.7012,2.7012,2.7012,2.7012,2.7012,2.7012,2.6961,2.6368,2.5886,2.5834,2.5246,2.4717,2.4664,2.4132,2.3585,2.311,2.1351,1.941,3.6355,3.6169,3.5683,3.5382,3.5144,3.4286,3.3847,3.3746,0.0,0.0,0.0,3.3124,3.2754,3.2185,3.2315,3.1951,3.1248,3.0909,3.0934,3.1235,3.0909,3.126,3.219,3.2202,3.2202,3.2202,3.2026,3.1474,3.0593,3.052,3.0244,2.9829,2.9779,2.9779,2.9779,2.9779,2.9779,2.9779,2.9779,2.9779,2.9779,2.9779,2.9779,2.9779,2.9779,2.9741,2.9641,2.9729,2.9528,2.8925,2.9063,2.9176,2.9302,2.9362,2.9936,3.1116,3.0416,3.006,3.0316,2.946,2.8938,2.9076,2.9528,2.9628,2.9201,2.9666,3.0344,3.1311,3.1386,3.1813,3.2817,3.2918,3.2968,3.3099,3.3124,3.3124,3.3124,3.3124,3.3124,3.3124,3.3124,3.3124,3.3124,3.3124,3.3124,3.3131,3.3432,3.3746,3.3702,3.3399,3.2359,3.0266,2.9845,2.8982,2.7502,2.7122,2.703,2.6759,2.6738,2.6787,2.6787,2.6787,2.6787,2.6709,2.6787,2.6647,2.6717,2.6517,2.6787,2.6787,2.5824,2.4863,2.445,2.2761,2.0681,3.6094,3.5621,3.5533,3.5002,3.411,3.396,3.3633,3.3206,3.3206,3.3199,3.3124,3.3124,3.2754,3.2227,3.2729,3.2139,3.0771,3.111,3.1085,3.0746,3.111,3.1612,3.219,3.2202,3.2202,3.2139,3.1286,3.0758,3.0543,3.0143,2.9854,2.9792,2.9779,2.9779,2.9779,2.9779,2.9779,2.9779,2.9779,2.9779,2.9779,2.9779,2.9779,2.9779,2.9779,2.9553,2.9051,2.9503,2.9528,2.8963,2.9619,3.0291,3.0861,3.1052,3.1319,3.1471,3.0779,3.0296,3.024,2.9386,2.9101,2.9616,2.9754,2.9942,3.0344,3.0417,3.0746,3.1323,3.1361,3.1637,3.2252,3.2353,3.2566,3.3036,3.3124,3.3124,3.3124,3.3124,3.3124,3.3124,3.3124,3.3124,3.3124,3.3124,3.3124,3.3136,3.3237,3.3262,3.3382,3.3927,3.3588,3.2108,3.1622,3.0499,2.8158,2.7513,2.7066,2.6065,2.5918,2.5966,2.5966,2.5976,2.5976,2.5898,2.5957,2.5937,2.5927,2.5869,2.5937,2.5966,2.5661,2.5218,2.4313,2.3524,2.2808,3.5604,3.5031,3.4731,3.4361,3.3884,3.3583,3.3319,3.3124,3.3124,3.3124,3.3086,3.2754,3.2303,3.1788,3.175,3.116,3.0181,3.0419,3.0394,3.0244,3.1009,3.1373,3.1399,3.1926,3.1913,3.1336,3.0859,3.047,3.0168,2.9905,2.9779,2.9779,2.9779,2.9779,2.9779,2.9779,2.9641,2.934,2.9628,2.9641,2.934,2.9315,2.9176,2.8888,2.8888,2.901,2.9145,2.8972,2.9043,2.9377,2.9302,2.9799,3.091,3.1089,3.166,3.2748,3.2066,3.1568,3.1496,3.017,2.9503,2.9767,2.9779,2.9892,3.0143,3.0168,3.0394,3.0909,3.0972,3.1311,3.2114,3.2202,3.2441,3.3061,3.3124,3.3124,3.3124,3.3124,3.3124,3.3124,3.3124,3.3124,3.3124,3.3124,3.3124,3.3124,3.3124,3.3124,3.3124,3.3483,3.3337,3.1932,3.1591,3.0445,2.8175,2.7589,2.703,2.5927,2.5684,2.5684,2.5684,2.5684,2.5684,2.5684,2.5684,2.5684,2.5684,2.5684,2.5684,2.5684,2.5684,2.5323,2.4913,2.4815,2.4121,3.5107,3.45,3.4085,3.3834,3.3671,3.3257,3.3124,3.3124,3.3124,3.3006,3.283,3.2403,3.1851,3.121,3.0909,3.0432,2.9867,2.9917,3.0055,3.0244,3.1009,3.1235,3.1019,3.1738,3.1524,3.0683,3.0495,3.0206,2.9829,2.9779,2.9779,2.9779,2.9779,2.9779,2.9779,2.9779,2.9503,2.8963,2.9365,2.9315,2.8775,2.87,2.8536,2.816,2.8122,2.8384,2.8872,2.8574,2.8759,2.9428,2.9247,2.9685,3.0976,3.1298,3.2137,3.3532,3.324,3.27,3.2249,3.1169,3.0254,2.983,3.0011,3.0037,2.9818,2.9779,2.9955,3.0357,3.0432,3.0821,3.1625,3.1951,3.2265,3.2805,3.3048,3.3124,3.3124,3.3124,3.3124,3.3124,3.3124,3.3124,3.3124,3.3124,3.3124,3.3124,3.3124,3.3124,3.3124,3.3124,3.2655,3.2008,3.1633,3.0935,2.8819,2.8505,2.7851,2.6476,2.6207,2.6062,2.5868,2.5684,2.5684,2.5684,2.5684,2.5684,2.5684,2.5684,2.5684,2.5684,2.5684,2.5684,2.5625,2.5586,2.4962,3.4881,3.4048,3.3909,3.3608,3.3181,3.3106,3.3124,3.3124,3.3124,3.2767,3.229,3.2227,3.1625,3.0834,3.1097,3.0708,2.9867,3.0306,3.0758,3.116,3.1336,3.1612,3.1901,3.1637,3.116,3.0595,3.0118,2.988,2.9792,2.9779,2.9779,2.9779,2.9779,2.9779,2.9779,2.9779,2.949,2.89,2.8938,2.8737,2.8222,2.8185,2.816,2.8122,2.8097,2.7907,2.7758,2.864,2.907,2.8777,3.0053,3.1179,3.1944,3.2742,3.3221,3.3211,3.3609,3.3157,3.1633,3.1974,3.1586,3.0075,3.0582,3.0696,2.9934,2.9792,2.9817,2.9892,2.988,3.0193,3.0708,3.121,3.1738,3.2315,3.2792,3.3124,3.3124,3.3124,3.3124,3.3124,3.3124,3.3124,3.3124,3.3124,3.3124,3.3124,3.3124,3.3124,3.3124,3.3124,3.3081,3.2884,3.2896,3.2295,3.1,3.081,2.9681,2.7908,2.741,2.6982,2.6332,2.5868,2.5684,2.5732,2.5684,2.5684,2.5684,2.5684,2.5684,2.5684,2.5684,2.5684,2.5684,2.5684,2.5011,3.4123,3.342,3.3407,3.3282,3.3136,3.3124,3.3124,3.3056,3.2717,3.224,3.1712,3.1411,3.0982,3.062,3.0507,3.0193,2.9842,3.0369,3.0721,3.0947,3.1235,3.1348,3.1235,3.106,3.0658,3.0156,2.9892,2.9779,2.9779,2.9779,2.9779,2.9779,2.9779,2.9779,2.9767,2.9453,2.9251,2.9215,2.8841,2.8634,2.8541,2.7985,2.7963,2.8509,2.8156,2.8309,2.8964,2.9187,2.9513,3.0211,3.0506,3.1161,3.2279,3.2689,3.3048,3.3296,3.3394,3.33,3.2898,3.27,3.2285,3.1489,3.1304,3.1007,3.0658,3.0139,2.9779,2.9779,2.9779,3.0018,3.0557,3.1085,3.1599,3.2152,3.2729,3.3124,3.3124,3.3124,3.3124,3.3124,3.3124,3.3124,3.3124,3.3124,3.3124,3.3124,3.3124,3.3124,3.3124,3.3124,3.3124,3.3124,3.3124,3.2556,3.1545,3.1178,3.0406,2.9223,2.868,2.8215,2.7173,2.6802,2.661,2.5917,2.583,2.5781,2.5684,2.5684,2.5684,2.5684,2.5684,2.5684,2.5684,2.5684,2.5382,3.3583,3.3162,3.3124,3.3124,3.3124,3.3124,3.298,3.2805,3.239,3.1838,3.1173,3.0771,3.052,3.0369,3.0118,3.0018,3.0119,3.0887,3.1247,3.1245,3.1642,3.1527,3.1016,3.0687,3.0331,2.9867,2.9792,2.9779,2.9779,2.9779,2.9779,2.9779,2.9779,2.9779,2.9767,2.9391,2.9312,2.9359,2.9029,2.9029,2.9154,2.8299,2.8158,2.8853,2.8395,2.8652,2.9858,2.958,2.9889,3.1073,3.0807,3.1116,3.2139,3.2407,3.2886,3.3648,3.3603,3.3626,3.3969,3.3602,3.3136,3.2629,3.2141,3.1865,3.1513,3.0733,3.0343,3.0595,3.0355,3.033,3.0357,3.0871,3.1399,3.1938,3.2503,3.288,3.3043,3.3124,3.3124,3.3124,3.3124,3.3124,3.3124,3.3124,3.3124,3.3124,3.3124,3.3124,3.3124,3.3124,3.3124,3.3124,3.3124,3.2754,3.1909,3.1821,3.1146,3.0361,2.9909,2.9498,2.8412,2.8132,2.8038,2.7484,2.6706,2.6255,2.6342,2.6245,2.583,2.5732,2.5732,2.5781,2.5684,2.5684,2.5684,3.3571,3.3149,3.3124,3.3124,3.3124,3.3124,3.2754,3.2315,3.2215,3.1625,3.0758,3.0608,3.0319,2.9917,3.0357,3.057,3.0779,3.2136,3.2738,3.2686,3.2869,3.2579,3.1924,3.1032,3.0358,2.9959,2.9921,2.9895,2.9856,2.9818,2.9779,2.9869,2.9895,2.9856,2.9961,3.0086,2.9889,2.9648,2.9665,2.9903,3.0083,2.9376,2.8994,2.9129,2.8957,2.9034,2.9254,2.9844,3.0343,3.0389,3.1029,3.1468,3.1615,3.2123,3.3036,3.4188,3.4381,3.4262,3.4211,3.4773,3.4558,3.3101,3.3359,3.3449,3.2558,3.1683,3.1513,3.2321,3.1573,3.0885,3.0279,3.0631,3.1002,3.1449,3.1951,3.2491,3.3091,3.3283,3.3124,3.3167,3.3167,3.3197,3.3167,3.3124,3.3124,3.3124,3.3124,3.3124,3.3124,3.3124,3.3124,3.3124,3.3124,3.3081,3.2982,3.2711,3.2239,3.1589,3.1057,3.0732,2.9954,2.9326,2.9223,2.8901,2.8085,2.7484,2.7305,2.6849,2.6245,2.6014,2.6014,2.5965,2.5781,2.5732,2.5684,3.3257,3.3124,3.3124,3.3124,3.3124,3.3124,3.2742,3.2202,3.1825,3.1286,3.0633,3.0256,2.998,2.9854,3.0721,3.1296,3.1708,3.2962,3.3606,3.3799,3.3887,3.3536,3.2891,3.2192,3.1455,3.0797,3.0696,3.0696,3.0696,3.0696,3.1007,3.1402,3.0983,3.0983,3.1376,3.0907,3.0733,3.1029,3.0535,3.0424,3.0969,3.0748,3.0628,3.0554,3.0103,3.0086,3.0584,3.0911,3.1058,3.1058,3.1351,3.1496,3.1525,3.172,3.2452,3.3664,3.3874,3.4196,3.4875,3.5294,3.5246,3.4591,3.4143,3.391,3.3415,3.2678,3.2249,3.2451,3.2357,3.1901,3.168,3.1532,3.1472,3.1458,3.1876,3.2739,3.3785,3.4121,3.4121,3.4037,3.3598,3.3356,3.3827,3.3556,3.3111,3.3124,3.3124,3.3124,3.3124,3.3124,3.3124,3.3124,3.3124,3.3124,3.3124,3.3081,3.2896,3.2655,3.2295,3.1689,3.1,3.0631,3.0496,2.9818,2.9085,2.8669,2.8448,2.8215,2.7484,2.6982,2.6897,2.6524,2.583,2.6014,2.5868,3.3124,3.3124,3.3124,3.3124,3.3124,3.3124,3.2641,3.1951,3.1549,3.1173,3.0763,3.0407,3.0381,3.0813,3.1643,3.2591,3.3451,3.4226,3.466,3.4869,3.4887,3.4453,3.3617,3.2894,3.2285,3.1742,3.1646,3.1646,3.1646,3.1646,3.1997,3.2486,3.1748,3.164,3.204,3.1352,3.1213,3.1542,3.1047,3.0955,3.1438,3.1496,3.1496,3.1438,3.097,3.094,3.1467,3.1496,3.1496,3.1496,3.1496,3.1496,3.1496,3.1496,3.2079,3.3305,3.3514,3.4083,3.5265,3.5489,3.5504,3.5472,3.4905,3.4476,3.4428,3.3602,3.329,3.3394,3.3171,3.3052,3.2995,3.2786,3.2431,3.2001,3.2192,3.3003,3.4462,3.4664,3.4815,3.5047,3.465,3.4568,3.4938,3.4526,3.4066,3.3725,3.3628,3.3556,3.3197,3.3124,3.3124,3.3124,3.3124,3.3124,3.3124,3.3124,3.3124,3.2939,3.2853,3.2426,3.2152,3.1865,3.15,3.0732,3.0237,2.9863,2.959,2.9487,2.8993,2.8366,2.8085,2.7804,2.7125,2.6438,2.6342,3.3124,3.3124,3.3124,3.3124,3.3111,3.3134,3.25,3.1647,3.1564,3.1525,3.1314,3.1217,3.1609,3.2436,3.2977,3.4245,3.5486,3.5948,3.6087,3.6028,3.5978,3.5315,3.4194,3.3346,3.282,3.2593,3.2607,3.2593,3.2593,3.2607,3.2678,3.2603,3.218,3.1972,3.1771,3.1559,3.1243,3.1302,3.1368,3.1453,3.1496,3.1496,3.1496,3.1496,3.1438,3.1438,3.1496,3.1496,3.1496,3.1496,3.1496,3.1496,3.1496,3.1496,3.2093,3.317,3.3469,3.4158,3.525,3.5459,3.5489,3.5504,3.5424,3.5311,3.5166,3.4543,3.4341,3.4854,3.4509,3.4007,3.4085,3.4011,3.3605,3.2942,3.2804,3.3463,3.4469,3.4787,3.517,3.6053,3.6053,3.6172,3.6198,3.592,3.5467,3.4897,3.4553,3.4233,3.3471,3.324,3.3124,3.3124,3.3124,3.3124,3.3124,3.3124,3.3124,3.3081,3.3081,3.2853,3.2797,3.2612,3.2513,3.1933,3.1512,3.1146,3.0732,3.0541,3.0135,2.959,2.9361,2.8993,2.8226,2.7494,2.6897,3.3124,3.3124,3.3124,3.3124,3.3147,3.3386,3.307,3.2423,3.2641,3.2567,3.2237,3.2164,3.2343,3.277,3.3643,3.4815,3.6014,3.6868,3.7405,3.7493,3.7168,3.6497,3.5661,3.493,3.4211,3.3671,3.3553,3.3567,3.3567,3.3567,3.3856,3.4283,3.3656,3.3394,3.3471,3.3046,3.2565,3.2048,3.1678,3.1496,3.1496,3.1496,3.1496,3.1496,3.1496,3.1496,3.1496,3.1496,3.1496,3.1496,3.1496,3.1496,3.1496,3.1496,3.1914,3.2721,3.326,3.3844,3.4681,3.525,3.5489,3.5489,3.5489,3.5489,3.5504,3.5213,3.5133,3.5472,3.5213,3.5167,3.554,3.527,3.4438,3.2971,3.3478,3.4387,3.5582,3.6358,3.7266,3.7979,3.7123,3.6618,3.693,3.6838,3.6237,3.5788,3.521,3.4594,3.4233,3.3556,3.3124,3.3124,3.3124,3.3124,3.3124,3.3124,3.3124,3.3124,3.3124,3.3124,3.3124,3.3124,3.3124,3.2982,3.2612,3.2283,3.1877,3.1557,3.1178,3.0855,3.0631,3.0,2.9131,2.8577,2.8121,3.3124,3.3124,3.3124,3.3124,3.3134,3.3539,3.3343,3.2895,3.321,3.3268,3.3101,3.3136,3.3359,3.3829,3.4768,3.5647,3.6599,3.7587,3.8274,3.8546,3.7778,3.709,3.6462,3.5818,3.5213,3.4691,3.4576,3.4543,3.4543,3.4576,3.4872,3.5231,3.4604,3.425,3.4397,3.3574,3.2886,3.2437,3.1839,3.1496,3.1496,3.1496,3.1496,3.1496,3.1496,3.1496,3.1496,3.1496,3.1496,3.1496,3.1496,3.1496,3.1496,3.1525,3.1899,3.2766,3.329,3.3888,3.4741,3.5295,3.5489,3.5489,3.5489,3.5489,3.5504,3.5489,3.5489,3.5489,3.5457,3.5774,3.6267,3.6148,3.5369,3.4458,3.4705,3.5527,3.6634,3.7738,3.8546,3.8855,3.8204,3.7904,3.7979,3.7942,3.7161,3.6813,3.6279,3.5305,3.4938,3.4108,3.3713,3.3313,3.3124,3.3124,3.3124,3.3124,3.3124,3.3124,3.3124,3.3124,3.3124,3.3124,3.3124,3.3124,3.284,3.2797,3.2481,3.2612,3.2426,3.214,3.1733,3.1223,3.0541,3.0124,2.9659,3.3124,3.3124,3.3124,3.3124,3.3152,3.3556,3.3516,3.3051,3.344,3.3818,3.4031,3.4095,3.4558,3.5428,3.6041,3.6733,3.7445,3.8167,3.8758,3.8835,3.8048,3.7045,3.6327,3.5759,3.5439,3.5392,3.5392,3.5424,3.5311,3.5311,3.5504,3.5412,3.4916,3.4532,3.4354,3.3245,3.2736,3.2482,3.1899,3.1615,3.1525,3.1496,3.1496,3.1496,3.1496,3.1496,3.1496,3.1496,3.1496,3.1496,3.1496,3.1496,3.1496,3.1496,3.2064,3.317,3.344,3.4143,3.5085,3.5429,3.5489,3.5489,3.5489,3.5489,3.5489,3.5489,3.5489,3.5519,3.5594,3.5893,3.6432,3.6552,3.6561,3.6773,3.6329,3.6644,3.7754,3.8745,3.9228,3.9352,3.9388,3.9388,3.9228,3.9156,3.8708,3.8144,3.7663,3.6685,3.5735,3.502,3.4304,3.3869,3.3556,3.324,3.3283,3.3124,3.3124,3.3124,3.3124,3.3124,3.3124,3.3124,3.3124,3.3124,3.3124,3.3124,3.3124,3.3124,3.3068,3.2797,3.2469,3.2326,3.2008,3.15,3.0899,3.3124,3.3124,3.3124,3.3124,3.3216,3.3834,3.4077,3.4005,3.4622,3.4915,3.5067,3.51,3.5213,3.5639,3.6656,3.727,3.7599,3.8571,3.92,3.9134,3.8033,3.6806,3.5938,3.5609,3.5489,3.5489,3.5489,3.5489,3.5489,3.5489,3.5489,3.5489,3.5295,3.4951,3.4488,3.4129,3.341,3.2647,3.2348,3.1944,3.1555,3.1496,3.1496,3.1496,3.1496,3.1496,3.1496,3.1496,3.1496,3.1496,3.1496,3.1496,3.154,3.1555,3.1974,3.2796,3.332,3.3858,3.4666,3.5235,3.5474,3.5489,3.5489,3.5489,3.5489,3.5489,3.5489,3.5594,3.5908,3.6477,3.7,3.718,3.7392,3.781,3.7543,3.7694,3.8649,3.9177,3.9388,3.9388,3.9388,3.9388,3.9388,3.9388,3.9265,3.8855,3.8294,3.7625,3.6724,3.6081,3.544,3.4733,3.4262,3.3797,3.3441,3.3197,3.3124,3.3124,3.3124,3.3124,3.3124,3.3124,3.3124,3.3124,3.3124,3.3124,3.3124,3.3124,3.3124,3.3124,3.2982,3.2711,3.2797,3.2525,3.1909,3.3755,3.3839,3.4207,3.423,3.4133,3.4692,3.4803,3.4701,3.519,3.5489,3.5489,3.5489,3.5489,3.5639,3.6821,3.724,3.7225,3.8377,3.8945,3.8811,3.7883,3.6731,3.5774,3.5489,3.5489,3.5489,3.5489,3.5489,3.5489,3.5489,3.5489,3.5489,3.5489,3.5265,3.4951,3.4608,3.4024,3.3066,3.2647,3.2168,3.1555,3.1496,3.1496,3.1496,3.1496,3.1496,3.1496,3.1496,3.1496,3.1496,3.1511,3.1615,3.1899,3.1914,3.2348,3.3245,3.3709,3.4249,3.4816,3.5295,3.5474,3.5489,3.5489,3.5489,3.5489,3.5489,3.5489,3.5549,3.6118,3.6731,3.736,3.7883,3.8392,3.8689,3.8583,3.8745,3.9388,3.9388,3.9388,3.9388,3.9388,3.9388,3.9388,3.9388,3.9388,3.9301,3.8907,3.8308,3.7715,3.719,3.654,3.5762,3.5197,3.4815,3.4304,3.3995,3.3526,3.3398,3.3124,3.3124,3.3124,3.3124,3.3124,3.3124,3.3124,3.3124,3.3124,3.3124,3.3124,3.3124,3.3124,3.3124,3.3124,3.3124,3.2556,3.4869,3.4938,3.5814,3.5908,3.5449,3.5719,3.5518,3.5163,3.5359,3.5489,3.5489,3.5489,3.5489,3.5594,3.6671,3.7,3.663,3.7913,3.8257,3.8167,3.7599,3.6731,3.5609,3.5489,3.5489,3.5489,3.5489,3.5489,3.5489,3.5489,3.5489,3.5489,3.5489,3.5489,3.531,3.4906,3.4277,3.3619,3.3006,3.2422,3.1795,3.16,3.1496,3.1496,3.1496,3.1496,3.1496,3.1496,3.1496,3.1496,3.1555,3.1929,3.2407,3.2482,3.317,3.4084,3.4352,3.4696,3.5325,3.5444,3.5489,3.5489,3.5489,3.5489,3.5489,3.5489,3.5564,3.5714,3.6222,3.6971,3.7778,3.8736,3.9134,3.9269,3.9307,3.9373,3.9388,3.9388,3.9388,3.9388,3.9388,3.9388,3.9388,3.9388,3.9388,3.9388,3.9141,3.887,3.8509,3.8144,3.742,3.6579,3.6186,3.5934,3.54,3.4856,3.4275,3.3797,3.3283,3.3124,3.3124,3.3124,3.3124,3.3124,3.3124,3.3124,3.3124,3.3124,3.3124,3.3124,3.3124,3.3124,3.3124,3.3124,3.2797,3.5854,3.5894,3.6119,3.6129,3.6009,3.5941,3.582,3.5682,3.554,3.5489,3.5489,3.5489,3.5489,3.5564,3.6342,3.6596,3.6705,3.7719,3.8123,3.7599,3.7524,3.6686,3.5729,3.5489,3.5489,3.5489,3.5489,3.5489,3.5489,3.5489,3.5489,3.5489,3.5489,3.5489,3.5444,3.531,3.4951,3.4277,3.3619,3.2931,3.2228,3.1765,3.154,3.1511,3.1496,3.1496,3.1496,3.1496,3.1496,3.1615,3.2019,3.2482,3.2647,3.3036,3.3679,3.4324,3.4563,3.4801,3.5325,3.5489,3.5489,3.5489,3.5489,3.5489,3.5489,3.5489,3.5759,3.6207,3.6866,3.7614,3.8691,3.9149,3.9358,3.9388,3.9388,3.9388,3.9388,3.9388,3.9388,3.9388,3.9388,3.9388,3.9388,3.9388,3.9388,3.9388,3.9337,3.925,3.9104,3.8907,3.8345,3.7496,3.7381,3.7046,3.6265,3.5682,3.5088,3.4428,3.3839,3.3441,3.3398,3.3124,3.3124,3.3124,3.3124,3.3124,3.3124,3.3124,3.3124,3.3124,3.3124,3.3124,3.3124,3.3124,3.2918,3.6916,3.7007,3.7496,3.7327,3.6813,3.6626,3.6274,3.5771,3.5555,3.5489,3.5489,3.5489,3.5489,3.5549,3.6163,3.6492,3.6791,3.7764,3.7853,3.7255,3.718,3.6701,3.5729,3.5489,3.5489,3.5489,3.5489,3.5489,3.5489,3.5489,3.5489,3.5489,3.5489,3.5489,3.5489,3.5489,3.5115,3.4578,3.4174,3.3514,3.2587,3.2168,3.1735,3.157,3.1496,3.1496,3.1496,3.1839,3.1929,3.2198,3.2871,3.326,3.3125,3.3604,3.4279,3.4848,3.4966,3.5085,3.5429,3.5489,3.5489,3.5489,3.5489,3.5489,3.5489,3.5489,3.5818,3.6417,3.709,3.7928,3.9179,3.9388,3.9388,3.9388,3.9388,3.9388,3.9388,3.9388,3.9388,3.9388,3.9388,3.9388,3.9388,3.9388,3.9388,3.9388,3.9388,3.9337,3.9337,3.9192,3.9104,3.862,3.8568,3.813,3.7175,3.6501,3.5894,3.5278,3.4664,3.4262,3.4108,3.3598,3.3124,3.3124,3.3124,3.3124,3.3124,3.3124,3.3124,3.3124,3.3124,3.3124,3.3048,3.2867,3.2654,3.8032,3.8107,3.9017,3.8656,3.7644,3.7415,3.6724,3.5786,3.5549,3.5489,3.5489,3.5489,3.5489,3.5624,3.6028,3.6342,3.6746,3.7315,3.733,3.6746,3.6985,3.6477,3.5699,3.5489,3.5489,3.5489,3.5489,3.5489,3.5489,3.5489,3.5489,3.5489,3.5489,3.5489,3.5489,3.5474,3.5265,3.4771,3.4518,3.3888,3.2886,3.2557,3.2108,3.1615,3.1496,3.1496,3.163,3.2034,3.2452,3.2602,3.3769,3.4084,3.4009,3.4277,3.4831,3.5444,3.5415,3.5429,3.5459,3.5489,3.5489,3.5489,3.5489,3.5489,3.5489,3.5699,3.6088,3.6701,3.7434,3.8267,3.9239,3.9388,3.9388,3.9388,3.9388,3.9388,3.9388,3.9388,3.9388,3.9388,3.9388,3.9388,3.9388,3.9388,3.9388,3.9388,3.9388,3.9388,3.9388,3.9388,3.9265,3.9213,3.9053,3.898,3.8182,3.7305,3.6696,3.6265,3.5615,3.517,3.4856,3.4262,3.3713,3.321,3.3124,3.3124,3.3124,3.3124,3.3124,3.3124,3.3124,3.3124,3.2893,3.2641,3.239,3.9141,3.9141,3.9337,3.8945,3.8182,3.7629,3.6956,3.6297,3.5699,3.5504,3.5489,3.5489,3.5489,3.5549,3.5564,3.5968,3.6477,3.6956,3.6866,3.6522,3.6656,3.6207,3.5654,3.5489,3.5489,3.5489,3.5489,3.5489,3.5489,3.5489,3.5489,3.5489,3.5489,3.5489,3.5489,3.5489,3.5444,3.516,3.4801,3.4174,3.3455,3.2766,3.2228,3.166,3.1615,3.16,3.1705,3.2138,3.2497,3.2617,3.3799,3.4324,3.4488,3.4936,3.531,3.5444,3.5489,3.5489,3.5489,3.5489,3.5489,3.5489,3.5489,3.5489,3.5609,3.6013,3.6507,3.733,3.8257,3.9119,3.9328,3.9388,3.9388,3.9388,3.9388,3.9388,3.9388,3.9388,3.9388,3.9388,3.9388,3.9388,3.9388,3.9388,3.9388,3.9388,3.9388,3.9388,3.9388,3.9388,3.9352,3.9352,3.9352,3.9352,3.9141,3.8256,3.7534,3.7343,3.6788,3.6186,3.5708,3.5007,3.4428,3.4066,3.3441,3.3124,3.3124,3.3124,3.3124,3.3124,3.3124,3.3124,3.2923,3.2654,3.2177,3.9388,3.9379,3.9035,3.8497,3.7838,3.7195,3.6567,3.5983,3.5639,3.5489,3.5489,3.5489,3.5489,3.5489,3.5489,3.5863,3.6387,3.6866,3.6776,3.6582,3.6462,3.6133,3.5564,3.5504,3.5489,3.5489,3.5489,3.5489,3.5489,3.5489,3.5489,3.5489,3.5489,3.5489,3.5489,3.5489,3.5489,3.54,3.513,3.4666,3.3948,3.308,3.2318,3.2123,3.2004,3.2004,3.2198,3.3066,3.3514,3.3739,3.4487,3.4906,3.51,3.525,3.5489,3.5489,3.5489,3.5489,3.5489,3.5489,3.5489,3.5489,3.5489,3.5489,3.5654,3.6103,3.6926,3.7868,3.8691,3.9388,3.9388,3.9388,3.9388,3.9388,3.9388,3.9388,3.9388,3.9388,3.9388,3.9388,3.9388,3.9388,3.9388,3.9388,3.9388,3.9388,3.9388,3.9388,3.9388,3.9388,3.9388,3.9388,3.9388,3.9388,3.9388,3.8907,3.8345,3.8144,3.7866,3.7252,3.6696,3.6081,3.5601,3.5156,3.4457,3.3556,3.3111,3.3154,3.3124,3.3111,3.3111,3.3074,3.2935,3.2671,3.2181,3.9215,3.9155,3.8482,3.7823,3.721,3.6716,3.6133,3.5579,3.5504,3.5489,3.5489,3.5489,3.5489,3.5489,3.5564,3.5818,3.6327,3.6776,3.6596,3.6312,3.6222,3.5938,3.5639,3.5489,3.5489,3.5489,3.5489,3.5489,3.5489,3.5489,3.5489,3.5489,3.5489,3.5489,3.5489,3.5489,3.5489,3.5489,3.5474,3.5145,3.4352,3.338,3.2706,3.2706,3.2721,3.2706,3.2796,3.3709,3.4247,3.4502,3.4996,3.5459,3.5489,3.5489,3.5489,3.5489,3.5489,3.5489,3.5489,3.5489,3.5489,3.5489,3.5489,3.5564,3.5953,3.6596,3.7434,3.8422,3.9035,3.9388,3.9388,3.9388,3.9388,3.9388,3.9388,3.9388,3.9388,3.9388,3.9388,3.9388,3.9388,3.9388,3.9388,3.9388,3.9388,3.9388,3.9388,3.9388,3.9388,3.9388,3.9388,3.9388,3.9388,3.9388,3.9388,3.9388,3.9031,3.8907,3.8671,3.8219,3.7738,3.7228,3.6788,3.6265,3.5224,3.4361,3.3771,3.3292,3.3259,3.3246,3.3134,3.296,3.2667,3.2428,3.2064,3.8512,3.8467,3.7808,3.7165,3.6705,3.6507,3.6088,3.5534,3.5489,3.5489,3.5489,3.5489,3.5489,3.5489,3.5489,3.5564,3.5684,3.5804,3.5893,3.5759,3.5714,3.5669,3.5519,3.5489,3.5489,3.5489,3.5489,3.5489,3.5489,3.5489,3.5489,3.5489,3.5489,3.5489,3.5489,3.5489,3.5489,3.5489,3.5489,3.519,3.4547,3.3799,3.344,3.338,3.338,3.338,3.3484,3.4188,3.4593,3.4668,3.516,3.5474,3.5489,3.5489,3.5489,3.5489,3.5489,3.5489,3.5489,3.5489,3.5489,3.5489,3.5489,3.5804,3.6432,3.7345,3.8287,3.9134,3.9409,3.9409,3.9388,3.9388,3.9388,3.9388,3.9388,3.9388,3.9388,3.9388,3.9388,3.9388,3.9388,3.9388,3.9388,3.9388,3.9388,3.9388,3.9388,3.9388,3.9388,3.9388,3.9388,3.9388,3.9388,3.9388,3.9388,3.9388,3.9388,3.9388,3.9228,3.8943,3.8583,3.8144,3.7866,3.7228,3.6225,3.5412,3.4847,3.4304,3.3783,3.3466,3.3425,3.292,3.2353,3.2156,3.2108,3.8616,3.8886,3.7838,3.727,3.6926,3.6267,3.5774,3.5549,3.5489,3.5489,3.5489,3.5489,3.5489,3.5489,3.5489,3.5504,3.5489,3.5489,3.5489,3.5489,3.5489,3.5489,3.5504,3.5489,3.5489,3.5489,3.5489,3.5489,3.5489,3.5489,3.5489,3.5489,3.5489,3.5489,3.5489,3.5489,3.5489,3.5489,3.5474,3.5355,3.4966,3.4442,3.4038,3.4053,3.4053,3.4053,3.4203,3.4711,3.504,3.51,3.5415,3.5489,3.5489,3.5489,3.5489,3.5489,3.5489,3.5489,3.5489,3.5489,3.5489,3.5504,3.5579,3.5938,3.6881,3.7838,3.8691,3.9298,3.9373,3.9388,3.9388,3.9388,3.9388,3.9388,3.9388,3.9388,3.9388,3.9388,3.9388,3.9388,3.9388,3.9388,3.9388,3.9388,3.9388,3.9388,3.9388,3.9388,3.9388,3.9388,3.9388,3.9388,3.9388,3.9388,3.9388,3.9388,3.9388,3.9388,3.9388,3.9228,3.9213,3.8943,3.8634,3.8598,3.8182,3.7239,3.6178,3.5297,3.4647,3.4138,3.3721,3.3413,3.312,3.2726,3.2664,3.8691,3.902,3.7734,3.718,3.7075,3.5983,3.5504,3.5504,3.5489,3.5489,3.5489,3.5489,3.5489,3.5489,3.5489,3.5489,3.5489,3.5489,3.5489,3.5489,3.5489,3.5489,3.5489,3.5489,3.5489,3.5489,3.5489,3.5489,3.5489,3.5489,3.5489,3.5489,3.5489,3.5489,3.5489,3.5489,3.5489,3.5489,3.5489,3.5474,3.5355,3.5028,3.4818,3.4758,3.4726,3.4726,3.4816,3.5145,3.5459,3.5474,3.5474,3.5489,3.5489,3.5489,3.5489,3.5489,3.5489,3.5489,3.5489,3.5489,3.5489,3.5594,3.5983,3.6596,3.7509,3.8257,3.8781,3.9358,3.9373,3.9388,3.9388,3.9388,3.9388,3.9388,3.9388,3.9388,3.9388,3.9388,3.9388,3.9388,3.9388,3.9388,3.9388,3.9388,3.9388,3.9388,3.9388,3.9388,3.9388,3.9388,3.9388,3.9388,3.9388,3.9388,3.9388,3.9388,3.9388,3.9388,3.9388,3.9388,3.9337,3.9337,3.9156,3.9265,3.9388,3.8633,3.7261,3.6339,3.5474,3.4728,3.4189,3.4309,3.4109,3.3711,3.3515,3.8407,3.8347,3.712,3.6626,3.6567,3.5804,3.5489,3.5489,3.5489,3.5489,3.5489,3.5489,3.5489,3.5489,3.5489,3.5489,3.5489,3.5489,3.5489,3.5489,3.5489,3.5489,3.5489,3.5489,3.5489,3.5489,3.5489,3.5489,3.5489,3.5489,3.5489,3.5489,3.5489,3.5489,3.5489,3.5489,3.5489,3.5489,3.5489,3.5489,3.5489,3.537,3.534,3.5355,3.5385,3.5415,3.5415,3.5459,3.5489,3.5489,3.5489,3.5489,3.5489,3.5489,3.5489,3.5489,3.5489,3.5489,3.5489,3.5504,3.5519,3.5833,3.6462,3.7315,3.8063,3.8886,3.9313,3.9358,3.9388,3.9388,3.9388,3.9388,3.9388,3.9388,3.9388,3.9388,3.9388,3.9388,3.9388,3.9388,3.9388,3.9388,3.9388,3.9388,3.9388,3.9388,3.9388,3.9388,3.9388,3.9388,3.9388,3.9388,3.9388,3.9388,3.9388,3.9388,3.9388,3.9388,3.9388,3.9388,3.9388,3.9388,3.9388,3.9388,3.9343,3.8853,3.8389,3.7397,3.6319,3.5161,3.4734,3.5193,3.5537,3.5436,3.5206,3.8377,3.8332,3.7853,3.7419,3.6985,3.5938,3.5489,3.5489,3.5489,3.5489,3.5489,3.5489,3.5489,3.5489,3.5489,3.5489,3.5489,3.5489,3.5489,3.5489,3.5489,3.5489,3.5489,3.5489,3.5489,3.5489,3.5489,3.5489,3.5489,3.5489,3.5489,3.5489,3.5489,3.5489,3.5489,3.5489,3.5489,3.5489,3.5489,3.5489,3.5489,3.5489,3.5489,3.5489,3.5489,3.5489,3.5474,3.5489,3.5489,3.5489,3.5489,3.5489,3.5489,3.5489,3.5489,3.5489,3.5489,3.5519,3.5549,3.5564,3.5669,3.6207,3.6911,3.7704,3.8407,3.9035,3.9313,3.9388,3.9388,3.9388,3.9388,3.9388,3.9388,3.9388,3.9388,3.9388,3.9388,3.9388,3.9388,3.9388,3.9388,3.9388,3.9388,3.9388,3.9388,3.9388,3.9388,3.9388,3.9388,3.9388,3.9388,3.9388,3.9388,3.9388,3.9388,3.9388,3.9388,3.9388,3.9388,3.9388,3.9388,3.9388,3.9388,3.9388,3.9313,3.8955,3.8549,3.8098,3.7309,3.6262,3.6104,3.644,3.675,3.7026,3.6798,3.8377,3.8377,3.8377,3.8138,3.7554,3.6342,3.5804,3.5759,3.5579,3.5489,3.5489,3.5489,3.5489,3.5489,3.5489,3.5489,3.5489,3.5489,3.5489,3.5489,3.5489,3.5489,3.5489,3.5489,3.5489,3.5489,3.5489,3.5489,3.5489,3.5489,3.5489,3.5489,3.5489,3.5489,3.5489,3.5489,3.5489,3.5489,3.5489,3.5489,3.5489,3.5489,3.5489,3.5489,3.5489,3.5489,3.5489,3.5489,3.5489,3.5489,3.5489,3.5489,3.5489,3.5489,3.5489,3.5489,3.5504,3.5564,3.5744,3.5848,3.6207,3.7045,3.7419,3.8063,3.8616,3.9155,3.9358,3.9388,3.9388,3.9388,3.9388,3.9388,3.9388,3.9388,3.9388,3.9388,3.9388,3.9388,3.9388,3.9388,3.9388,3.9388,3.9388,3.9388,3.9388,3.9388,3.9388,3.9388,3.9388,3.9388,3.9388,3.9388,3.9388,3.9388,3.9388,3.9388,3.9388,3.9388,3.9388,3.9388,3.9388,3.9388,3.9388,3.9388,3.9254,3.9035,3.877,3.8463,3.8035,3.7448,3.7527,3.7714,3.792,3.8143,3.8025,3.8407,3.8377,3.8422,3.8407,3.8212,3.7034,3.6432,3.6267,3.5759,3.5489,3.5489,3.5489,3.5489,3.5519,3.5579,3.5609,3.5579,3.5609,3.5624,3.5549,3.5654,3.5564,3.5489,3.5489,3.5489,3.5489,3.5489,3.5489,3.5489,3.5489,3.5489,3.5489,3.5489,3.5489,3.5489,3.5489,3.5489,3.5489,3.5489,3.5489,3.5489,3.5489,3.5489,3.5489,3.5489,3.5489,3.5489,3.5489,3.5489,3.5489,3.5489,3.5489,3.5489,3.5489,3.5489,3.5489,3.5489,3.5804,3.6372,3.6447,3.709,3.7868,3.8093,3.8497,3.9125,3.9388,3.9388,3.9388,3.9388,3.9388,3.9388,3.9388,3.9388,3.9388,3.9388,3.9388,3.9388,3.9388,3.9388,3.9388,3.9388,3.9388,3.9388,3.9388,3.9388,3.9388,3.9388,3.9388,3.9388,3.9388,3.9388,3.9388,3.9388,3.9388,3.9388,3.9388,3.9388,3.9388,3.9388,3.9388,3.9388,3.9388,3.9388,3.9388,3.9298,3.917,3.905,3.888,3.8525,3.8301,3.8748,3.9011,3.9196,3.9124,3.8825,3.8661,3.9065,3.9065,3.9065,3.8826,3.721,3.6492,3.6372,3.5833,3.5504,3.5489,3.5489,3.5489,3.5609,3.5908,3.5923,3.5684,3.6552,3.6567,3.5594,3.5848,3.5789,3.5654,3.5489,3.5489,3.5489,3.5489,3.5489,3.5489,3.5489,3.5489,3.5489,3.5489,3.5489,3.5489,3.5489,3.5489,3.5489,3.5489,3.5489,3.5489,3.5489,3.5489,3.5489,3.5489,3.5489,3.5489,3.5489,3.5489,3.5489,3.5489,3.5489,3.5489,3.5489,3.5489,3.5504,3.5534,3.6028,3.6881,3.7434,3.7898,3.8302,3.8497,3.8781,3.9305,3.9373,3.9388,3.9388,3.9388,3.9388,3.9388,3.9388,3.9388,3.9388,3.9388,3.9388,3.9388,3.9388,3.9388,3.9388,3.9388,3.9388,3.9388,3.9388,3.9388,3.9388,3.9388,3.9388,3.9388,3.9388,3.9388,3.9388,3.9388,3.9388,3.9388,3.9388,3.9388,3.9388,3.9388,3.9388,3.9388,3.9388,3.9388,3.9388,3.9358,3.9313,3.9245,3.917,3.9215,3.9254,3.9379,3.9409,3.9343,3.9307,3.9271,3.9005,3.9373,3.9388,3.9388,3.9149,3.7778,3.7045,3.6731,3.6133,3.5833,3.5804,3.5639,3.5669,3.5923,3.6207,3.6342,3.5953,3.6582,3.6626,3.5639,3.5893,3.5789,3.5579,3.5489,3.5489,3.5489,3.5489,3.5489,3.5489,3.5489,3.5489,3.5489,3.5489,3.5489,3.5489,3.5489,3.5489,3.5489,3.5489,3.5489,3.5489,3.5489,3.5489,3.5489,3.5489,3.5489,3.5489,3.5489,3.5489,3.5489,3.5489,3.5489,3.5489,3.5489,3.5489,3.5504,3.5848,3.6357,3.721,3.7958,3.8332,3.8766,3.8736,3.896,3.9284,3.9373,3.9388,3.9388,3.9388,3.9388,3.9388,3.9388,3.9388,3.9388,3.9388,3.9388,3.9388,3.9388,3.9445,3.9445,3.9481,3.9445,3.946,3.9388,3.9388,3.9388,3.9388,3.9388,3.9388,3.9388,3.9388,3.9388,3.9388,3.9388,3.9388,3.9388,3.9388,3.9388,3.9388,3.9388,3.9388,3.9388,3.9388,3.9388,3.9373,3.9358,3.9373,3.9358,3.9328,3.9328,3.9358,3.9388,3.9388,3.9388,3.9388,3.9388,3.9388,3.9388,3.9388,3.9254,3.8616,3.8003,3.7345,3.6731,3.6432,3.6417,3.5759,3.5804,3.6357,3.6522,3.6492,3.657,3.6671,3.6207,3.5774,3.5789,3.5624,3.5564,3.5489,3.5489,3.5489,3.5489,3.5489,3.5489,3.5489,3.5489,3.5489,3.5489,3.5489,3.5489,3.5489,3.5489,3.5489,3.5489,3.5489,3.5489,3.5489,3.5489,3.5489,3.5489,3.5489,3.5489,3.5489,3.5489,3.5489,3.5489,3.5489,3.5489,3.5489,3.5489,3.5654,3.6073,3.6806,3.7375,3.8033,3.8706,3.914,3.9254,3.9358,3.9373,3.9388,3.9388,3.9388,3.9388,3.9388,3.9388,3.9388,3.9388,3.9388,3.9388,3.9388,3.9388,3.9424,3.9466,3.9538,3.9646,3.9646,3.9666,3.961,3.9481,3.9388,3.9388,3.9388,3.9388,3.9388,3.9388,3.9388,3.9388,3.9388,3.9388,3.9388,3.9388,3.9388,3.9388,3.9388,3.9388,3.9388,3.9388,3.9388,3.9388,3.9388,3.9388,3.9388,3.9388,3.9388,3.9388,3.9388,3.9388,3.9388,3.9388,3.9388,3.9388,3.9388,3.9388,3.9358,3.9215,3.8482,3.7404,3.6761,3.6492,3.6447,3.5804,3.5878,3.6492,3.6941,3.6806,3.6989,3.7124,3.6611,3.6207,3.5818,3.5774,3.5639,3.5489,3.5489,3.5489,3.5489,3.5489,3.5489,3.5489,3.5489,3.5489,3.5619,3.5587,3.5604,3.5522,3.5554,3.5522,3.5554,3.5489,3.5489,3.5489,3.5489,3.5489,3.5489,3.5489,3.5489,3.5489,3.5489,3.5489,3.5489,3.5489,3.5489,3.5489,3.5504,3.5624,3.6387,3.727,3.7569,3.8467,3.9185,3.932,3.9388,3.9388,3.9388,3.9388,3.9388,3.9388,3.9388,3.9388,3.9388,3.9388,3.9388,3.9388,3.9388,3.9388,3.9388,3.9424,3.9502,4.001,4.008,4.022,4.0185,3.9773,3.9646,3.9481,3.9388,3.9388,3.9388,3.9388,3.9388,3.9388,3.9388,3.9388,3.9388,3.9388,3.9388,3.9388,3.9388,3.9388,3.9388,3.9388,3.9388,3.9388,3.9388,3.9388,3.9388,3.9388,3.9388,3.9388,3.9388,3.9388,3.9388,3.9388,3.9388,3.9388,3.9388,3.9388,3.9388,3.9388,3.9388,3.888,3.8108,3.724,3.6866,3.6746,3.5908,3.5863,3.6462,3.6806,3.6806,3.6615,3.6956,3.6671,3.5953,3.5923,3.5744,3.5579,3.5489,3.5489,3.5489,3.5489,3.5489,3.5489,3.5522,3.5554,3.5975,3.5958,3.6133,3.6305,3.6243,3.5975,3.5878,3.5733,3.5554,3.5489,3.5489,3.5489,3.5489,3.5489,3.5489,3.5489,3.5489,3.5489,3.5489,3.5489,3.5489,3.5489,3.5489,3.5489,3.5669,3.6327,3.7015,3.7479,3.8317,3.8975,3.9349,3.9388,3.9388,3.9388,3.9388,3.9388,3.9388,3.9388,3.9388,3.9388,3.9388,3.9388,3.9388,3.9388,3.9388,3.9388,3.9388,3.9864,4.0466,4.0758,4.0894,4.0706,4.022,3.99,3.99,3.9717,3.9388,3.9388,3.9388,3.9388,3.9388,3.9388,3.9388,3.9388,3.9388,3.9388,3.9388,3.9388,3.9388,3.9388,3.9388,3.9388,3.9388,3.9388,3.9388,3.9388,3.9388,3.9388,3.9388,3.9388,3.9388,3.9388,3.9388,3.9388,3.9388,3.9388,3.9388,3.9388,3.9388,3.9388,3.9298,3.9149,3.7868,3.7389,3.7135,3.6058,3.5863,3.6417,3.6611,3.6596,3.6507,3.6686,3.6447,3.5519,3.5579,3.5549,3.5549,3.5489,3.5489,3.5489,3.5489,3.5489,3.5489,3.5554,3.5831,3.6554,3.6523,3.6737,3.7235,3.6919,3.6722,3.6615,3.6133,3.5686,3.5522,3.5489,3.5489,3.5489,3.5489,3.5489,3.5489,3.5489,3.5489,3.5489,3.5489,3.5489,3.5489,3.5489,3.5489,3.5804,3.6372,3.6926,3.7524,3.8302,3.8886,3.9209,3.9388,3.9388,3.9388,3.9388,3.9388,3.9388,3.9388,3.9388,3.9388,3.9388,3.9388,3.9388,3.9388,3.9388,3.9388,3.9753,4.0585,4.1147,4.1543,4.1674,4.1804,4.1362,4.0826,4.0638,4.022,3.9737,3.9589,3.9574,3.9517,3.9517,3.9388,3.9388,3.9388,3.9388,3.9388,3.9388,3.9388,3.9388,3.9388,3.9388,3.9388,3.9388,3.9388,3.9388,3.9388,3.9388,3.9388,3.9388,3.9388,3.9388,3.9388,3.9388,3.9388,3.9388,3.9388,3.9388,3.9388,3.9388,3.9388,3.9095,3.8571,3.7778,3.7375,3.7165,3.6207,3.5833,3.6342,3.6402,3.6402,3.6432,3.6312,3.6058,3.5684,3.5489,3.5489,3.5489,3.5489,3.5489,3.5489,3.5489,3.5489,3.5489,3.5587,3.5846,3.6523,3.66,3.7024,3.7835,3.7499,3.7397,3.7411,3.6783,3.607,3.5668,3.5522,3.5489,3.5489,3.5489,3.5489,3.5489,3.5489,3.5489,3.5489,3.5489,3.5489,3.5489,3.5489,3.5489,3.5684,3.6492,3.709,3.7614,3.8347,3.9074,3.9254,3.9388,3.9388,3.9388,3.9388,3.9388,3.9388,3.9388,3.9388,3.9388,3.9388,3.9388,3.9388,3.9424,3.9424,3.9424,4.0324,4.1229,4.182,4.2269,4.2489,4.2661,4.2426,4.1901,4.1379,4.0826,4.0397,4.0185,4.0095,3.99,3.9809,3.9445,3.9409,3.9388,3.9388,3.9388,3.9388,3.9388,3.9388,3.9388,3.9388,3.9388,3.9388,3.9388,3.9388,3.9388,3.9388,3.9388,3.9388,3.9388,3.9388,3.9388,3.9388,3.9388,3.9388,3.9388,3.9388,3.9388,3.9328,3.9095,3.8736,3.8272,3.7404,3.7,3.6866,3.6028,3.5729,3.6043,3.6043,3.6088,3.6088,3.6028,3.5818,3.5579,3.5489,3.5489,3.5489,3.5489,3.5489,3.5489,3.5489,3.5489,3.5489,3.5554,3.5846,3.6461,3.6661,3.7128,3.7991,3.8035,3.8007,3.8218,3.7499,3.6783,3.6038,3.575,3.5522,3.5489,3.5489,3.5489,3.5489,3.5489,3.5489,3.5489,3.5489,3.5489,3.5489,3.5489,3.5489,3.5848,3.6537,3.7404,3.7778,3.8482,3.9328,3.9388,3.9388,3.9388,3.9388,3.9388,3.9388,3.9388,3.9388,3.9388,3.9388,3.9388,3.9388,3.9388,3.9481,3.9538,3.9864,4.0535,4.1609,4.2583,4.2986,4.3246,4.3306,4.3139,4.2676,4.2395,4.1804,4.1313,4.1062,4.074,4.0481,4.0255,3.999,3.9574,3.9388,3.9388,3.9388,3.9388,3.9388,3.9388,3.9388,3.9388,3.9388,3.9388,3.9388,3.9388,3.9388,3.9388,3.9388,3.9388,3.9388,3.9388,3.9388,3.9388,3.9388,3.9388,3.9388,3.9388,3.9388,3.9284,3.8691,3.8332,3.8048,3.7015,3.6447,3.6297,3.5759,3.5534,3.5504,3.5504,3.5504,3.5549,3.5669,3.5534,3.5519,3.5489,3.5489,3.5489,3.5489,3.5489,3.5489,3.5489,3.5489,3.5489,3.5701,3.6086,3.6523,3.6964,3.744,3.8173,3.8414,3.8246,3.8497,3.8145,3.7616,3.6874,3.607,3.575,3.5587,3.5489,3.5489,3.5489,3.5489,3.5489,3.5489,3.5489,3.5489,3.5489,3.5489,3.5489,3.5818,3.6701,3.727,3.7689,3.8631,3.9134,3.9388,3.9388,3.9424,3.9424,3.9424,3.9424,3.9646,3.9646,3.9717,3.9753,3.9646,3.9646,3.9589,3.9666,3.9935,4.0432,4.0912,4.1965,4.3139,4.3562,4.3844,4.3844,4.3651,4.3486,4.3276,4.2909,4.2489,4.2062,4.1642,4.1313,4.1062,4.0808,4.0324,3.9773,3.9702,3.9844,3.9388,3.9388,3.9388,3.9388,3.9388,3.9388,3.9388,3.9388,3.9388,3.9388,3.9388,3.9388,3.9388,3.9388,3.9388,3.9388,3.9388,3.9388,3.9388,3.9388,3.9388,3.9388,3.932,3.8676,3.8108,3.7524,3.6821,3.6207,3.5789,3.5624,3.5489,3.5489,3.5489,3.5489,3.5489,3.5489,3.5489,3.5504,3.5489,3.5489,3.5489,3.5489,3.5489,3.5489,3.5489,3.5489,3.5522,3.5991,3.6384,3.6538,3.7249,3.7632,3.7847,3.8104,3.8469,3.869,3.8799,3.8386,3.806,3.7203,3.6117,3.5782,3.5489,3.5489,3.5489,3.5489,3.5489,3.5489,3.5489,3.5489,3.5489,3.5489,3.5489,3.5804,3.6701,3.724,3.7808,3.8736,3.9224,3.9388,3.9424,3.9481,3.9481,3.946,3.9773,4.0569,4.0672,4.086,4.086,4.0569,4.0481,4.0289,4.0255,4.0808,4.1379,4.1674,4.2252,4.3152,4.3873,4.4121,4.4355,4.4253,4.4224,4.3931,4.3545,4.3152,4.3,4.2583,4.2141,4.1981,4.1772,4.1147,4.0622,4.05,4.0432,3.9864,3.9517,3.9773,3.9773,3.9424,3.9388,3.9424,3.9388,3.9388,3.9388,3.9388,3.9388,3.9388,3.9388,3.9388,3.9388,3.9388,3.9388]}]]